[[{"header":{"parameterUnit":"m.s-1","parameterCategory":1,"la1":30.6,"la2":29.2853,"lo1":-89.7004,"lo2":-87.6739,"dy":0.0162,"dx":0.0183,"nx":112,"ny":82,"refTime":"2026-04-01T00:00:00:Z","depth":0,"parameterNumber":2,"parameterNumberName":"U-component_of_WINDS"},"data":[0.0,0.0,0.0,0.0,0.0,0.0,0.0,0.0,0.0,0.0,0.0,0.0,0.0,0.0,0.0,0.0,0.0,0.0,0.0,0.0,0.0,0.0,0.0,0.0,0.0,0.0,0.0,0.0,0.0,0.0,0.0,0.0,0.0,0.0,0.0,0.0,0.0,0.0,0.0,0.0,0.0,0.0,0.0,0.0,0.0,0.0,0.0,0.0,0.0,0.0,0.0,0.0,0.0,0.0,0.0,0.0,0.0,0.0,0.0,0.0,0.0,0.0,0.0,0.0,0.0,0.0,0.0,0.0,0.0,0.0,0.0,0.0,0.0,0.0,0.0,0.0,0.0,0.0,0.0,0.0,0.0,0.0,0.0,0.0,0.0,0.0,0.0,0.0,0.0,0.0,0.0,-3.3596,-3.8237,-3.992,-3.7328,-3.4209,-3.1565,-2.9611,0.0,0.0,0.0,0.0,0.0,0.0,0.0,0.0,0.0,0.0,0.0,0.0,0.0,0.0,0.0,0.0,0.0,0.0,0.0,0.0,0.0,0.0,0.0,0.0,0.0,0.0,0.0,0.0,0.0,0.0,0.0,0.0,0.0,0.0,0.0,0.0,0.0,0.0,0.0,0.0,0.0,0.0,0.0,0.0,0.0,0.0,0.0,0.0,0.0,0.0,0.0,0.0,0.0,0.0,0.0,0.0,0.0,0.0,0.0,0.0,0.0,0.0,0.0,0.0,0.0,0.0,0.0,0.0,0.0,0.0,0.0,0.0,0.0,0.0,0.0,0.0,0.0,0.0,0.0,0.0,0.0,0.0,0.0,0.0,0.0,0.0,0.0,0.0,0.0,0.0,0.0,0.0,0.0,0.0,0.0,0.0,0.0,0.0,0.0,0.0,0.0,0.0,0.0,0.0,-3.1395,-3.7837,-4.05,-4.0771,-3.8212,-3.6226,-3.375,-3.0598,0.0,0.0,0.0,0.0,0.0,0.0,0.0,0.0,0.0,0.0,0.0,0.0,0.0,0.0,0.0,0.0,0.0,0.0,0.0,0.0,0.0,0.0,0.0,0.0,0.0,0.0,0.0,0.0,0.0,0.0,0.0,0.0,0.0,0.0,0.0,0.0,0.0,0.0,0.0,0.0,0.0,0.0,0.0,0.0,0.0,0.0,0.0,0.0,0.0,0.0,0.0,0.0,0.0,0.0,0.0,0.0,0.0,0.0,0.0,0.0,0.0,0.0,0.0,0.0,0.0,0.0,0.0,0.0,0.0,0.0,0.0,0.0,0.0,0.0,0.0,0.0,0.0,0.0,0.0,0.0,0.0,0.0,0.0,0.0,0.0,0.0,0.0,0.0,0.0,0.0,0.0,0.0,0.0,0.0,0.0,0.0,0.0,0.0,0.0,0.0,0.0,0.0,0.0,-3.0016,-3.5154,-3.9713,-4.1699,-4.1661,-3.9127,-3.6502,-3.3543,-3.0114,-2.5089,0.0,0.0,0.0,0.0,0.0,0.0,0.0,0.0,0.0,0.0,0.0,0.0,0.0,0.0,0.0,0.0,0.0,0.0,0.0,0.0,0.0,0.0,0.0,0.0,0.0,0.0,0.0,0.0,0.0,0.0,0.0,0.0,0.0,0.0,0.0,0.0,0.0,0.0,0.0,0.0,0.0,0.0,0.0,0.0,0.0,0.0,0.0,0.0,0.0,0.0,0.0,0.0,0.0,0.0,0.0,0.0,0.0,0.0,0.0,0.0,0.0,0.0,0.0,0.0,0.0,0.0,0.0,0.0,0.0,0.0,0.0,0.0,0.0,0.0,0.0,0.0,0.0,0.0,0.0,0.0,0.0,0.0,0.0,0.0,0.0,0.0,0.0,0.0,0.0,0.0,0.0,0.0,0.0,0.0,0.0,0.0,0.0,0.0,0.0,0.0,0.0,0.0,-3.4162,-3.8199,-4.0816,-4.2415,-4.2106,-3.9133,-3.5941,-3.2551,-2.8915,-2.3716,0.0,0.0,0.0,0.0,0.0,0.0,0.0,0.0,0.0,0.0,0.0,0.0,0.0,0.0,0.0,0.0,0.0,0.0,0.0,0.0,0.0,0.0,0.0,0.0,0.0,0.0,0.0,0.0,0.0,0.0,0.0,0.0,0.0,0.0,0.0,0.0,0.0,0.0,0.0,0.0,0.0,0.0,0.0,0.0,0.0,0.0,0.0,0.0,0.0,0.0,0.0,0.0,0.0,0.0,0.0,0.0,0.0,0.0,0.0,0.0,0.0,0.0,0.0,0.0,0.0,0.0,0.0,0.0,0.0,0.0,0.0,0.0,0.0,0.0,0.0,0.0,0.0,0.0,0.0,0.0,0.0,0.0,0.0,0.0,0.0,0.0,0.0,0.0,0.0,0.0,0.0,0.0,0.0,0.0,0.0,0.0,0.0,0.0,0.0,0.0,0.0,0.0,-3.5408,-3.9088,-4.1641,-4.2744,-4.1603,-3.7444,-3.4693,-3.1386,-2.7151,-2.133,0.0,0.0,0.0,0.0,0.0,0.0,0.0,0.0,0.0,0.0,0.0,0.0,0.0,0.0,0.0,0.0,0.0,0.0,0.0,0.0,0.0,0.0,0.0,0.0,0.0,0.0,0.0,0.0,0.0,0.0,0.0,0.0,0.0,0.0,0.0,0.0,0.0,0.0,0.0,0.0,0.0,0.0,0.0,0.0,0.0,0.0,0.0,0.0,0.0,0.0,0.0,0.0,0.0,0.0,0.0,0.0,0.0,0.0,0.0,0.0,0.0,0.0,0.0,0.0,0.0,0.0,0.0,0.0,0.0,0.0,0.0,0.0,0.0,0.0,0.0,0.0,0.0,0.0,0.0,0.0,0.0,0.0,0.0,0.0,0.0,0.0,0.0,0.0,0.0,0.0,0.0,0.0,0.0,0.0,0.0,0.0,0.0,0.0,0.0,0.0,0.0,0.0,-3.5504,-3.9316,0.0,-4.3043,-4.2135,-3.9432,-3.5415,-3.1437,-2.7691,0.0,0.0,0.0,0.0,0.0,0.0,0.0,0.0,0.0,0.0,0.0,0.0,0.0,0.0,0.0,0.0,0.0,0.0,0.0,0.0,0.0,0.0,0.0,0.0,0.0,0.0,0.0,0.0,0.0,0.0,0.0,0.0,0.0,0.0,0.0,0.0,0.0,0.0,0.0,0.0,0.0,0.0,0.0,0.0,0.0,0.0,0.0,0.0,0.0,0.0,0.0,0.0,0.0,0.0,0.0,0.0,0.0,0.0,0.0,0.0,0.0,0.0,0.0,0.0,0.0,0.0,0.0,0.0,0.0,0.0,0.0,0.0,0.0,0.0,0.0,0.0,0.0,0.0,0.0,0.0,0.0,0.0,0.0,0.0,0.0,0.0,0.0,0.0,0.0,0.0,0.0,0.0,0.0,0.0,0.0,0.0,0.0,0.0,0.0,0.0,0.0,0.0,-3.1163,-3.5586,-3.9302,0.0,-4.3103,-4.2171,-3.9899,-3.529,-3.0958,-2.7286,0.0,0.0,0.0,0.0,0.0,0.0,0.0,0.0,0.0,0.0,0.0,0.0,0.0,0.0,0.0,0.0,0.0,0.0,0.0,0.0,0.0,0.0,0.0,0.0,0.0,0.0,0.0,0.0,0.0,0.0,0.0,0.0,0.0,0.0,0.0,0.0,0.0,0.0,0.0,0.0,0.0,0.0,0.0,0.0,0.0,0.0,0.0,0.0,0.0,0.0,0.0,0.0,0.0,0.0,0.0,0.0,0.0,0.0,0.0,0.0,0.0,0.0,0.0,0.0,0.0,0.0,0.0,0.0,0.0,0.0,0.0,0.0,0.0,0.0,0.0,0.0,0.0,0.0,0.0,0.0,0.0,0.0,0.0,0.0,0.0,0.0,0.0,0.0,0.0,0.0,0.0,0.0,0.0,0.0,0.0,0.0,0.0,0.0,0.0,0.0,0.0,0.0,-3.1891,-3.5767,-3.9103,-4.2514,-4.2878,-4.1508,-3.8109,-3.3937,-2.9724,0.0,0.0,0.0,0.0,0.0,0.0,0.0,0.0,0.0,0.0,0.0,0.0,0.0,0.0,0.0,0.0,0.0,0.0,0.0,0.0,0.0,0.0,0.0,0.0,0.0,0.0,0.0,0.0,0.0,0.0,0.0,0.0,0.0,0.0,0.0,0.0,0.0,0.0,0.0,0.0,0.0,0.0,0.0,0.0,0.0,0.0,0.0,0.0,0.0,0.0,0.0,0.0,0.0,0.0,0.0,0.0,0.0,0.0,0.0,0.0,0.0,0.0,0.0,0.0,0.0,0.0,0.0,0.0,0.0,0.0,0.0,0.0,0.0,0.0,0.0,0.0,0.0,0.0,0.0,0.0,0.0,0.0,0.0,0.0,0.0,0.0,0.0,0.0,0.0,0.0,0.0,0.0,0.0,0.0,0.0,0.0,0.0,0.0,0.0,0.0,0.0,0.0,0.0,-3.1143,-3.5354,-3.8597,-4.0825,-4.1571,-4.1026,-3.8826,-3.5291,-3.1644,-2.8039,0.0,0.0,0.0,0.0,0.0,0.0,0.0,0.0,0.0,0.0,0.0,0.0,0.0,0.0,0.0,0.0,0.0,0.0,0.0,0.0,0.0,0.0,0.0,0.0,0.0,0.0,0.0,0.0,0.0,0.0,0.0,0.0,0.0,0.0,0.0,0.0,0.0,0.0,0.0,0.0,0.0,0.0,0.0,0.0,0.0,0.0,0.0,0.0,0.0,0.0,0.0,0.0,0.0,0.0,0.0,0.0,0.0,0.0,0.0,0.0,0.0,0.0,0.0,0.0,0.0,0.0,0.0,0.0,0.0,0.0,0.0,0.0,0.0,0.0,0.0,0.0,0.0,0.0,0.0,0.0,0.0,0.0,0.0,0.0,0.0,0.0,0.0,0.0,0.0,0.0,0.0,0.0,0.0,0.0,0.0,0.0,0.0,0.0,0.0,0.0,0.0,0.0,-3.0802,-3.5081,-3.8118,-3.9519,-4.0385,-4.0061,-3.8051,-3.5385,-3.2102,-2.8072,0.0,0.0,0.0,0.0,0.0,0.0,0.0,0.0,0.0,0.0,0.0,0.0,0.0,0.0,0.0,0.0,0.0,0.0,0.0,0.0,0.0,0.0,0.0,0.0,0.0,0.0,0.0,0.0,0.0,0.0,0.0,0.0,0.0,0.0,0.0,0.0,0.0,0.0,0.0,0.0,0.0,0.0,0.0,0.0,0.0,0.0,0.0,0.0,0.0,0.0,0.0,0.0,0.0,0.0,0.0,0.0,0.0,0.0,0.0,0.0,0.0,0.0,0.0,0.0,0.0,0.0,0.0,0.0,0.0,0.0,0.0,0.0,0.0,0.0,0.0,0.0,0.0,0.0,0.0,0.0,0.0,0.0,0.0,0.0,0.0,0.0,0.0,0.0,0.0,0.0,0.0,0.0,0.0,0.0,0.0,0.0,0.0,0.0,0.0,0.0,0.0,0.0,-3.0764,-3.4906,-3.7704,-3.8481,-3.9304,-3.8801,-3.6386,-3.4661,-3.1648,-2.6861,0.0,0.0,0.0,0.0,0.0,0.0,0.0,0.0,0.0,0.0,0.0,0.0,0.0,0.0,0.0,0.0,0.0,0.0,0.0,0.0,0.0,0.0,0.0,0.0,0.0,0.0,0.0,0.0,0.0,0.0,0.0,0.0,0.0,0.0,0.0,0.0,0.0,0.0,0.0,0.0,0.0,0.0,0.0,0.0,0.0,0.0,0.0,0.0,0.0,0.0,0.0,0.0,0.0,0.0,0.0,0.0,0.0,0.0,0.0,0.0,-2.3858,0.0,0.0,0.0,0.0,0.0,0.0,0.0,0.0,0.0,0.0,0.0,0.0,0.0,0.0,0.0,0.0,0.0,0.0,0.0,0.0,0.0,0.0,0.0,0.0,0.0,0.0,0.0,0.0,0.0,0.0,0.0,0.0,0.0,0.0,0.0,0.0,0.0,0.0,0.0,0.0,0.0,-3.0856,-3.4869,-3.7476,-3.7666,-3.8443,-3.8216,-3.6358,-3.4661,-3.2406,-2.9374,-2.5565,0.0,0.0,0.0,0.0,0.0,0.0,0.0,0.0,0.0,0.0,0.0,0.0,0.0,0.0,0.0,0.0,0.0,0.0,0.0,0.0,0.0,0.0,0.0,0.0,0.0,0.0,0.0,0.0,0.0,0.0,0.0,0.0,0.0,0.0,0.0,0.0,0.0,0.0,0.0,0.0,0.0,0.0,0.0,0.0,0.0,0.0,0.0,0.0,0.0,0.0,0.0,0.0,0.0,0.0,0.0,0.0,0.0,0.0,0.0,0.0,-2.6585,0.0,0.0,0.0,0.0,0.0,0.0,0.0,0.0,0.0,0.0,0.0,0.0,0.0,0.0,0.0,0.0,0.0,0.0,0.0,0.0,0.0,0.0,0.0,0.0,0.0,0.0,0.0,0.0,0.0,0.0,0.0,0.0,0.0,0.0,0.0,0.0,0.0,0.0,0.0,0.0,-3.1453,-3.5486,-3.7856,-3.7438,-3.7818,-3.7401,-3.5723,-3.4415,-3.2463,-2.9556,-2.655,0.0,0.0,0.0,0.0,0.0,0.0,0.0,0.0,0.0,0.0,0.0,0.0,0.0,0.0,0.0,0.0,0.0,0.0,0.0,0.0,0.0,0.0,0.0,0.0,0.0,0.0,0.0,0.0,0.0,0.0,0.0,0.0,0.0,0.0,0.0,0.0,0.0,0.0,0.0,0.0,0.0,0.0,0.0,0.0,0.0,0.0,0.0,0.0,0.0,0.0,0.0,0.0,0.0,-3.6975,-3.7861,-3.7744,-3.8029,-3.8824,-3.977,-3.5685,-3.3285,-3.2141,0.0,0.0,0.0,0.0,0.0,0.0,0.0,0.0,0.0,0.0,0.0,0.0,0.0,0.0,0.0,0.0,0.0,0.0,0.0,0.0,0.0,0.0,0.0,0.0,0.0,-3.3124,-3.1878,0.0,0.0,0.0,0.0,0.0,0.0,0.0,0.0,0.0,0.0,0.0,0.0,-3.2294,-3.6217,-3.8367,-3.7495,-3.7401,-3.6708,-3.504,-3.4282,-3.2596,-2.9537,-2.7782,-2.5413,0.0,0.0,0.0,0.0,0.0,0.0,0.0,0.0,0.0,0.0,0.0,0.0,0.0,0.0,0.0,0.0,0.0,0.0,0.0,0.0,0.0,0.0,0.0,0.0,0.0,0.0,0.0,0.0,0.0,0.0,0.0,0.0,-1.9654,-1.9768,0.0,0.0,0.0,0.0,0.0,0.0,0.0,0.0,0.0,0.0,0.0,0.0,0.0,-3.2019,-3.4522,-3.6948,-3.8574,-3.9414,-4.2487,-4.3916,-4.3885,-4.528,-4.5665,-4.516,-4.4509,0.0,-3.6386,-3.3781,0.0,0.0,0.0,0.0,0.0,0.0,0.0,0.0,0.0,0.0,0.0,0.0,0.0,0.0,0.0,0.0,0.0,0.0,0.0,0.0,0.0,0.0,-3.6804,-3.7676,-3.7819,-3.7412,0.0,-3.2978,-2.9905,-2.8507,-2.791,0.0,0.0,0.0,0.0,0.0,0.0,0.0,-3.3201,-3.6566,-3.8367,-3.7495,-3.7401,-3.6708,-3.504,-3.4794,-3.3922,-3.2019,-3.0389,-2.8313,-2.5648,-2.3158,0.0,0.0,0.0,0.0,0.0,0.0,0.0,0.0,0.0,0.0,0.0,0.0,0.0,0.0,0.0,0.0,0.0,0.0,0.0,0.0,0.0,0.0,0.0,0.0,0.0,0.0,0.0,0.0,0.0,-1.9735,-2.1875,-2.2854,-2.3695,-2.3892,0.0,0.0,0.0,0.0,0.0,0.0,0.0,0.0,0.0,-3.4885,-3.5935,-3.7627,-4.011,-4.2669,-4.4327,-4.5125,-4.75,-4.8815,-4.9186,-4.9893,-5.0031,-4.9671,-4.9381,-4.7409,-4.408,-3.9594,-3.716,-3.5902,0.0,0.0,0.0,0.0,-3.3787,-3.6046,-3.5723,-3.5202,0.0,-3.3828,0.0,0.0,0.0,0.0,0.0,0.0,0.0,0.0,0.0,0.0,0.0,-4.0574,-4.0423,-4.0006,-3.9627,-3.7733,-3.5496,0.0,-3.2177,-3.0913,-2.8837,0.0,0.0,0.0,0.0,0.0,-3.4728,-3.7211,-3.8557,-3.8178,-3.7287,-3.6623,-3.6329,-3.5893,-3.5116,-3.3884,-3.2255,-3.0018,-2.705,-2.4984,-2.2495,0.0,0.0,0.0,0.0,0.0,0.0,0.0,0.0,0.0,0.0,0.0,0.0,0.0,0.0,0.0,0.0,0.0,0.0,0.0,0.0,0.0,0.0,0.0,0.0,0.0,0.0,0.0,0.0,-2.2562,-2.4549,-2.6275,-2.7192,-2.7529,0.0,0.0,0.0,0.0,0.0,0.0,-3.2917,-3.4655,-3.6642,-3.8935,-4.0864,-4.2859,-4.4921,-4.7468,-4.8982,-4.9518,-5.121,-5.2278,-5.2741,-5.2949,-5.2878,-5.2594,-5.2267,-5.1542,-5.0163,-4.5393,-4.2701,-4.1317,-3.8362,-3.7316,-3.7423,-3.7117,-3.8648,-4.071,-3.9678,-3.9323,-3.9286,-3.9077,0.0,-3.559,-3.4131,0.0,0.0,0.0,0.0,-3.6803,-3.9581,-4.137,-4.264,-4.3227,-4.2924,-4.2356,-4.1927,-4.1321,-4.0071,0.0,-3.5647,-3.4112,-3.2444,0.0,0.0,0.0,0.0,-3.3202,-3.613,-3.7799,-3.869,-3.869,-3.7382,-3.6756,-3.7363,-3.6851,-3.614,-3.5287,-3.3657,-3.1345,-2.8264,-2.6122,-2.3525,-2.0367,0.0,0.0,0.0,0.0,0.0,0.0,0.0,0.0,0.0,0.0,0.0,0.0,0.0,0.0,0.0,0.0,0.0,0.0,0.0,0.0,0.0,0.0,0.0,0.0,0.0,0.0,0.0,0.0,0.0,-2.9752,-3.0663,0.0,0.0,0.0,0.0,-3.3498,-3.4426,-3.5611,-3.7292,-3.9049,-4.0769,-4.2488,-4.484,-4.6553,-4.7499,-4.9993,-5.121,-5.1207,-5.2872,-5.3647,-5.3669,-5.4427,-5.4185,-5.3185,-5.3465,-5.3101,-5.2134,-5.0238,-4.8194,-4.6282,-4.6591,-4.5761,-4.4513,-4.5559,-4.4912,-4.3606,-4.4289,-4.4516,-4.4402,-4.3625,-4.1162,-3.8348,-3.7438,-3.595,0.0,0.0,-3.8963,-4.0412,-4.3739,-4.5255,-4.5956,-4.5994,-4.5975,-4.5501,-4.3929,-4.3549,-4.2526,0.0,-3.7837,-3.667,-3.5003,0.0,-3.2406,-3.3373,-3.4207,-3.5344,-3.7116,-3.814,-3.869,-3.869,-3.7874,-3.7363,-3.7401,-3.7363,-3.7002,-3.6187,-3.4567,-3.2501,-2.9981,-2.6747,-2.379,-2.1181,-1.9495,0.0,0.0,0.0,0.0,0.0,0.0,0.0,0.0,0.0,0.0,0.0,0.0,0.0,0.0,0.0,0.0,0.0,0.0,0.0,0.0,0.0,0.0,0.0,0.0,0.0,0.0,0.0,0.0,-3.3223,-3.5602,0.0,-3.6767,-3.6719,-3.7082,-3.7999,-3.8801,-3.9986,-4.1657,-4.2889,-4.476,-4.7484,-4.8395,-4.9484,-5.0837,-5.2296,-5.2979,-5.2929,-5.4031,-5.4539,-5.4484,-5.4769,-5.4693,-5.4299,-5.4419,-5.4002,-5.3177,-5.2361,-5.1161,-4.9667,-4.8036,-4.7694,-4.8036,-4.7359,-4.703,-4.6973,-4.7258,-4.698,-4.6373,-4.5558,-4.4118,-4.2545,-4.1711,-4.065,-4.0025,-4.1503,-4.2507,-4.3531,-4.5274,-4.6354,-4.6961,-4.6961,-4.6582,-4.6032,-4.5445,-4.4023,-4.2678,-4.2033,-4.12,-4.0271,-3.9153,-3.7561,-3.6746,-3.757,-3.7485,-3.775,-3.8869,-3.8831,-3.869,-3.869,-3.7457,-3.6851,-3.7363,-3.6927,-3.6282,-3.542,-3.379,-3.1753,-2.9271,-2.6986,-2.4833,-2.2855,-2.1163,-1.9761,0.0,0.0,0.0,0.0,0.0,0.0,0.0,0.0,0.0,0.0,0.0,0.0,0.0,0.0,0.0,0.0,0.0,0.0,0.0,0.0,0.0,0.0,0.0,0.0,0.0,0.0,-3.4705,-3.6691,-3.9422,-4.1151,-4.1132,-4.1151,-4.1256,-4.1523,-4.2297,-4.3108,-4.3918,-4.5301,-4.7072,-4.9255,-5.0126,-5.1211,-5.2561,-5.3674,-5.4221,-5.4178,-5.4709,-5.4927,-5.4901,-5.4901,-5.4901,-5.4901,-5.4893,-5.4609,-5.4086,-5.3873,-5.3343,-5.2471,-5.0031,-4.9765,-5.0599,-4.95,-4.9443,-4.9898,-4.9633,-4.8969,-4.8155,-4.7605,-4.6866,-4.607,-4.5539,-4.4781,-4.427,-4.5141,-4.5767,-4.6373,-4.7226,-4.7845,-4.8174,-4.7889,-4.7416,-4.6885,-4.6316,-4.4421,-4.3019,-4.3587,-4.2791,-4.1908,-4.1643,-4.046,-3.9816,-4.062,-3.9816,-3.9399,-4.0222,-3.938,-3.8803,-3.9077,-3.7874,-3.7268,-3.7799,-3.7078,-3.6121,-3.4965,-3.307,-3.0995,-2.8798,-2.6835,-2.5136,-2.3727,-2.1794,-2.0518,-1.9988,0.0,0.0,0.0,0.0,0.0,0.0,0.0,0.0,0.0,0.0,0.0,0.0,0.0,0.0,0.0,0.0,0.0,0.0,0.0,0.0,0.0,0.0,0.0,-3.0204,-3.3987,-3.7589,-4.011,-4.1972,-4.3654,-4.5269,-4.3959,-4.3329,-4.4064,-4.4851,-4.4914,-4.4007,-4.6287,-4.7615,-4.7672,-5.0025,-5.1676,-5.2512,-5.4097,-5.4901,-5.4901,-5.4901,-5.4901,-5.4901,-5.4901,-5.4901,-5.4901,-5.4901,-5.4901,-5.4901,-5.4901,-5.4901,-5.475,-5.3082,-5.2475,-5.248,-5.2442,-5.2423,-5.2272,-5.1476,-5.0637,-4.9912,-4.9912,-4.9381,-4.8736,-4.8736,-4.813,-4.7605,-4.8471,-4.8679,-4.885,-4.9627,-4.9836,-4.9665,-4.8888,-4.8698,-4.8262,-4.6582,-4.4895,-4.3701,-4.3739,-4.2375,-4.1491,-4.2299,-4.1825,-4.1567,-4.2325,-4.1056,0.0,-4.1094,-3.9759,-3.9039,-3.9824,-3.9172,-3.869,-3.869,-3.7874,-3.6651,-3.4965,-3.2539,-3.0408,-2.8741,-2.6304,-2.4586,-2.3727,-2.1339,-2.0083,-2.0026,0.0,0.0,0.0,0.0,0.0,0.0,0.0,0.0,0.0,0.0,0.0,0.0,0.0,0.0,0.0,0.0,0.0,0.0,0.0,0.0,0.0,0.0,-3.2561,-3.2843,-3.7064,-4.0845,-4.2765,-4.6099,-4.8181,-4.8078,-4.8162,-4.7815,-4.6759,-4.6889,-4.6637,-4.5754,-4.6922,-4.8123,-4.929,-5.0049,-5.1247,-5.3002,-5.4276,-5.4901,-5.4901,-5.4901,-5.4901,-5.4901,-5.4901,-5.4901,-5.4901,-5.4901,-5.4901,-5.4901,-5.4901,-5.4901,-5.4806,-5.3745,-5.3707,-5.4143,-5.3556,-5.2949,-5.2272,-5.1476,-5.0637,-4.9912,-4.9912,-4.976,-4.957,-4.957,-4.9002,-4.8395,-4.8642,-4.8243,-4.7813,-4.8022,-4.8566,-4.8983,-4.8755,-4.8698,-4.8395,-4.7302,-4.5293,-4.3872,-4.4459,-4.3227,-4.2337,-4.3208,-4.3644,-4.3758,-4.3398,-4.2962,0.0,-4.1321,-4.0241,-3.9654,-3.9881,-3.9172,-3.869,-3.869,-3.7363,-3.5799,-3.4131,-3.1659,-2.9518,-2.7904,-2.6008,-2.4586,-2.3727,-2.3026,-2.2078,0.0,0.0,0.0,0.0,0.0,0.0,0.0,0.0,0.0,0.0,0.0,0.0,0.0,0.0,0.0,0.0,0.0,0.0,0.0,0.0,0.0,0.0,-3.3359,-3.6388,-3.7833,-4.0615,-4.3146,-4.4847,-4.7857,-4.9748,-4.9614,-4.9362,-4.8945,-4.83,-4.7841,-4.7405,-4.6894,-4.763,-4.8485,-4.9434,-4.9817,-5.0927,-5.2845,-5.4223,-5.4901,-5.4901,-5.4901,-5.4901,-5.4901,-5.4901,-5.4901,0.0,-5.4901,-5.4901,-5.4901,-5.4901,-5.4901,0.0,0.0,0.0,0.0,0.0,-5.3669,-5.2892,-5.2419,-5.1679,-5.094,-5.094,-5.094,-5.0827,-5.012,-4.9343,-4.8547,-4.7864,-4.7018,-4.643,-4.679,-4.7523,-4.8262,-4.8623,-4.8964,-4.8983,-4.813,-4.6259,-4.4781,-4.4876,-4.3834,0.0,-4.3606,-4.4364,-4.4743,-4.427,-4.3606,-4.281,-4.1832,-4.0961,-4.0449,-4.0449,-4.0328,-3.9968,-3.9267,-3.8319,0.0,0.0,0.0,-2.9905,-2.7608,-2.6565,0.0,0.0,0.0,0.0,0.0,0.0,0.0,0.0,-2.1447,-2.1775,0.0,0.0,0.0,0.0,0.0,0.0,0.0,0.0,0.0,0.0,0.0,0.0,0.0,0.0,0.0,0.0,-3.6975,-4.0308,-4.3491,-4.4227,-4.5028,-4.6593,-4.8315,-4.9614,-5.0233,-4.8888,-4.825,-4.8924,-4.8149,-4.7612,-4.7485,0.0,0.0,0.0,0.0,-5.0312,-5.2385,-5.4067,-5.4901,-5.4901,-5.4901,-5.4901,-5.4901,-5.4901,-5.4901,-5.4901,-5.4901,-5.4901,-5.4901,-5.4901,-5.4901,-5.4901,-5.4901,-5.4901,-5.4901,-5.4901,-5.4389,-5.3707,-5.3707,0.0,0.0,-5.2385,-5.2385,-5.2115,-5.0523,-4.9419,-4.8376,-4.6771,-4.5634,-4.5103,-4.5975,-4.679,-4.7605,-4.849,-4.9305,-4.9684,-4.8869,-4.7447,-4.6108,-4.5331,-4.4459,-4.3872,-4.3966,-4.4497,-4.4876,-4.4781,-4.3512,-4.2515,-4.2401,-4.1787,-4.1351,-4.1351,0.0,0.0,-4.0317,-4.0014,-3.8593,-3.5514,-3.3486,-3.0966,-2.7771,-2.7638,-2.7638,-2.7638,-2.688,-2.6956,-2.793,-2.7221,-2.7706,-2.9177,-2.583,-2.4769,0.0,0.0,0.0,0.0,0.0,0.0,0.0,0.0,0.0,0.0,0.0,0.0,0.0,0.0,0.0,-3.6253,-3.9505,-4.2428,-4.4478,-4.6554,-4.8009,-4.8471,-5.0057,-5.087,-5.0269,-4.9914,-4.9465,-4.8878,-4.865,-4.8213,-4.746,-4.802,0.0,-4.8372,-4.6737,-4.798,-5.2347,-5.4057,-5.4901,-5.4901,0.0,0.0,-5.4901,-5.4901,-5.4901,-5.4901,-5.4901,-5.4901,-5.4901,-5.4901,-5.4901,-5.4901,-5.4901,-5.4901,-5.4901,-5.4901,-5.4389,-5.3707,-5.3707,-5.3139,-5.2385,-5.2385,-5.2385,-5.2229,-5.1244,-4.9898,0.0,-4.7453,-4.607,-4.5103,-4.5975,-4.679,-4.7605,-4.849,-4.9305,-4.9684,-4.8869,-4.7902,-4.7112,-4.6942,-4.5691,-4.4895,-4.5596,-4.5255,-4.4687,-4.4023,-4.3663,-4.3189,-4.2477,-4.2249,-4.2174,-4.2174,-4.2306,-4.2268,-4.1927,-4.0677,-3.9351,-3.8045,-3.4453,-3.1223,-2.857,-2.8476,-2.8476,-2.8476,-2.8305,-2.8949,-3.0492,-3.0966,-3.1724,-3.2653,-2.929,-2.8551,0.0,0.0,0.0,0.0,0.0,0.0,0.0,0.0,0.0,0.0,0.0,-3.0861,-3.1648,0.0,-3.6879,-3.8963,-4.1749,-4.4111,-4.5418,-4.7447,-4.8846,-4.8945,-5.0068,-5.0671,-5.0196,-4.9752,-4.9474,-4.941,-4.8991,-4.8712,-4.8645,-4.9346,-5.0065,-5.0723,-4.9655,-5.034,-5.3019,-5.428,-5.4901,-5.4901,-5.4901,-5.4901,-5.4901,-5.4901,-5.4901,-5.4901,-5.4901,-5.4901,-5.4901,-5.4901,-5.4901,-5.4901,-5.4901,-5.4901,-5.4901,-5.4901,-5.4655,-5.4295,-5.4295,-5.4029,-5.365,-5.365,-5.365,-5.3423,-5.2191,-5.094,-4.969,-4.8414,-4.7131,-4.6241,-4.6676,-4.7416,-4.8155,-4.8604,-4.9305,-4.9798,-4.94,-4.8964,-4.8528,-4.813,-4.7359,-4.6657,-4.6259,-4.5483,-4.463,-4.3815,-4.3322,-4.2754,-4.1908,-4.1795,-4.1946,-4.2363,-4.2791,-4.3057,-4.3057,-4.1113,-3.937,-3.814,-3.5287,-3.2539,-3.0048,-3.0332,-3.0351,-2.9953,-3.0351,-3.1374,-3.3051,-3.3468,-3.4301,-3.5514,-3.3828,-3.3051,0.0,0.0,0.0,0.0,0.0,0.0,0.0,0.0,-2.8283,-3.0511,-3.2804,-3.4718,-3.5685,-3.7694,-3.9721,-4.1408,-4.3644,-4.5445,-4.6297,-4.7789,-4.8789,-4.884,-4.9455,-4.9924,-5.0063,-4.9442,-4.9302,-4.9935,-4.9337,-4.9284,-5.0113,-5.0974,-5.1983,-5.3168,-5.3408,-5.3674,-5.3935,-5.4579,-5.4901,-5.4901,-5.5072,-5.5148,-5.5148,-5.5148,-5.5148,-5.5148,-5.4977,-5.4901,-5.4901,-5.4901,-5.4901,-5.4901,-5.4901,-5.4901,-5.4901,-5.4901,-5.4901,-5.4901,-5.4901,-5.4901,-5.4901,-5.4901,-5.4901,-5.4617,-5.312,-5.2082,-5.113,-4.9614,-4.8553,-4.7889,-4.7889,-4.8414,-4.8926,-4.8926,-4.9438,-4.9912,-4.9912,-4.9912,-4.9722,-4.9059,-4.8812,-4.8225,-4.6695,-4.571,-4.4819,-4.3853,-4.2962,-4.2174,-4.151,-4.1435,-4.1738,-4.2571,-4.3284,-4.3701,-4.3701,-4.1662,-3.9597,-3.778,-3.6234,-3.4263,-3.18,-3.2312,-3.2349,-3.1705,-3.233,-3.3543,-3.5382,-3.5382,-3.6253,-3.7883,-3.7883,-3.6992,-2.7447,-2.8127,-2.9429,-2.9448,-3.0632,-3.1771,0.0,0.0,-3.3145,-3.415,-3.5761,-3.7466,-3.9047,-4.0203,-4.1484,-4.3152,-4.4895,-4.6335,-4.715,-4.8092,-4.8712,-4.8712,-4.891,-4.9283,-4.9942,-4.991,-4.9884,-4.9906,-4.9819,-5.0146,-5.1021,-5.1812,-5.255,-5.3185,-5.4185,-5.4731,-5.4769,-5.4863,-5.4901,-5.492,-5.5678,-5.6057,-5.6057,-5.6057,-5.6057,-5.6,-5.5242,-5.4901,-5.4901,-5.4901,-5.4901,-5.4901,-5.4901,-5.4901,-5.4901,-5.4901,-5.4901,-5.4901,-5.4901,-5.4901,-5.4901,-5.4901,-5.4901,-5.4731,-5.384,-5.2949,-5.2082,-5.1173,-5.0296,-4.9627,-4.9627,-4.9703,-4.9779,-4.9779,-4.9836,-4.9912,-4.9912,-4.9912,-4.9874,-4.9779,-4.9191,-4.8395,-4.7416,-4.6582,-4.552,-4.3947,-4.2962,-4.2363,-4.2268,-4.2268,-4.2602,-4.3455,-4.3644,-4.3701,-4.3701,-4.2735,-4.1105,-3.8709,-3.7647,-3.6007,-3.3524,-3.3505,-3.3505,-3.3411,-3.3505,-3.4737,-3.7116,-3.7116,-3.7978,-3.9616,-3.9616,-3.8717,-3.0044,-3.1046,-3.2535,-3.3483,-3.5013,-3.625,-3.6159,-3.6748,-3.7551,-3.8395,-3.9892,-4.1124,-4.1321,-4.2439,-4.3587,0.0,-4.5805,-4.7018,-4.734,-4.8149,-4.8509,-4.7984,-4.8315,-4.853,-4.8491,-4.8946,-4.9237,-4.921,-5.0112,-5.1159,-5.23,-5.2878,-5.347,-5.4166,-5.464,-5.4901,-5.4901,-5.4901,-5.4901,-5.492,-5.5773,-5.619,-5.619,-5.619,-5.5925,-5.5413,-5.5072,-5.4901,-5.4901,-5.4901,-5.4901,-5.4901,-5.4901,-5.4901,-5.4901,-5.4901,-5.4901,-5.4901,-5.4901,-5.4901,-5.4901,-5.4901,-5.4901,-5.4844,-5.4503,-5.4143,-5.3783,-5.3461,-5.3082,-5.2589,-5.1604,-5.1357,-5.1111,-5.0139,-4.9912,-4.9912,-4.9912,-4.9912,-4.9912,-4.9912,-4.9627,-4.9134,-4.83,-4.7453,-4.6335,-4.4649,-4.3265,-4.223,-4.1757,-4.1264,-4.1283,-4.2147,-4.3114,-4.3701,-4.3701,-4.2905,-4.1541,-3.9532,-3.8147,-3.627,-3.3743,-3.4547,-3.483,-3.4347,-3.5302,-3.6541,-3.8034,-3.8034,-3.8639,-3.977,-3.977,-3.9422,-3.1966,-3.3312,-3.4969,-3.6623,-3.8299,-3.9604,-3.9753,-4.0201,-4.0772,-4.1397,-4.2507,-4.3152,-4.2515,-4.3587,-4.4649,-4.4857,-4.6316,-4.7472,-4.7732,-4.83,-4.8433,-4.7732,-4.7688,-4.7346,-4.6361,-4.7681,-4.8623,-4.8698,-5.032,-5.1798,-5.2921,-5.3665,-5.4295,-5.4882,-5.4901,-5.4901,-5.4901,-5.4901,-5.4901,-5.492,-5.5773,-5.619,-5.619,-5.619,-5.5716,-5.4901,-5.4901,-5.4901,-5.4901,-5.4901,-5.4901,-5.4901,-5.4901,-5.4901,-5.4901,-5.4901,-5.4901,-5.4901,-5.4901,-5.4901,-5.4901,-5.4901,-5.4901,-5.4901,-5.4901,-5.4901,-5.4901,-5.4901,-5.4901,-5.4522,-5.2854,-5.2385,-5.1983,-5.031,-4.9912,-4.9912,-4.9912,-4.9912,-4.9912,-4.9912,-4.9912,-4.9646,-4.885,-4.8187,-4.7188,-4.5501,-4.4023,-4.264,-4.1359,-4.0639,-4.0506,-4.1132,-4.2488,-4.3341,-4.3341,-4.2564,-4.134,-3.9673,-3.8409,-3.6684,-3.4366,-3.557,-3.6131,-3.577,-3.6949,-3.809,-3.9107,-3.9107,-3.9541,-4.0339,-4.0339,-4.0339,-3.3297,-3.4987,-3.6708,-3.8238,-3.995,-4.1407,-4.2132,-4.2318,-4.2325,-4.2363,-4.2401,-4.242,-4.2401,-4.3133,-4.3985,-4.4762,-4.6316,-4.77,-4.8547,-4.8679,-4.8598,-4.8301,-4.7081,-4.5514,0.0,-4.6392,-4.8421,-4.8679,-5.0496,-5.1826,-5.2385,-5.3992,-5.4863,-5.4901,-5.4901,-5.4901,-5.4901,-5.4901,-5.4901,-5.492,-5.5773,-5.619,-5.619,-5.619,-5.5716,-5.4901,-5.4901,-5.4901,-5.4901,-5.4901,-5.4901,-5.4901,-5.4901,-5.4901,-5.4901,-5.4901,-5.4901,-5.4901,-5.4901,-5.4901,-5.4901,-5.4901,-5.4901,-5.4901,-5.4901,-5.4901,-5.4901,-5.4901,-5.4901,-5.4522,-5.2854,-5.2385,-5.1983,-5.031,-4.9912,-4.9912,-4.9912,-4.9912,-4.9912,-4.9912,-4.9912,-4.9646,-4.885,-4.8679,-4.8092,-4.6411,-4.5407,-4.3947,-4.151,-4.1181,-4.1169,-4.1188,-4.1927,-4.2439,-4.2439,-4.1711,-4.0517,-3.8841,-3.8626,-3.7767,-3.6004,-3.6655,-3.7415,-3.8182,-3.8239,-3.9045,-4.0621,-4.0621,-4.1072,-4.1929,-4.1929,-4.1929,-3.469,-3.6807,-3.8442,-4.002,-4.1667,-4.297,-4.3208,-4.3682,-4.391,-4.3379,-4.2393,-4.1586,-4.1586,-4.2268,-4.3133,-4.3966,-4.643,-4.8287,-4.842,-4.9045,-4.9451,-4.9377,-4.832,0.0,0.0,0.0,0.0,-4.7776,-5.0017,-5.1646,-5.2347,-5.3992,-5.4901,-5.4901,-5.4901,-5.4901,-5.4901,-5.4901,-5.4901,-5.492,-5.5773,-5.619,-5.619,-5.619,-5.5716,-5.4901,-5.4901,-5.4901,-5.4901,-5.4901,-5.4901,-5.4901,-5.4901,-5.4901,-5.4901,-5.4901,-5.4901,-5.4901,-5.4901,-5.4901,-5.4901,-5.4901,-5.4901,-5.4901,-5.4901,-5.4901,-5.4901,-5.4901,-5.4901,-5.4655,-5.3556,-5.3271,-5.2968,-5.1831,-5.1566,-5.1414,-5.0884,-5.077,-5.058,-5.0006,-4.9912,-4.9817,-4.9551,-4.9495,-4.8755,-4.6525,-4.4516,-4.2754,-4.1389,-4.0696,-4.0336,-4.0336,-4.1094,-4.1586,-4.1586,-4.1359,-4.0479,-3.8803,-3.8593,-3.7772,-3.608,-3.7781,-3.8845,-3.9033,-4.012,-4.0937,-4.1426,-4.1426,-4.1576,-4.187,-4.187,-4.187,-3.6926,-3.8845,-4.0206,-4.1804,-4.2959,-4.3701,-4.3701,-4.4099,-4.4061,-4.264,-4.1256,-4.0214,-3.9911,-4.0753,-4.1814,-4.2787,-4.5754,-4.8174,-4.8774,-4.9476,-4.9906,-4.9903,-4.9041,-4.8061,0.0,0.0,0.0,-4.7359,-4.9765,-5.1552,-5.2347,-5.3992,-5.4901,-5.4901,-5.4901,-5.4901,-5.4901,-5.4901,-5.4901,-5.492,-5.547,-5.5735,-5.5735,-5.5735,-5.5432,-5.4901,-5.4901,-5.4901,-5.4901,-5.4901,-5.4901,-5.4901,-5.4901,-5.4901,-5.4901,-5.4901,-5.4901,-5.4901,-5.4901,-5.4901,-5.4901,-5.4901,-5.4901,-5.4901,-5.4901,-5.4901,-5.4901,-5.4901,-5.4901,-5.4712,-5.3916,-5.3707,-5.348,-5.2613,-5.2385,-5.2191,-5.1362,-5.1192,-5.094,-5.0082,-4.9912,-4.9912,-4.9912,-4.94,-4.8471,-4.6866,-4.4478,-4.2469,-4.134,-4.0715,-4.0241,-3.9938,-4.0138,-4.0309,-4.0309,-4.0025,-3.9267,-3.7893,-3.8272,-3.7904,-3.6494,-3.8747,-4.0102,-4.0261,-4.1562,-4.238,-4.2592,-4.2592,-4.2592,-4.2592,-4.2592,-4.2592,-3.9948,-4.1206,-4.2173,-4.3586,-4.387,-4.3815,-4.372,-4.3625,-4.2867,-4.0355,-3.9058,-3.8159,0.0,0.0,-4.0116,-4.1325,-4.4391,-4.7384,-4.9529,-4.9863,-4.9906,0.0,0.0,0.0,0.0,0.0,0.0,-4.7586,0.0,-5.1552,-5.2347,-5.3992,-5.4901,-5.4901,-5.4901,-5.4901,-5.4901,-5.4901,-5.4901,-5.4901,-5.4901,-5.4901,-5.4901,-5.4901,-5.4901,-5.4901,-5.4901,-5.4901,-5.4901,-5.4901,-5.4901,-5.4901,-5.4901,-5.4901,-5.4901,-5.4901,-5.4901,-5.4901,-5.4901,-5.4901,-5.4901,-5.4901,-5.4901,-5.4901,-5.4901,-5.4901,-5.4901,-5.4901,-5.4901,-5.4731,-5.3954,-5.3764,-5.3556,-5.2707,-5.2518,-5.2305,-5.1438,-5.1249,-5.0997,-5.0082,-4.9912,-4.9912,-4.9912,-4.8547,-4.7453,-4.7397,-4.535,-4.3208,-4.1473,-4.1226,-4.0866,-3.9995,-3.921,-3.8765,-3.8765,-3.8007,-3.7182,-3.6377,-3.7793,-3.8258,-3.7373,-3.9613,-4.1183,-4.1857,-4.2588,-4.3297,-4.3949,-4.3986,-4.3986,-4.3949,-4.3986,-4.4005,-4.2884,-4.4783,-4.6184,-4.5889,-4.57,-4.5236,-4.3985,-4.2735,-4.1294,-3.9399,-3.6329,-3.432,0.0,0.0,0.0,-3.9984,-4.4201,0.0,-4.8567,-4.9394,0.0,-4.9906,0.0,-5.0277,-4.9565,-4.9936,0.0,0.0,-5.0827,-5.1552,-5.2347,-5.3992,-5.4901,-5.4901,-5.4901,-5.4901,-5.4901,-5.4901,-5.4901,-5.4901,-5.4901,-5.4901,-5.4901,-5.4901,-5.4901,-5.4901,-5.4901,-5.4901,-5.4901,-5.4901,-5.4901,-5.4901,-5.4901,-5.4901,-5.4901,-5.4901,-5.4901,-5.4901,-5.4901,-5.4901,-5.4901,-5.4901,-5.4901,-5.4901,-5.4901,-5.4901,-5.4901,-5.4901,-5.4901,-5.4844,-5.4655,-5.4598,-5.4541,-5.4333,-5.4257,-5.3859,-5.2404,-5.2082,-5.1661,-5.0196,-4.9912,-4.9912,-4.9912,-4.9059,-4.8149,-4.7491,-4.6354,-4.4724,-4.2393,-4.1567,-4.0866,-3.9995,-3.9711,-3.9578,-3.9578,-3.9388,-3.8925,-3.8102,-3.8967,-3.9395,-3.9157,-4.0822,-4.2074,-4.2763,-4.3534,-4.3674,-4.3113,-4.3708,-4.3689,-4.3113,-4.3726,-4.4005,-4.4538,-4.6163,-4.7221,-4.6658,-4.5799,-4.4668,-4.2981,-4.1313,-3.9513,-3.7457,-3.4282,-3.2349,-3.3903,-3.469,0.0,0.0,0.0,0.0,-4.6771,-4.777,-4.8672,0.0,-5.0126,0.0,-5.0486,-5.1225,-5.1722,0.0,-5.1722,-5.2082,-5.293,-5.42,-5.4901,-5.4901,-5.4901,-5.4901,-5.4901,-5.4901,-5.4901,-5.4901,-5.4901,-5.4901,-5.4901,-5.4901,-5.4901,-5.4901,0.0,-5.4901,-5.4901,-5.4901,-5.4901,-5.4901,-5.4901,-5.4901,-5.4901,-5.4901,-5.4901,-5.4901,-5.4901,-5.4901,-5.4901,-5.4901,-5.4901,-5.4901,-5.4901,-5.4901,-5.4901,-5.4901,-5.4901,-5.4886,-5.4856,-5.4807,-5.4776,-5.473,-5.4698,-5.4233,-5.2553,-5.2194,-5.1684,-5.0004,-4.9683,-4.9683,-4.9683,-4.9004,-4.8305,-4.782,-4.6744,-4.5329,-4.3555,-4.2387,-4.1397,-4.0563,-3.9816,-3.938,-3.938,-3.902,-3.8774,-3.8709,-3.9424,-4.0026,-4.0405,-4.1913,-4.2848,-4.3132,-4.3521,-4.3409,-4.2797,-4.289,-4.289,-4.2816,-4.3262,-4.3652,-4.5677,-4.6528,-4.6943,-4.6581,-4.5171,-4.336,-4.1465,-3.9551,-3.7476,-3.4927,-3.2368,-3.1012,-3.2422,-3.2851,-3.3885,-3.6613,0.0,-4.4564,-4.4573,-4.5704,-4.6992,-4.8211,-4.9267,-5.0239,-5.113,-5.212,-5.2726,-5.2726,-5.2726,-5.3025,-5.3669,-5.4465,-5.4901,-5.4901,-5.4901,-5.4901,-5.4901,-5.4901,-5.4901,-5.4901,-5.4901,-5.4901,-5.4901,-5.4901,-5.4901,-5.4901,0.0,0.0,-5.4901,-5.4901,-5.4901,-5.4901,-5.4901,-5.4901,-5.4901,-5.4901,-5.4901,-5.4901,-5.4901,-5.4901,-5.4901,-5.4901,-5.4901,-5.4901,-5.4901,-5.4901,-5.4901,-5.4901,-5.4901,-5.4871,-5.4799,-5.4667,-5.4549,-5.4434,-5.4371,-5.389,-5.2298,-5.1867,-5.138,-4.9918,-4.9543,-4.9487,-4.9487,-4.8812,-4.8234,-4.814,-4.6791,-4.5498,-4.4688,-4.329,-4.2044,-4.1249,-3.9765,-3.8866,-3.8969,-3.8277,-3.822,-3.9072,-3.978,-4.0575,-4.1438,-4.2756,-4.3433,-4.3356,-4.325,-4.3036,-4.2797,-4.2203,-4.2222,-4.2797,-4.2909,-4.3336,-4.7788,-4.8307,-4.84,-4.6868,-4.559,-4.3891,-4.0809,-3.7769,0.0,-3.2368,-2.9458,-2.7824,-2.9241,-2.9349,-3.0561,-3.4661,-3.9551,-4.2829,-4.2829,-4.4819,-4.6354,0.0,-4.8585,-5.0239,-5.113,0.0,0.0,0.0,0.0,-5.4238,-5.3726,-5.4465,-5.4901,-5.4901,-5.4901,-5.4901,-5.4901,-5.4901,-5.4901,-5.4901,-5.4901,-5.4901,-5.4901,-5.4901,-5.4901,-5.4901,-5.4901,0.0,-5.4901,-5.4901,-5.4901,-5.4901,-5.4901,-5.4901,-5.4901,-5.4901,-5.4901,-5.4901,-5.4901,-5.4901,-5.4901,-5.4901,-5.4901,-5.4901,-5.4901,-5.4901,-5.4901,-5.4901,-5.4901,-5.4871,-5.468,-5.4482,-5.4315,-5.4141,-5.3943,-5.3535,-5.253,-5.1786,-5.1229,-5.0932,-5.0354,-4.9906,-4.9906,-4.9237,-4.8474,-4.7804,-4.6892,-4.5964,-4.5111,-4.3324,-4.1851,-4.1029,-4.0061,-3.9741,-4.0464,-4.0321,-4.056,-4.1374,-4.1562,-4.202,-4.29,-4.3136,-4.3557,-4.4168,-4.4119,-4.3651,-4.2797,-4.3336,-4.3318,-4.2816,-4.3485,-4.3875,-4.7311,-4.7991,-4.8041,-4.6219,-4.4365,-4.2223,-3.9267,0.0,0.0,-3.1625,-2.8723,-2.6735,-2.7866,-2.7971,0.0,-3.3391,-3.6946,-3.9627,-4.0923,-4.2905,0.0,-4.5426,-4.7738,-4.9765,0.0,0.0,0.0,0.0,0.0,-5.4731,-5.4352,-5.4693,-5.4901,-5.4901,-5.4901,-5.4901,-5.4901,-5.4901,-5.4901,-5.4901,-5.4901,-5.4901,-5.4901,-5.4901,-5.4901,-5.4901,-5.4901,0.0,-5.4901,-5.4901,-5.4901,-5.4901,-5.4901,-5.4901,-5.4901,-5.4901,-5.4901,-5.4901,-5.4901,-5.4901,-5.4901,-5.4901,-5.4901,-5.4901,-5.4901,-5.4901,-5.4886,-5.486,-5.481,-5.4695,-5.4451,-5.4213,-5.3981,-5.3795,-5.325,-5.265,-5.2242,-5.1503,-5.0949,-5.0949,-5.0285,-4.9731,-4.9731,-4.9067,-4.8384,-4.7924,-4.6818,-4.5861,-4.5421,-4.3479,-4.1934,-4.1368,-4.057,-4.0207,-4.056,-4.0904,-4.16,-4.2709,-4.2437,-4.2878,-4.4231,-4.3895,-4.3876,-4.434,-4.3841,-4.3323,-4.2797,-4.276,-4.276,-4.2816,-4.3206,-4.3596,-4.6157,-4.698,-4.7076,-4.5273,-4.2856,-4.0203,-3.7485,-3.3969,-3.1124,-3.0557,-2.8047,-2.6141,-2.6849,-2.7153,-2.8412,0.0,-3.4206,-3.6462,-3.8782,-4.0696,-4.2477,0.0,-4.6771,0.0,0.0,0.0,0.0,0.0,0.0,0.0,-5.4901,-5.4901,-5.4901,-5.4901,-5.4901,-5.4901,-5.4901,-5.4901,-5.4901,-5.4901,-5.4886,-5.4856,-5.4841,-5.4807,-5.481,-5.4795,-5.4795,0.0,0.0,-5.4795,-5.4795,-5.4795,-5.4795,-5.4795,-5.4795,-5.4795,-5.4795,-5.4795,-5.4795,-5.4795,-5.4795,-5.4795,-5.4841,-5.4901,-5.4901,-5.4901,-5.4871,-5.478,-5.4648,-5.4465,-5.4197,-5.3889,-5.36,-5.3339,-5.2635,-5.2032,-5.2032,-5.1538,-5.1078,-5.1078,-5.0437,-4.9889,-4.9889,-4.9045,-4.8347,-4.8231,-4.6843,-4.5802,-4.5742,-4.3743,-4.2159,-4.1742,-4.1033,-4.0564,-4.0484,-4.1104,-4.2126,-4.3582,-4.317,-4.3557,-4.505,-4.4562,-4.4234,-4.4211,-4.348,-4.3088,-4.2996,-4.2396,-4.2414,-4.3027,-4.3058,-4.3392,-4.5409,-4.5959,-4.6099,-4.4364,-4.1952,-3.9161,-3.5874,0.0,-3.0633,-2.7369,-2.5844,-2.5136,-2.5212,-2.6022,0.0,0.0,-3.1838,-3.4529,-3.6291,-3.8622,-4.0753,-4.242,0.0,0.0,0.0,0.0,0.0,0.0,0.0,0.0,-5.4901,-5.4901,-5.4901,-5.4901,-5.4901,-5.4901,-5.4901,-5.4901,-5.4901,-5.4901,-5.4845,-5.4749,-5.4629,-5.4568,-5.4505,-5.446,-5.446,0.0,0.0,-5.446,-5.446,-5.446,-5.446,-5.446,-5.446,-5.446,-5.446,-5.446,-5.446,-5.446,-5.446,-5.446,-5.4654,-5.4901,-5.4901,-5.4901,-5.4871,-5.468,-5.4465,-5.4246,-5.3907,-5.3504,-5.3072,-5.269,-5.2518,-5.244,-5.244,-5.2386,-5.2331,-5.2331,-5.1679,-5.1135,-5.1135,-4.976,-4.8659,-4.8659,-4.7219,-4.6164,-4.6143,-4.4099,-4.2409,-4.176,-4.1257,-4.0958,-4.1017,-4.1542,-4.2539,-4.4126,-4.4181,-4.4364,-4.4831,-4.4774,-4.4472,-4.3947,-4.3855,-4.3788,-4.371,-4.368,-4.3728,-4.3802,-4.3862,-4.3931,-4.2774,-4.3838,-4.4287,-4.202,-3.9905,-3.778,-3.5429,-3.1916,-2.8719,-2.7284,-2.5934,-2.5003,-2.5003,-2.5351,-2.6318,-2.8362,-3.0238,-3.2349,-3.504,-3.7144,-3.902,-4.0696,0.0,0.0,0.0,0.0,0.0,0.0,0.0,0.0,-5.4901,-5.4901,-5.4901,-5.4901,-5.4901,-5.4901,-5.4901,-5.4901,-5.4901,-5.4901,-5.4745,-5.46,-5.4416,-5.4281,-5.4124,-5.398,-5.398,0.0,0.0,-5.398,-5.398,-5.398,-5.398,-5.398,-5.398,-5.398,-5.398,-5.398,-5.398,-5.398,-5.398,-5.398,-5.407,-5.4228,-5.4503,-5.4606,-5.4573,-5.4352,-5.4143,-5.3926,-5.3582,-5.3157,-5.2747,-5.2549,-5.2498,-5.2475,-5.2405,-5.2382,-5.2358,-5.2269,-5.162,-5.1061,-5.1061,-4.9699,-4.8551,-4.8484,-4.711,-4.604,-4.5974,-4.4372,-4.2787,-4.1644,-4.1017,-4.0685,-4.0631,-4.1216,-4.2424,-4.4358,-4.4095,-4.4433,-4.5649,-4.527,-4.4966,-4.4875,-4.4856,-4.4857,-4.4821,-4.4929,-4.5035,-4.5175,-4.5258,-4.5393,-4.061,-4.2099,-4.2943,-4.1092,-3.9376,-3.7404,-3.4573,-3.0587,-2.7369,-2.6866,-2.5827,-2.5003,-2.5003,-2.5003,-2.5648,-2.765,-2.8646,-3.0265,-3.3373,-3.5249,-3.7011,0.0,0.0,0.0,0.0,0.0,0.0,0.0,0.0,0.0,0.0,-5.4901,-5.4901,-5.4901,-5.4871,-5.4856,-5.4807,-5.4791,-5.4761,-5.4749,-5.4552,-5.4351,-5.4161,-5.3925,-5.372,-5.3509,0.0,0.0,0.0,-5.3509,-5.3509,-5.3509,-5.3509,-5.3509,-5.3509,-5.3509,-5.3509,-5.3509,-5.3509,-5.3509,-5.3509,-5.3509,-5.3509,-5.3586,-5.3926,-5.4108,-5.4162,-5.3944,-5.3718,-5.344,-5.3151,-5.2828,-5.2559,-5.2503,-5.2475,-5.2405,-5.2311,-5.2264,-5.2198,-5.2126,-5.1634,-5.1257,-5.1257,-5.0083,-4.9116,-4.9028,-4.7657,-4.6628,-4.652,-4.4975,-4.3322,-4.1846,-4.0848,-4.0311,-4.0274,-4.0899,-4.2251,-4.4464,-4.4171,-4.4584,-4.6179,-4.574,-4.5468,-4.545,-4.5432,-4.5432,-4.5432,-4.5566,-4.5717,-4.5902,-4.6063,-4.6274,-3.9464,-4.1132,-4.2416,-4.2392,-4.1106,-3.8423,-3.2895,-2.9485,-2.7039,-2.5363,-2.5003,-2.5003,-2.5003,-2.5003,-2.5269,-2.6084,-2.6956,-2.8396,-3.089,-3.2691,0.0,0.0,0.0,0.0,0.0,0.0,0.0,0.0,0.0,0.0,0.0,-5.4901,-5.4901,-5.4901,-5.4845,-5.4733,-5.4613,-5.4536,-5.4472,-5.439,-5.4198,-5.4,-5.3813,-5.3599,-5.3361,0.0,0.0,0.0,0.0,-5.3117,-5.3117,-5.3117,-5.3117,-5.3117,-5.3117,-5.3117,-5.3117,-5.3117,-5.3117,-5.3117,-5.3117,-5.3117,-5.3117,-5.3117,-5.3117,-5.3388,-5.3682,-5.3448,-5.3136,-5.2761,-5.2549,-5.2498,-5.2498,-5.2498,-5.2405,-5.2287,-5.2287,-5.2216,-5.2102,-5.2102,-5.2084,-5.2084,-5.2084,-5.1305,-5.0695,-5.0695,-4.9234,-4.8181,-4.8181,-4.607,-4.4,-4.2468,-4.086,-3.9991,-4.0181,-4.0763,-4.2109,-4.4442,-4.4585,-4.505,-4.6051,-4.609,-4.5837,-4.5305,-4.5287,-4.5287,-4.5287,-4.537,-4.5526,-4.5698,-4.5902,-4.6169,-3.7728,-3.9412,-4.068,-4.0682,-3.9433,-3.6828,-3.1618,-2.8598,-2.6534,-2.525,-2.5003,-2.5003,-2.5003,-2.5003,-2.5269,-2.6065,-2.6425,-2.7695,0.0,0.0,0.0,0.0,0.0,0.0,0.0,0.0,0.0,0.0,0.0,0.0,0.0,-5.486,-5.486,-5.4901,-5.4745,-5.4565,-5.4399,-5.4246,-5.407,-5.3907,-5.3719,-5.3525,-5.3304,-5.3112,0.0,0.0,0.0,0.0,0.0,-5.269,-5.269,-5.269,-5.269,-5.269,-5.269,-5.269,-5.269,-5.269,-5.269,-5.269,-5.269,-5.269,-5.269,-5.269,-5.269,-5.2965,-5.3244,-5.2947,-5.2721,-5.2549,-5.2293,-5.2222,-5.2222,-5.2222,-5.2198,-5.2126,-5.2047,-5.198,-5.1932,-5.184,-5.1815,-5.1815,-5.1815,-5.1129,-5.0568,-5.0568,-4.9222,-4.8199,-4.8199,-4.6088,-4.4018,-4.2448,-4.086,-3.9933,-3.9991,-4.0165,-4.1538,-4.4407,-4.4603,-4.5235,-4.6664,-4.6735,-4.6632,-4.647,-4.647,-4.647,-4.647,-4.6579,-4.6798,-4.713,-4.7479,-4.7721,-3.3954,-3.5321,-3.6128,-3.6136,-3.5333,-3.3429,-2.9038,-2.6998,-2.5811,-2.5136,-2.5003,-2.5003,-2.5003,-2.5003,-2.5155,-2.5667,-2.5743,-2.6918,0.0,0.0,0.0,0.0,0.0,0.0,0.0,0.0,0.0,0.0,0.0,0.0,0.0,-5.4795,-5.4714,-5.468,-5.4517,-5.4351,-5.4125,-5.3907,-5.3701,-5.3468,-5.3324,-5.3157,-5.2987,-5.2809,0.0,0.0,0.0,0.0,0.0,-5.2498,-5.2475,-5.2428,-5.2428,-5.2387,-5.234,-5.234,-5.234,-5.234,-5.234,-5.234,-5.234,-5.234,-5.234,-5.2286,-5.1979,-5.2105,-5.2291,-5.2087,-5.1963,-5.1937,-5.206,-5.2102,-5.2102,-5.2102,-5.2054,-5.2005,-5.1907,-5.1858,-5.1808,-5.1715,-5.169,-5.169,-5.169,-5.128,-5.0959,-5.0959,-4.962,-4.8621,-4.8621,-4.6284,-4.4018,-4.2448,-4.086,-3.9895,-3.9895,-3.9895,-4.1125,-4.3996,-4.4442,-4.532,-4.6926,-4.6998,-4.6998,-4.6998,-4.6998,-4.6998,-4.6998,-4.716,-4.7385,-4.7708,-4.8132,-4.8306,0.0,-2.9361,-2.9193,-2.9193,-2.9355,-2.8719,-2.5676,-2.4985,0.0,-2.499,-2.4996,-2.4996,-2.4996,-2.494,-2.494,-2.5053,-2.5072,-2.624,0.0,0.0,0.0,0.0,0.0,0.0,0.0,0.0,0.0,0.0,0.0,0.0,0.0,-5.4695,-5.4465,-5.4281,-5.4178,-5.4018,-5.3756,-5.3541,-5.332,-5.3054,-5.2984,-5.2912,-5.2761,-5.2654,0.0,0.0,0.0,0.0,0.0,-5.2498,-5.2405,-5.2287,-5.2287,-5.2198,-5.2102,-5.2102,-5.2102,-5.2102,-5.2102,-5.2102,-5.2102,-5.2102,-5.2102,-5.194,-5.1131,-5.0991,-5.1084,-5.1079,-5.0986,-5.1077,-5.1862,-5.206,-5.206,-5.206,-5.198,-5.1882,-5.1882,-5.1808,-5.169,-5.169,-5.169,-5.169,-5.169,-5.169,-5.169,-5.169,-5.0334,-4.9293,-4.9293,-4.66,-4.4089,-4.2537,-4.1002,-4.0019,-3.9895,-3.9895,-4.0929,-4.3337,-4.4175,-4.5302,-4.6837,-4.6962,-4.6998,-4.6998,-4.6998,-4.6998,-4.6998,-4.7187,-4.7341,-4.749,-4.7929,-4.807,-2.5712,0.0,-2.2341,-2.2341,-2.4142,-2.5732,0.0,-2.4847,-2.4853,-2.4842,-2.4849,-2.4849,-2.4849,-2.4346,-2.4353,-2.563,-2.5838,-2.7209,0.0,0.0,0.0,0.0,0.0,0.0,0.0,0.0,0.0,0.0,0.0,0.0,0.0,-5.4434,-5.4179,-5.3944,-5.366,-5.3424,-5.3263,-5.3069,-5.2868,-5.2645,-5.264,-5.2595,-5.2572,-5.2549,0.0,0.0,0.0,0.0,-5.2498,-5.2382,-5.2335,-5.2287,-5.2174,-5.2126,-5.2102,-5.2102,-5.2102,-5.2102,-5.2102,-5.2102,-5.2102,-5.2102,-5.2102,-5.194,-5.1131,-5.0921,-5.0921,-5.0808,-5.0761,-5.0892,-5.16,-5.179,-5.179,-5.179,-5.1765,-5.1758,-5.1758,-5.1715,-5.169,-5.169,-5.169,-5.169,-5.169,-5.169,-5.169,-5.169,-5.0334,-4.9293,-4.9293,-4.7105,-4.4928,-4.3393,-4.2323,-4.1234,-3.9984,-3.9895,-4.0929,-4.3337,-4.4175,-4.5049,-4.6034,-4.6659,-4.6998,-4.6998,-4.6998,-4.6998,-4.6998,-4.7048,-4.7138,-4.7267,-4.7533,-4.766,-2.2353,-2.2256,-2.2137,-2.2088,-2.3344,-2.4625,-2.4696,-2.47,-2.4723,-2.4742,-2.4742,-2.4637,-2.426,-2.4448,-2.4949,0.0,-2.6954,0.0,0.0,0.0,0.0,0.0,0.0,0.0,0.0,0.0,0.0,0.0,0.0,0.0,0.0,-5.3598,-5.3442,-5.3484,-5.3217,-5.3027,-5.2965,-5.2787,-5.2627,-5.2498,-5.2498,-5.2498,-5.2498,-5.2498,-5.2475,0.0,0.0,0.0,-5.2317,-5.2222,-5.2174,-5.212,-5.2029,-5.198,-5.1914,-5.1914,-5.1914,-5.1914,-5.1914,-5.1914,-5.1914,-5.1914,-5.1914,-5.177,-5.0964,-5.0731,-5.0707,-5.0707,-5.0641,-5.0789,-5.1519,-5.169,-5.169,-5.169,-5.169,-5.169,-5.169,-5.169,-5.169,-5.169,-5.169,-5.169,-5.169,-5.169,-5.169,-5.169,-5.0334,-4.9293,-4.9293,-4.7265,-4.5213,-4.3658,-4.2769,-4.1787,-4.0556,-4.0449,-4.1181,-4.284,-4.3679,-4.4624,-4.5749,-4.6212,-4.6605,-4.698,-4.6641,-4.6623,-4.6998,-4.6623,-4.6686,-4.7111,-4.7298,-4.7359,-2.0217,-2.2821,-2.5389,-2.528,-2.5128,-2.5017,-2.507,-2.5032,-2.4976,-2.504,-2.4947,-2.4665,-2.3979,-2.4965,0.0,0.0,0.0,0.0,0.0,0.0,0.0,0.0,0.0,0.0,0.0,0.0,0.0,0.0,0.0,0.0,0.0,-5.2491,-5.2395,-5.269,-5.251,-5.247,-5.2557,-5.2576,-5.2559,-5.2498,-5.2498,-5.2498,-5.2498,-5.2475,-5.2405,0.0,0.0,0.0,-5.2102,-5.2078,-5.2005,-5.1907,-5.1882,-5.1808,-5.169,-5.169,-5.169,-5.169,-5.169,-5.169,-5.169,-5.169,-5.169,-5.1565,-5.0887,-5.0691,-5.0716,-5.0813,-5.0675,-5.0691,-5.1476,-5.169,-5.169,-5.169,-5.169,-5.169,-5.169,-5.169,-5.169,-5.169,-5.169,-5.169,-5.169,-5.169,-5.169,-5.169,-5.0441,-4.9436,-4.9311,-4.7479,-4.5517,-4.3857,-4.3054,-4.2269,-4.1359,-4.1288,-4.1627,-4.243,-4.3126,-4.4196,-4.5749,-4.5927,-4.6248,-4.6801,-4.6141,-4.607,-4.6623,-4.607,-4.6159,-4.6824,-4.7111,-4.7165,-2.2985,-2.6151,-2.8676,-2.8649,-2.7981,-2.7295,-2.7314,-2.6969,-2.6625,-2.6643,-2.611,-2.5587,-2.5475,-2.5645,-2.6495,0.0,0.0,0.0,0.0,0.0,0.0,0.0,0.0,0.0,0.0,0.0,0.0,0.0,0.0,0.0,0.0,0.0,-5.1092,-5.083,-5.0736,-5.0951,-5.1515,-5.22,-5.2503,-5.2498,-5.2498,-5.2498,-5.2498,-5.2382,-5.2311,0.0,0.0,-5.2126,-5.2102,-5.198,-5.1907,-5.1882,-5.1783,-5.1715,-5.169,-5.169,-5.169,-5.169,-5.169,-5.169,-5.169,-5.169,-5.169,-5.1672,-5.1547,-5.1512,-5.1512,-5.1537,-5.1055,-5.0691,-5.1476,-5.169,-5.169,-5.169,-5.169,-5.169,-5.169,-5.169,-5.169,-5.169,-5.169,-5.169,-5.169,-5.169,-5.169,-5.169,-5.0905,-5.0084,-4.9382,-4.8443,-4.6944,-4.4656,-4.4317,-4.3679,-4.2234,-4.2129,-4.2448,-4.3268,-4.3426,-4.4196,-4.5749,-4.6444,-4.6551,-4.5998,-4.5856,-4.5534,-4.4981,-4.5534,-4.5856,-4.5998,-4.6704,-4.7025,-2.3603,-2.5595,-2.7029,-2.8201,-2.811,-2.7783,-2.7923,-2.7764,-2.7726,-2.8192,-2.7633,-2.7037,-2.7037,0.0,-2.9634,-3.3431,0.0,0.0,0.0,0.0,0.0,0.0,0.0,0.0,0.0,0.0,0.0,0.0,0.0,0.0,0.0,0.0,-5.0191,-5.0249,-5.0199,-5.0554,-5.1285,-5.1578,-5.1971,-5.2382,-5.2382,-5.2358,-5.2269,-5.2222,-5.215,-5.2078,0.0,-5.1956,-5.1864,-5.1833,-5.1808,-5.1783,-5.1715,-5.169,-5.169,-5.169,-5.169,-5.169,-5.169,-5.169,-5.169,-5.169,-5.169,-5.169,-5.169,-5.169,-5.169,-5.169,-5.1422,-5.1226,-5.1601,-5.169,-5.169,-5.169,-5.169,-5.169,-5.169,-5.169,-5.169,-5.169,-5.169,-5.169,-5.169,-5.169,-5.169,-5.169,-5.1012,-5.037,-5.0013,-4.8925,-4.7449,-4.5463,-4.5267,-4.4624,-4.3072,-4.3304,-4.3536,-4.3497,-4.4285,-4.5071,-4.5766,-4.6569,-4.6819,-4.6462,-4.5588,-4.541,-4.5909,-4.541,-4.5606,-4.6462,-4.6819,-4.6998,-2.2677,-2.3902,-2.4893,-2.6544,-2.739,-2.7954,-2.856,-2.8839,-2.9211,-3.0065,-2.9712,-2.9248,0.0,-3.0772,0.0,0.0,0.0,0.0,0.0,0.0,0.0,0.0,0.0,0.0,0.0,0.0,0.0,0.0,0.0,0.0,0.0,0.0,-4.9295,-4.9532,-4.9528,-4.9999,-5.095,-5.0877,-5.1337,-5.2287,-5.2264,-5.2198,-5.2102,-5.2078,-5.2005,-5.1907,-5.1858,-5.179,-5.169,-5.169,-5.169,-5.169,-5.169,-5.169,-5.169,-5.169,-5.169,-5.169,-5.169,-5.169,-5.169,-5.169,-5.169,-5.169,-5.169,-5.169,-5.169,-5.169,-5.169,-5.169,-5.169,-5.169,-5.169,-5.169,-5.169,-5.169,-5.169,-5.169,-5.169,-5.169,-5.169,-5.169,-5.169,-5.169,-5.169,-5.169,-5.1173,-5.0709,-5.053,-4.9299,-4.7836,-4.6248,-4.5909,-4.5249,-4.3854,-4.4442,-4.4638,-4.4089,-4.516,-4.5802,-4.5802,-4.6569,-4.6908,-4.6712,-4.5517,-4.5392,-4.6427,-4.5588,-4.5713,-4.673,-4.7127,-4.7176,-1.9897,-2.2179,-2.4539,-2.4684,-2.6414,-2.8486,-3.0065,-3.0995,-3.1756,-3.2574,-3.2704,-3.2648,-3.2648,-3.4637,0.0,0.0,0.0,0.0,0.0,0.0,0.0,0.0,0.0,0.0,0.0,0.0,0.0,0.0,0.0,0.0,0.0,0.0,0.0,-4.788,-4.788,-4.8558,-4.9983,-5.0001,-5.0754,-5.2287,-5.2174,-5.2126,-5.2102,-5.198,-5.1907,-5.1882,-5.1783,-5.1715,-5.169,-5.169,-5.169,-5.169,-5.169,-5.169,-5.169,-5.169,-5.169,-5.169,-5.169,-5.169,-5.169,-5.169,-5.169,-5.169,-5.169,-5.169,-5.169,-5.169,-5.169,-5.169,-5.169,-5.169,-5.169,-5.169,-5.169,-5.169,-5.169,-5.169,-5.169,-5.169,-5.169,-5.169,-5.169,-5.169,-5.169,-5.169,-5.1637,-5.1333,-5.0602,-4.9763,-4.8639,-4.7069,-4.6248,-4.5463,-4.4585,-4.5267,-4.5695,-4.5641,-4.5749,-4.5802,-4.5802,-4.6569,-4.6641,-4.5909,-4.5766,-4.541,-4.4763,-4.6159,-4.6498,-4.5927,-4.7431,-4.7717,-2.2646,-2.3558,-2.4735,-2.5735,-2.6684,-2.791,-3.0103,-3.2035,-3.3726,-3.5027,-3.5702,-3.5887,-3.5386,0.0,0.0,0.0,0.0,0.0,0.0,0.0,0.0,0.0,0.0,0.0,0.0,0.0,0.0,0.0,0.0,0.0,0.0,0.0,0.0,-4.7717,-4.7615,-4.8331,-4.9893,-4.9734,-5.0449,-5.2054,-5.2005,-5.1932,-5.184,-5.179,-5.1783,-5.1765,-5.1715,-5.169,-5.169,-5.169,-5.169,-5.169,-5.169,-5.169,-5.169,-5.169,-5.169,-5.169,-5.169,-5.169,-5.169,-5.169,-5.169,-5.169,-5.169,-5.169,-5.169,-5.169,-5.169,-5.169,-5.169,-5.169,-5.169,-5.169,-5.169,-5.169,-5.169,-5.169,-5.169,-5.169,-5.169,-5.169,-5.169,-5.169,-5.169,-5.169,-5.169,-5.1583,-5.128,-5.0548,-4.9638,-4.8568,-4.7747,-4.7181,-4.6855,-4.7105,-4.7306,-4.7306,-4.6819,-4.6551,-4.6551,-4.6837,-4.6855,-4.6551,-4.6052,-4.5909,-4.6088,-4.6195,-4.6355,-4.6551,-4.7181,-4.7306,-2.4066,-2.4224,-2.4754,-2.5866,-2.6721,-2.7929,-3.0418,-3.2908,-3.5213,-3.7071,-3.8307,-3.8781,-3.7919,0.0,0.0,0.0,0.0,0.0,0.0,0.0,0.0,0.0,0.0,0.0,0.0,0.0,0.0,0.0,0.0,0.0,0.0,0.0,0.0,0.0,-4.749,-4.8181,-4.9757,-4.9595,-5.0283,-5.1833,-5.1833,-5.1808,-5.169,-5.169,-5.169,-5.169,-5.169,-5.169,-5.169,-5.169,-5.169,-5.169,-5.169,-5.169,-5.169,-5.169,-5.169,-5.169,-5.169,-5.169,-5.169,-5.169,-5.169,-5.169,-5.169,-5.169,-5.169,-5.169,-5.169,-5.169,-5.169,-5.169,-5.169,-5.169,-5.169,-5.169,-5.169,-5.169,-5.169,-5.169,-5.169,-5.169,-5.169,-5.169,-5.169,-5.169,-5.169,-5.169,-5.169,-5.0994,-5.0191,-4.9382,-4.8853,-4.8443,-4.8216,-4.8199,-4.8091,-4.7841,-4.7556,-4.7461,-4.7711,-4.7729,-4.7729,-4.7729,-4.6962,-4.6819,-4.7395,-4.6819,-4.6712,-4.6998,-4.727,-4.7252,-2.312,-2.3644,-2.4512,-2.4535,-2.633,-2.8765,-3.1273,-3.3763,-3.6216,-3.8655,-4.0403,-4.1218,-4.0292,-4.1406,0.0,0.0,0.0,0.0,0.0,0.0,0.0,0.0,0.0,0.0,0.0,0.0,0.0,0.0,0.0,0.0,0.0,0.0,0.0,0.0,-4.7302,-4.8026,-4.9501,-4.9501,-5.0259,-5.169,-5.169,-5.169,-5.169,-5.169,-5.169,-5.169,-5.169,-5.169,-5.169,-5.169,-5.169,-5.169,-5.169,-5.169,-5.169,-5.169,-5.169,-5.169,-5.169,-5.169,-5.169,-5.169,-5.169,-5.169,-5.169,-5.169,-5.169,-5.169,-5.169,-5.169,-5.169,-5.169,-5.169,-5.169,-5.169,-5.169,-5.169,-5.169,-5.169,-5.169,-5.169,-5.169,-5.169,-5.169,-5.169,-5.169,-5.169,-5.169,-5.169,-5.0994,-5.0227,-4.94,-4.9311,-4.9032,-4.827,-4.8199,-4.7859,-4.7051,-4.777,-4.8514,-4.9257,-4.9293,-4.9293,-4.9293,-4.8568,-4.8199,-4.8199,-4.8199,-4.7788,-4.7015,-4.7824,-4.777,-2.396,-2.4515,-2.5495,-2.6669,-2.8352,-3.0516,-3.3568,-3.5786,-3.8303,-4.2292,-4.2509,-4.1858,-4.1437,0.0,0.0,0.0,0.0,0.0,0.0,0.0,0.0,0.0,0.0,0.0,0.0,0.0,0.0,0.0,0.0,0.0,0.0,0.0,0.0,0.0,-4.7249,-4.7953,-4.9501,-4.9407,-5.0144,-5.169,-5.169,-5.169,-5.169,-5.169,-5.169,-5.169,-5.169,-5.169,-5.169,-5.169,-5.169,-5.169,-5.169,-5.169,-5.169,-5.169,-5.169,-5.169,-5.169,-5.169,-5.169,-5.169,-5.169,-5.169,-5.169,-5.169,-5.169,-5.169,-5.169,-5.169,-5.169,-5.169,-5.169,-5.169,-5.169,-5.169,-5.169,-5.169,-5.169,-5.169,-5.169,-5.169,-5.169,-5.169,-5.169,-5.169,-5.169,-5.169,-5.169,-5.1476,-5.1244,-5.1012,-5.0994,-5.0441,-4.9103,-4.852,-4.8109,-4.7859,-4.8074,-4.8306,-4.8538,-4.9032,-4.9293,-4.9293,-4.8568,-4.8199,-4.8199,-4.7627,-4.7212,-4.6998,-4.7252,-4.7212,-2.4484,-2.5227,-2.63,-2.8253,-3.0198,-3.2651,-3.656,-3.8309,-4.0099,0.0,-4.3301,-4.2356,-4.1923,0.0,0.0,0.0,0.0,0.0,0.0,0.0,0.0,0.0,0.0,0.0,0.0,0.0,0.0,0.0,0.0,0.0,0.0,0.0,0.0,0.0,-4.7138,-4.7719,-4.8971,-4.8895,-4.9495,-5.0744,-5.0744,-5.0744,-5.078,-5.1405,-5.169,-5.169,-5.169,-5.169,-5.169,-5.169,-5.169,-5.169,-5.169,-5.169,-5.169,-5.169,-5.169,-5.169,-5.169,-5.169,-5.169,-5.169,-5.169,-5.169,-5.169,-5.169,-5.169,-5.169,-5.169,-5.169,-5.169,-5.169,-5.169,-5.169,-5.169,-5.169,-5.169,-5.169,-5.169,-5.169,-5.169,-5.169,-5.169,-5.169,-5.169,-5.169,-5.169,-5.169,-5.169,-5.169,-5.169,-5.169,-5.169,-5.1048,-4.9436,-4.8889,-4.8371,-4.777,-4.8282,-4.8639,-4.8639,-4.9371,-4.9775,-4.9775,-4.8728,-4.8199,-4.8199,-4.7395,-4.6998,-4.6998,-4.6998,-4.6998,-2.465,-2.5739,-2.6991,-2.9397,-3.1979,-3.5139,-3.9739,-4.0913,-4.1472,-4.303,0.0,-4.2739,-4.1993,0.0,0.0,0.0,0.0,0.0,0.0,0.0,0.0,0.0,0.0,0.0,0.0,0.0,0.0,0.0,0.0,0.0,0.0,0.0,0.0,0.0,-4.6998,-4.7395,-4.8199,-4.8199,-4.8568,0.0,-4.9293,-4.9329,-4.9454,-5.0852,-5.1512,-5.1583,-5.1672,-5.169,-5.169,-5.169,-5.169,-5.169,-5.169,-5.169,-5.169,-5.169,-5.169,-5.169,-5.169,-5.169,-5.169,-5.169,-5.169,-5.169,-5.169,-5.169,-5.169,-5.169,-5.169,-5.169,-5.169,-5.169,-5.169,-5.169,-5.169,-5.169,-5.169,-5.169,-5.169,-5.169,-5.169,-5.169,-5.169,-5.169,-5.169,-5.169,-5.169,-5.169,-5.169,-5.169,-5.1672,-5.1601,-5.1583,-5.0941,-4.9329,-4.9115,-4.8496,-4.7087,-4.8389,-4.9222,-4.9293,-5.0084,-5.0495,-5.0488,-4.8978,-4.8175,-4.8152,-4.7372,-4.6975,-4.6957,-4.6975,-4.6975,-2.3847,-2.5637,-2.7816,-3.0178,-3.3954,-3.7883,-4.0835,-4.1397,-4.1775,-4.3441,-4.3182,0.0,0.0,0.0,0.0,0.0,0.0,0.0,0.0,0.0,0.0,0.0,0.0,0.0,0.0,0.0,0.0,0.0,0.0,0.0,0.0,0.0,0.0,-4.6998,-4.6998,-4.7395,-4.8199,-4.8199,-4.8568,0.0,-4.9293,-4.9614,-5.0245,-4.9959,-5.0174,-5.0798,-5.1422,-5.169,-5.169,-5.169,-5.169,-5.169,-5.169,-5.169,-5.169,-5.169,-5.169,-5.169,-5.169,-5.169,-5.169,-5.169,-5.169,-5.169,-5.169,-5.169,-5.169,-5.169,-5.169,-5.169,-5.169,-5.169,-5.169,-5.169,-5.169,-5.169,-5.169,-5.169,-5.169,-5.169,-5.169,-5.169,-5.169,-5.169,-5.169,-5.169,-5.169,-5.169,-5.169,-5.169,-5.1458,-5.0834,-5.0762,-5.012,-4.8573,-4.7854,-4.7354,-4.7015,-4.789,-4.8693,-4.9275,-5.0084,-5.0446,-5.0346,-4.8834,-4.8004,-4.7866,-4.7186,-4.6795,-4.6684,-4.6778,-4.6795,-2.3919,-2.6097,-2.8838,-3.2646,0.0,-3.9391,-4.1045,-4.1633,-4.2076,-4.2943,0.0,0.0,0.0,0.0,0.0,0.0,0.0,0.0,0.0,0.0,0.0,0.0,0.0,0.0,0.0,0.0,0.0,0.0,0.0,0.0,0.0,-4.6998,-4.6998,-4.6998,-4.6998,-4.7217,-4.7627,-4.7627,-4.7818,-4.8211,-4.8211,-4.8425,-4.8853,-4.9959,-5.0477,-5.0548,-5.1351,-5.169,-5.169,-5.169,-5.169,-5.169,-5.169,-5.169,-5.169,-5.169,-5.169,-5.169,-5.169,-5.169,-5.169,-5.169,-5.169,-5.169,-5.169,-5.169,-5.169,-5.169,-5.169,-5.169,-5.169,-5.169,-5.169,-5.169,-5.169,-5.169,-5.169,-5.169,-5.169,-5.169,-5.169,-5.169,-5.169,-5.1589,-5.1513,-5.1513,-5.1513,-5.1538,-5.1607,-5.1665,-5.153,-5.1119,-5.0727,-5.0031,-4.8817,-4.8015,-4.7413,-4.7015,-4.8086,-4.8907,-4.9275,-4.9685,-4.9869,-4.9763,-4.8169,-4.7299,-4.7209,-4.6873,-4.6661,-4.659,-4.6661,-4.6661,-2.3869,-2.6561,-2.9946,-3.4952,-3.7862,0.0,-4.0681,-4.152,-4.2093,-4.2093,0.0,0.0,0.0,0.0,0.0,0.0,0.0,0.0,0.0,0.0,0.0,0.0,0.0,0.0,0.0,0.0,0.0,0.0,0.0,0.0,-4.6998,-4.6998,-4.6998,-4.6998,-4.6998,-4.6998,-4.6998,-4.6998,-4.6998,-4.6998,-4.7122,-4.7122,-4.7087,-4.9977,-5.0852,-5.0156,-5.0941,-5.128,-5.1298,-5.144,-5.1476,-5.1512,-5.1637,-5.169,-5.169,-5.169,-5.169,-5.169,-5.169,-5.1601,-5.1476,-5.1476,-5.1387,-5.1315,-5.144,-5.1494,-5.1487,-5.1604,-5.1615,-5.1589,-5.1546,-5.1546,-5.1546,-5.1546,-5.1546,-5.1571,-5.169,-5.169,-5.169,-5.169,-5.169,-5.169,-5.164,-5.141,-5.1202,-5.1176,-5.1202,-5.1255,-5.1384,-5.1589,-5.1637,-5.1512,-5.0905,-5.0174,-4.9364,-4.8728,-4.8104,-4.7444,-4.8728,-4.9507,-4.9507,-4.9364,-4.9263,-4.917,-4.7452,-4.6542,-4.6518,-4.6542,-4.6542,-4.6518,-4.6542,-4.6542,-2.2228,-2.6356,-3.1058,0.0,-3.6631,-3.829,0.0,0.0,-4.1252,0.0,0.0,0.0,0.0,0.0,0.0,0.0,0.0,0.0,0.0,0.0,0.0,0.0,0.0,0.0,0.0,0.0,0.0,0.0,0.0,0.0,-4.6998,-4.6998,-4.6998,-4.6998,-4.6998,-4.6998,-4.6998,-4.6998,-4.6998,-4.6998,-4.7717,-4.7681,-4.7051,-4.8835,-4.921,-4.8556,-4.9299,-4.9614,-4.9668,-5.0388,-5.0673,-5.0727,-5.1422,-5.169,-5.169,-5.169,-5.169,-5.169,-5.169,-5.1244,-5.0673,-5.0673,-5.0191,-4.9739,-5.0459,-5.0581,-5.0624,-5.1189,-5.1272,-5.1141,-5.0955,-5.0928,-5.0928,-5.0928,-5.0928,-5.1061,-5.1589,-5.169,-5.169,-5.169,-5.169,-5.1615,-5.1384,-5.1079,-5.082,-5.0712,-5.0793,-5.0928,-5.1052,-5.1426,-5.1422,-5.0727,-5.0566,-5.0174,-4.9364,-4.9204,-4.9097,-4.899,-4.9852,-5.0352,-5.0352,-4.9668,-4.9214,-4.9029,-4.7307,-4.6374,-4.6246,-4.6253,-4.6253,-4.6246,-4.6253,-4.6253,-2.3667,-2.7448,-3.1151,0.0,-3.5418,-3.722,-3.8344,0.0,0.0,0.0,0.0,0.0,0.0,0.0,0.0,0.0,0.0,0.0,0.0,0.0,0.0,0.0,0.0,0.0,0.0,0.0,0.0,0.0,0.0,-4.6998,-4.6998,-4.6998,-4.6998,-4.6998,-4.6998,-4.6998,-4.6998,-4.6998,-4.6998,-4.6998,-4.7377,-4.7342,-4.7015,-4.7693,-4.8068,-4.8234,-4.8996,-4.9293,-4.9364,-5.0174,-5.0513,-5.0584,-5.1387,-5.169,-5.169,-5.169,-5.169,-5.169,-5.169,-5.1173,-5.0513,-5.0513,-4.9977,-4.9436,-5.0263,-5.0346,-5.0305,-5.085,-5.0847,-5.0595,-5.031,-5.0237,-5.0237,-5.0237,-5.0237,-5.0293,-5.0587,-5.0946,-5.1193,-5.1193,-5.1193,-5.1088,-5.0694,-5.0356,-5.0085,-4.993,-5.0028,-5.0226,-5.0467,-5.091,-5.0892,-5.0114,-4.9655,-4.9071,-4.8293,-4.8314,-4.8338,-4.8338,-4.9565,-5.0289,-5.0289,-4.9508,-4.9025,-4.8904,-4.7185,-4.6228,-4.6097,-4.6005,-4.598,-4.5972,-4.598,-4.598,-2.4217,0.0,-2.9844,-3.1561,-3.3599,-3.5454,0.0,0.0,0.0,0.0,0.0,0.0,0.0,0.0,0.0,0.0,0.0,0.0,0.0,0.0,0.0,0.0,0.0,0.0,0.0,0.0,0.0,0.0,0.0,-4.6766,-4.698,-4.6998,-4.6998,-4.6998,-4.6998,-4.6998,-4.6998,-4.6998,-4.6998,-4.6998,-4.6998,-4.6998,-4.6998,-4.6998,-4.7342,-4.7931,-4.8478,-4.8728,-4.88,-4.9799,-5.0209,-5.0298,-5.1315,-5.169,-5.169,-5.169,-5.1565,-5.1387,-5.1387,-5.0744,-4.9924,-4.9924,-4.9347,-4.8835,-4.9808,-4.9887,-4.9775,-5.0404,-5.0328,-5.0028,-4.9664,-4.9605,-4.9576,-4.9529,-4.9529,-4.9558,-4.9746,-5.0181,-5.054,-5.0495,-5.0512,-5.0356,-4.9884,-4.9517,-4.9248,-4.9131,-4.9218,-4.9398,-4.9681,-5.0187,-5.017,-4.9402,-4.8827,-4.8207,-4.7465,-4.7742,-4.7967,-4.801,-4.9431,-5.0267,-5.0267,-4.9339,-4.8776,-4.8667,-4.6968,-4.608,-4.5998,-4.5829,-4.5752,-4.5795,-4.5752,-4.5752,-2.2003,-2.4183,0.0,-2.8895,-3.0673,-3.2289,0.0,0.0,0.0,0.0,0.0,0.0,0.0,0.0,0.0,0.0,0.0,0.0,0.0,0.0,0.0,0.0,0.0,0.0,0.0,0.0,0.0,0.0,0.0,-4.6195,-4.6944,-4.6998,-4.6998,-4.6998,-4.6998,-4.6998,-4.6998,-4.6998,-4.6998,-4.6998,-4.6998,-4.6998,-4.6998,-4.6998,-4.7015,-4.7051,-4.7087,-4.7105,-4.7229,-4.8746,-4.9364,-4.9507,-5.1083,-5.169,-5.169,-5.169,-5.1226,-5.0566,-5.0566,-4.9567,-4.8323,-4.8323,-4.7677,-4.7204,-4.8562,-4.8702,-4.8626,-4.9647,-4.9732,-4.9471,-4.9124,-4.9032,-4.8984,-4.8796,-4.8765,-4.8948,-4.9646,-4.9833,-4.9804,-4.9676,-4.9646,-4.9499,-4.9036,-4.8666,-4.8416,-4.8274,-4.8385,-4.8526,-4.8666,-4.9261,-4.9308,-4.8386,-4.8415,-4.8191,-4.7444,-4.8342,-4.8968,-4.9112,-5.0142,-5.075,-5.075,-4.9311,-4.8469,-4.8339,-4.6672,-4.5879,-4.5998,-4.5744,-4.5684,-4.5812,-4.5667,-4.5667,-2.0325,0.0,0.0,-2.6526,-2.817,-2.9778,0.0,0.0,0.0,0.0,0.0,0.0,0.0,0.0,0.0,0.0,0.0,0.0,0.0,0.0,0.0,0.0,0.0,0.0,0.0,0.0,0.0,0.0,0.0,0.0,-4.5445,-4.5945,-4.623,-4.623,-4.673,-4.6998,-4.6998,-4.6998,-4.6998,-4.6998,-4.6998,-4.6998,-4.6998,-4.6998,-4.6998,-4.6998,-4.6998,-4.6998,-4.7105,-4.8651,-4.9293,-4.9454,-5.1066,-5.169,-5.169,-5.169,-5.1191,-5.0513,-5.0513,-4.9478,-4.8199,-4.8199,-4.7506,-4.6897,-4.8189,-4.8251,-4.8069,-4.8988,-4.9057,-4.8767,-4.8436,-4.8276,-4.813,-4.7968,-4.7935,-4.7984,-4.8274,-4.862,-4.8883,-4.8852,-4.8821,-4.8697,-4.8304,-4.8081,-4.7918,-4.777,-4.7853,-4.8,-4.8129,-4.8558,-4.8348,-4.7055,-4.698,-4.6536,-4.5302,-4.6311,-4.7026,-4.7082,-4.8616,-4.9521,-4.9521,-4.899,-4.8685,-4.863,-4.6971,-4.5995,-4.5744,-4.5554,-4.5502,-4.5554,-4.5502,-4.5761,-1.9412,-2.0993,0.0,0.0,0.0,-2.7285,0.0,0.0,0.0,0.0,0.0,0.0,0.0,0.0,0.0,0.0,0.0,0.0,0.0,0.0,0.0,0.0,0.0,0.0,0.0,0.0,0.0,0.0,0.0,0.0,-4.4585,-4.5124,-4.5517,-4.5802,-4.6569,-4.6998,-4.6998,-4.6998,-4.6998,-4.6998,-4.6998,-4.6998,-4.6998,-4.6998,-4.6998,-4.6998,-4.6998,-4.6998,-4.7087,-4.8407,-4.8942,-4.9103,-5.0673,-5.1298,-5.1333,-5.1601,-5.103,-5.0102,-5.0102,-4.9061,-4.7718,-4.7672,-4.7062,-4.6541,-4.7692,-4.7634,-4.7386,-4.8293,-4.8401,-4.8163,-4.7902,-4.7688,-4.7504,-4.7436,-4.7369,-4.7301,-4.7301,-4.7721,-4.8081,-4.8016,-4.8016,-4.7918,-4.7605,-4.7488,-4.7404,-4.7319,-4.737,-4.7454,-4.7538,-4.782,-4.7502,-4.618,-4.6127,-4.5578,-4.4119,-4.5085,-4.5698,-4.552,-4.727,-4.8338,-4.8338,-4.8326,-4.8297,-4.8297,-4.6715,-4.5749,-4.5429,-4.5314,-4.5264,-4.5264,-4.5264,-4.5841,0.0,0.0,0.0,0.0,0.0,0.0,0.0,0.0,0.0,0.0,0.0,0.0,0.0,0.0,0.0,0.0,0.0,0.0,0.0,0.0,0.0,0.0,0.0,0.0,0.0,0.0,0.0,0.0,0.0,-4.3786,-4.4478,-4.4549,-4.4924,-4.5749,-4.6516,-4.6926,-4.6962,-4.6962,-4.6962,-4.6998,-4.6998,-4.6998,-4.6998,-4.6998,-4.6998,-4.6998,-4.6998,-4.6998,-4.7051,-4.7877,-4.8199,-4.8359,-4.9906,-5.0513,-5.0602,-5.1405,-5.0709,-4.9329,-4.9329,-4.8241,-4.6825,-4.6708,-4.6281,-4.6031,-4.7,-4.6889,-4.6633,-4.7617,-4.7787,-4.7671,-4.7537,-4.7369,-4.7217,-4.7183,-4.703,-4.6876,-4.6876,-4.7217,-4.7436,-4.7217,-4.7183,-4.7132,-4.6927,-4.6876,-4.6876,-4.6876,-4.6876,-4.6876,-4.6876,-4.7064,-4.6822,-4.5922,-4.5975,-4.5522,-4.4105,-4.488,-4.5212,-4.4685,-4.6338,-4.7359,-4.7359,-4.7314,-4.73,-4.73,-4.5862,-4.5126,-4.5126,-4.5004,-4.4978,-4.4978,-4.4995,-4.5898,-1.8339,0.0,0.0,0.0,0.0,0.0,0.0,0.0,0.0,0.0,0.0,0.0,0.0,0.0,0.0,0.0,0.0,0.0,0.0,0.0,0.0,0.0,0.0,0.0,0.0,0.0,0.0,0.0,-4.2626,-4.2715,-4.2929,-4.35,-4.4139,-4.4906,-4.516,-4.5552,-4.6123,-4.6123,-4.6409,-4.6998,-4.6998,-4.6998,-4.6998,-4.6998,-4.6998,-4.6998,-4.6998,-4.6998,-4.7051,-4.7877,-4.8199,-4.8359,-4.9906,-5.0513,-5.0602,-5.1405,-5.1048,-5.0174,-5.0174,-4.9344,-4.8271,-4.7988,-4.7439,-4.6955,-4.7322,-4.7102,-4.6806,-4.7457,-4.7588,-4.7504,-4.7319,-4.7251,-4.7183,-4.703,-4.6927,-4.6876,-4.6876,-4.6996,-4.7064,-4.6996,-4.6996,-4.6961,-4.6927,-4.6876,-4.6876,-4.6876,-4.6876,-4.6876,-4.6876,-4.6961,-4.6686,-4.5872,-4.5841,-4.5307,-4.3896,-4.4248,-4.4255,-4.3594,-4.5237,-4.6236,-4.6236,-4.7234,-4.7816,-4.7816,-4.6354,-4.5607,-4.559,-4.4725,-4.4276,-4.4276,-4.4975,-4.5665,-1.8993,-1.9158,-1.9362,0.0,0.0,0.0,0.0,0.0,0.0,0.0,0.0,0.0,0.0,0.0,0.0,0.0,0.0,0.0,0.0,0.0,0.0,0.0,0.0,0.0,0.0,0.0,0.0,-4.1306,-4.1306,-4.1448,-4.177,-4.2894,-4.3693,-4.4121,-4.4442,-4.4817,-4.5302,-4.5641,-4.6034,-4.6498,-4.6837,-4.6998,-4.6998,-4.6998,-4.6998,-4.6998,-4.6998,-4.6998,-4.7033,-4.752,-4.7652,-4.7766,-4.9316,-4.9866,-4.9891,-5.1028,-5.0906,-5.0163,-5.0163,-4.9403,-4.8382,-4.804,-4.7423,-4.6878,-4.7015,-4.6793,-4.6602,-4.7106,-4.7251,-4.7217,-4.7115,-4.7064,-4.703,-4.6927,-4.6876,-4.6876,-4.6876,-4.6876,-4.6876,-4.6876,-4.6876,-4.6876,-4.6876,-4.6876,-4.6876,-4.6876,-4.6876,-4.6876,-4.6876,-4.6876,-4.673,-4.6293,-4.6261,-4.5791,-4.4674,-4.4773,-4.456,-4.3843,-4.5046,-4.5814,-4.5814,-4.693,-4.7554,-4.7554,-4.6126,-4.5076,-4.4468,-4.4052,-4.3827,-4.386,-4.4788,-4.5404,-2.0539,-2.0511,-2.035,-1.9791,0.0,0.0,-2.0564,-2.2193,0.0,0.0,0.0,0.0,0.0,0.0,0.0,0.0,0.0,0.0,0.0,0.0,0.0,0.0,0.0,0.0,0.0,-3.9895,-3.9895,-3.9895,-3.9966,-4.036,-4.1056,-4.2555,-4.3354,-4.3354,-4.3975,-4.4349,-4.4438,-4.5223,-4.5668,-4.5775,-4.656,-4.6975,-4.6975,-4.6957,-4.6957,-4.6975,-4.6957,-4.6957,-4.6934,-4.6934,-4.6888,-4.6938,-4.8477,-4.8909,-4.8868,-5.0427,-5.0461,-4.9704,-4.966,-4.8874,-4.7872,-4.7529,-4.6938,-4.6379,-4.6534,-4.6405,-4.6285,-4.6783,-4.6876,-4.6876,-4.6876,-4.6876,-4.6876,-4.6876,-4.6876,-4.6876,-4.6876,-4.6876,-4.6876,-4.6876,-4.6876,-4.6876,-4.6876,-4.6876,-4.6876,-4.6876,-4.6876,-4.6876,-4.6876,-4.6876,-4.6876,-4.6876,-4.6876,-4.6585,-4.5856,-4.5807,-4.5516,-4.4836,-4.5435,-4.5775,-4.5694,-4.6374,-4.673,-4.6649,-4.5354,-4.3994,-4.2602,-4.3188,-4.3489,-4.3505,-4.4381,-4.4903,-2.1206,-2.0889,-2.0539,-2.1051,0.0,0.0,0.0,-2.0787,0.0,0.0,0.0,0.0,0.0,0.0,0.0,0.0,0.0,0.0,0.0,0.0,0.0,0.0,0.0,0.0,0.0,-3.9895,-3.9895,-3.9895,-4.0503,-4.0931,-4.1092,-4.2002,-4.2478,-4.2394,-4.2498,-4.2846,-4.3381,-4.4196,-4.4923,-4.5561,-4.6329,-4.6684,-4.6684,-4.6795,-4.6795,-4.6684,-4.6795,-4.6725,-4.6518,-4.6518,-4.6637,-4.6938,-4.8374,-4.8776,-4.867,-4.9844,-5.0072,-4.9757,-4.9464,-4.9086,-4.8642,-4.8307,-4.784,-4.7358,-4.7108,-4.6921,-4.6783,-4.6878,-4.6876,-4.6876,-4.6876,-4.6876,-4.6876,-4.6876,-4.6876,-4.6876,-4.6876,-4.6876,-4.6876,-4.6876,-4.6876,-4.6876,-4.6876,-4.6876,-4.6876,-4.6876,-4.6876,-4.6876,-4.6876,-4.6876,-4.6876,-4.6876,-4.6876,-4.6585,-4.5856,-4.5807,-4.5516,-4.4836,-4.5435,-4.5565,-4.5014,-4.5646,-4.5759,-4.5208,-4.4366,-4.3492,-4.2602,-4.2711,-4.2805,-4.2805,-4.3154,-4.3448,-2.3204,-2.2699,-2.21,-2.2147,0.0,0.0,0.0,0.0,0.0,0.0,0.0,0.0,0.0,0.0,0.0,0.0,0.0,0.0,0.0,0.0,0.0,0.0,0.0,0.0,0.0,-3.8522,-3.8754,-3.8754,-3.9504,-3.995,-3.995,-4.0681,-4.1227,-4.1535,-4.149,-4.1782,-4.2453,-4.3548,-4.4301,-4.4706,-4.5876,-4.6447,-4.6501,-4.6637,-4.6661,-4.6613,-4.6661,-4.6542,-4.6284,-4.6052,-4.5953,-4.6135,-4.7812,-4.8172,-4.7859,-4.9177,-4.9415,-4.908,-4.8911,-4.8649,-4.8353,-4.8113,-4.7787,-4.7404,-4.7132,-4.6996,-4.6876,-4.6876,-4.6876,-4.6876,-4.6876,-4.6876,-4.6876,-4.6876,-4.6876,-4.6876,-4.6876,-4.6876,-4.6876,-4.6876,-4.6876,-4.6876,-4.6876,-4.6876,-4.6876,-4.6876,-4.6876,-4.6876,-4.6876,-4.6876,-4.6876,-4.6876,-4.6876,-4.673,-4.6374,-4.6342,-4.6196,-4.5856,-4.6147,-4.6034,-4.5322,-4.5629,-4.5322,-4.4269,-4.3897,-4.3331,-4.2602,-4.2602,-4.2602,-4.2602,-4.2696,-4.2898,0.0,0.0,0.0,0.0,0.0,-2.0492,0.0,0.0,0.0,0.0,0.0,0.0,0.0,0.0,0.0,0.0,0.0,0.0,0.0,0.0,0.0,0.0,0.0,0.0,0.0,-3.6649,-3.7112,-3.7094,-3.7967,-3.8519,-3.8519,-3.9499,-4.0331,-4.0905,-4.0943,-4.1209,-4.1714,-4.2991,-4.3676,-4.3834,-4.5236,-4.6046,-4.6301,-4.6405,-4.6471,-4.6405,-4.6429,-4.6235,-4.5895,-4.5503,-4.5144,-4.5046,-4.7027,-4.7391,-4.6929,-4.8376,-4.8606,-4.8193,-4.8129,-4.7934,-4.7704,-4.7588,-4.737,-4.7098,-4.6961,-4.6876,-4.6876,-4.6876,-4.6876,-4.6876,-4.6876,-4.6876,-4.6876,-4.6876,-4.6876,-4.6876,-4.6876,-4.6876,-4.6876,-4.6876,-4.6876,-4.6876,-4.6876,-4.6876,-4.6876,-4.6876,-4.6876,-4.6828,-4.6698,-4.6682,-4.6633,-4.6488,-4.6488,-4.6488,-4.6488,-4.6488,-4.6488,-4.6488,-4.6488,-4.6147,-4.5435,-4.5273,-4.4658,-4.3524,-4.3476,-4.3185,-4.2602,-4.2602,-4.2602,-4.2602,-4.2602,-4.2759,0.0,0.0,0.0,0.0,-2.2561,0.0,0.0,0.0,0.0,0.0,0.0,0.0,0.0,0.0,0.0,0.0,0.0,0.0,0.0,0.0,0.0,0.0,0.0,0.0,0.0,0.0,-3.535,-3.5297,-3.6644,-3.746,-3.746,-3.9534,-4.0675,-4.0637,-4.12,-4.1494,-4.1448,-4.219,-4.291,-4.3548,-4.4443,-4.5234,-4.5871,-4.6005,-4.5938,-4.5709,-4.5837,-4.5511,-4.4872,-4.4801,-4.4457,-4.4123,-4.6017,-4.6579,-4.6391,-4.7469,-4.7721,-4.7471,-4.7168,-4.7048,-4.7014,-4.6979,-4.6961,-4.6927,-4.6927,-4.6876,-4.6876,-4.6876,-4.6876,-4.6876,-4.6876,-4.6876,-4.6876,-4.6876,-4.6876,-4.6876,-4.6876,-4.6876,-4.6876,-4.6876,-4.6876,-4.6876,-4.6876,-4.6876,-4.6876,-4.6876,-4.6876,-4.6649,-4.6002,-4.5921,-4.5694,-4.5095,-4.503,-4.503,-4.503,-4.503,-4.503,-4.503,-4.503,-4.4706,-4.3978,-4.3298,-4.2894,-4.2732,-4.2716,-4.2683,-4.2602,-4.2602,-4.2602,-4.2602,-4.2602,-4.2634,0.0,0.0,0.0,0.0,0.0,0.0,-2.1608,0.0,-2.063,0.0,0.0,0.0,0.0,0.0,0.0,0.0,0.0,0.0,0.0,0.0,0.0,0.0,0.0,0.0,0.0,0.0,0.0,0.0,0.0,-3.4853,-3.5734,-3.7567,-3.8951,-3.9722,-4.0381,-4.0877,-4.1215,-4.1845,-4.2317,-4.2646,-4.3883,-4.462,-4.4949,-4.5321,-4.5363,-4.5196,-4.5054,-4.4729,-4.4271,-4.4013,-4.3693,-4.3548,-4.4983,-4.5623,-4.5853,-4.7079,-4.7354,-4.7082,-4.6945,-4.6876,-4.6876,-4.6876,-4.6876,-4.6876,-4.6876,-4.6876,-4.6876,-4.6876,-4.6876,-4.6876,-4.6876,-4.6876,-4.6876,-4.6876,-4.6876,-4.6876,-4.6876,-4.6876,-4.6876,-4.6876,-4.6876,-4.6876,-4.6876,-4.6876,-4.6876,-4.6876,-4.6876,-4.6617,-4.5888,-4.5807,-4.5548,-4.4868,-4.4787,-4.4787,-4.4787,-4.4787,-4.4787,-4.4787,-4.4399,-4.4026,-4.3719,-4.2991,-4.2602,-4.2602,-4.2602,-4.2602,-4.2602,-4.2602,-4.2602,-4.2602,-4.2602,-4.2602,-2.7297,0.0,0.0,0.0,0.0,0.0,0.0,0.0,0.0,0.0,0.0,0.0,0.0,0.0,0.0,0.0,0.0,0.0,0.0,0.0,0.0,0.0,0.0,0.0,0.0,0.0,0.0,0.0,0.0,0.0,-3.3914,-3.5842,-3.7484,-3.8709,-3.9591,-4.0382,-4.1093,-4.1494,-4.1809,-4.2033,-4.3294,-4.3984,-4.413,-4.4675,-4.4828,-4.458,-4.4339,-4.4054,-4.3739,-4.3383,-4.3111,-4.3106,-4.4318,-4.4951,-4.5342,-4.6747,-4.7116,-4.6876,-4.6876,-4.6876,-4.6876,-4.6876,-4.6876,-4.6876,-4.6876,-4.6876,-4.6876,-4.6876,-4.6876,-4.6876,-4.6876,-4.6876,-4.6876,-4.6876,-4.6876,-4.6876,-4.6876,-4.6876,-4.6876,-4.6876,-4.6876,-4.6876,-4.6876,-4.6876,-4.6811,-4.6617,-4.6585,-4.6261,-4.5338,-4.5225,-4.4965,-4.4269,-4.4204,-4.4204,-4.4204,-4.4204,-4.4204,-4.4204,-4.3702,-4.3379,-4.3379,-4.2877,-4.2602,-4.2602,-4.2602,-4.2602,-4.2602,-4.2602,-4.2602,-4.2602,-4.2602,-4.2602,0.0,0.0,0.0,-2.5178,0.0,0.0,0.0,0.0,-2.263,0.0,0.0,0.0,0.0,0.0,0.0,0.0,0.0,0.0,0.0,0.0,0.0,0.0,0.0,0.0,0.0,0.0,0.0,0.0,0.0,0.0,-3.2143,-3.5053,-3.7056,-3.7819,-3.9185,-4.0297,-4.1093,-4.0976,-4.1291,-4.1992,-4.2643,-4.3194,-4.3637,-4.4247,-4.4276,-4.3814,-4.3814,-4.3565,-4.3127,-4.3096,-4.2929,-4.278,-4.4221,-4.4787,-4.4999,-4.6408,-4.6927,-4.6876,-4.6876,-4.6876,-4.6876,-4.6876,-4.6876,-4.6876,-4.6876,-4.6876,-4.6876,-4.6876,-4.6876,-4.6876,-4.6876,-4.6876,-4.6876,-4.6876,-4.6876,-4.6876,-4.6876,-4.6876,-4.6876,-4.6876,-4.6876,-4.6876,-4.6876,-4.6876,-4.6649,-4.5937,-4.584,-4.5338,-4.3962,-4.3783,-4.3476,-4.2748,-4.2667,-4.2667,-4.2667,-4.2667,-4.2667,-4.2667,-4.2651,-4.2635,-4.2635,-4.2619,-4.2602,-4.2602,-4.2602,-4.2602,-4.2602,-4.2602,-4.2602,-4.2602,-4.2602,-4.2602,0.0,0.0,-2.6833,-2.6575,0.0,0.0,0.0,0.0,0.0,0.0,0.0,0.0,0.0,0.0,0.0,0.0,0.0,0.0,0.0,0.0,0.0,0.0,0.0,0.0,0.0,0.0,0.0,0.0,-2.723,0.0,0.0,-3.3294,-3.5526,-3.6772,-3.8735,-3.9905,-4.0182,-4.0676,-4.0985,-4.1147,-4.2151,-4.259,-4.2567,-4.3347,-4.3562,-4.3309,-4.3113,-4.2929,-4.2774,-4.2774,-4.268,-4.2748,-4.4221,-4.4787,-4.4965,-4.6358,-4.6876,-4.6876,-4.6876,-4.6876,-4.6876,-4.6876,-4.6876,-4.6876,-4.6876,-4.6876,-4.6876,-4.6876,-4.6876,-4.6876,-4.6876,-4.6876,-4.6876,-4.6876,-4.6876,-4.6876,-4.6876,-4.6876,-4.6876,-4.6876,-4.6876,-4.6876,-4.6876,-4.6876,-4.6633,-4.5905,-4.5807,-4.5289,-4.3897,-4.3719,-4.3427,-4.2683,-4.2602,-4.2602,-4.2602,-4.2602,-4.2602,-4.2602,-4.2602,-4.2602,-4.2602,-4.2602,-4.2602,-4.2602,-4.2602,-4.2602,-4.2602,-4.2602,-4.2602,-4.2602,-4.2602,-4.2602,-2.9506,-2.8816,0.0,-2.7747,-2.6368,0.0,-2.4353,0.0,0.0,0.0,0.0,0.0,0.0,0.0,0.0,0.0,0.0,0.0,0.0,0.0,0.0,0.0,0.0,0.0,0.0,0.0,-2.391,-2.4615,-2.5279,0.0,0.0,0.0,-3.3936,-3.5473,-3.7947,-3.9371,-3.9629,-4.038,-4.0655,-4.0502,-4.1732,-4.2109,-4.1733,-4.2782,-4.3127,-4.2929,-4.268,-4.2602,-4.2602,-4.2602,-4.2602,-4.2748,-4.4221,-4.4787,-4.4965,-4.6358,-4.6876,-4.6876,-4.6876,-4.6876,-4.6876,-4.6876,-4.6876,-4.6876,-4.6876,-4.6876,-4.6876,-4.6876,-4.6876,-4.6876,-4.6876,-4.6876,-4.6876,-4.6876,-4.6876,-4.6876,-4.6876,-4.6876,-4.6876,-4.6876,-4.6876,-4.6876,-4.6876,-4.6876,-4.6633,-4.5905,-4.5597,-4.5014,-4.3864,-4.3476,-4.312,-4.2651,-4.2602,-4.2602,-4.2602,-4.2602,-4.2602,-4.2602,-4.2602,-4.2602,-4.2602,-4.2602,-4.2602,-4.2602,-4.2602,-4.2602,-4.2602,-4.2602,-4.2602,-4.2602,-4.2602,-4.2602]},{"header":{"parameterUnit":"m.s-1","parameterCategory":1,"la1":30.6,"la2":29.2853,"lo1":-89.7004,"lo2":-87.6739,"dy":0.0162,"dx":0.0183,"nx":112,"ny":82,"refTime":"2026-04-01T00:00:00:Z","depth":0,"parameterNumber":3,"parameterNumberName":"V-component_of_WINDS"},"data":[0.0,0.0,0.0,0.0,0.0,0.0,0.0,0.0,0.0,0.0,0.0,0.0,0.0,0.0,0.0,0.0,0.0,0.0,0.0,0.0,0.0,0.0,0.0,0.0,0.0,0.0,0.0,0.0,0.0,0.0,0.0,0.0,0.0,0.0,0.0,0.0,0.0,0.0,0.0,0.0,0.0,0.0,0.0,0.0,0.0,0.0,0.0,0.0,0.0,0.0,0.0,0.0,0.0,0.0,0.0,0.0,0.0,0.0,0.0,0.0,0.0,0.0,0.0,0.0,0.0,0.0,0.0,0.0,0.0,0.0,0.0,0.0,0.0,0.0,0.0,0.0,0.0,0.0,0.0,0.0,0.0,0.0,0.0,0.0,0.0,0.0,0.0,0.0,0.0,0.0,0.0,0.4722,0.5374,0.561,0.5246,0.4846,0.4436,0.4162,0.0,0.0,0.0,0.0,0.0,0.0,0.0,0.0,0.0,0.0,0.0,0.0,0.0,0.0,0.0,0.0,0.0,0.0,0.0,0.0,0.0,0.0,0.0,0.0,0.0,0.0,0.0,0.0,0.0,0.0,0.0,0.0,0.0,0.0,0.0,0.0,0.0,0.0,0.0,0.0,0.0,0.0,0.0,0.0,0.0,0.0,0.0,0.0,0.0,0.0,0.0,0.0,0.0,0.0,0.0,0.0,0.0,0.0,0.0,0.0,0.0,0.0,0.0,0.0,0.0,0.0,0.0,0.0,0.0,0.0,0.0,0.0,0.0,0.0,0.0,0.0,0.0,0.0,0.0,0.0,0.0,0.0,0.0,0.0,0.0,0.0,0.0,0.0,0.0,0.0,0.0,0.0,0.0,0.0,0.0,0.0,0.0,0.0,0.0,0.0,0.0,0.0,0.0,0.0,0.4238,0.5276,0.5692,0.573,0.5413,0.5091,0.4743,0.43,0.0,0.0,0.0,0.0,0.0,0.0,0.0,0.0,0.0,0.0,0.0,0.0,0.0,0.0,0.0,0.0,0.0,0.0,0.0,0.0,0.0,0.0,0.0,0.0,0.0,0.0,0.0,0.0,0.0,0.0,0.0,0.0,0.0,0.0,0.0,0.0,0.0,0.0,0.0,0.0,0.0,0.0,0.0,0.0,0.0,0.0,0.0,0.0,0.0,0.0,0.0,0.0,0.0,0.0,0.0,0.0,0.0,0.0,0.0,0.0,0.0,0.0,0.0,0.0,0.0,0.0,0.0,0.0,0.0,0.0,0.0,0.0,0.0,0.0,0.0,0.0,0.0,0.0,0.0,0.0,0.0,0.0,0.0,0.0,0.0,0.0,0.0,0.0,0.0,0.0,0.0,0.0,0.0,0.0,0.0,0.0,0.0,0.0,0.0,0.0,0.0,0.0,0.0,0.4085,0.4862,0.5537,0.586,0.5855,0.5499,0.5089,0.4677,0.4232,0.3498,0.0,0.0,0.0,0.0,0.0,0.0,0.0,0.0,0.0,0.0,0.0,0.0,0.0,0.0,0.0,0.0,0.0,0.0,0.0,0.0,0.0,0.0,0.0,0.0,0.0,0.0,0.0,0.0,0.0,0.0,0.0,0.0,0.0,0.0,0.0,0.0,0.0,0.0,0.0,0.0,0.0,0.0,0.0,0.0,0.0,0.0,0.0,0.0,0.0,0.0,0.0,0.0,0.0,0.0,0.0,0.0,0.0,0.0,0.0,0.0,0.0,0.0,0.0,0.0,0.0,0.0,0.0,0.0,0.0,0.0,0.0,0.0,0.0,0.0,0.0,0.0,0.0,0.0,0.0,0.0,0.0,0.0,0.0,0.0,0.0,0.0,0.0,0.0,0.0,0.0,0.0,0.0,0.0,0.0,0.0,0.0,0.0,0.0,0.0,0.0,0.0,0.0,0.4763,0.5368,0.5691,0.5961,0.5918,0.5456,0.5011,0.4575,0.4064,0.3307,0.0,0.0,0.0,0.0,0.0,0.0,0.0,0.0,0.0,0.0,0.0,0.0,0.0,0.0,0.0,0.0,0.0,0.0,0.0,0.0,0.0,0.0,0.0,0.0,0.0,0.0,0.0,0.0,0.0,0.0,0.0,0.0,0.0,0.0,0.0,0.0,0.0,0.0,0.0,0.0,0.0,0.0,0.0,0.0,0.0,0.0,0.0,0.0,0.0,0.0,0.0,0.0,0.0,0.0,0.0,0.0,0.0,0.0,0.0,0.0,0.0,0.0,0.0,0.0,0.0,0.0,0.0,0.0,0.0,0.0,0.0,0.0,0.0,0.0,0.0,0.0,0.0,0.0,0.0,0.0,0.0,0.0,0.0,0.0,0.0,0.0,0.0,0.0,0.0,0.0,0.0,0.0,0.0,0.0,0.0,0.0,0.0,0.0,0.0,0.0,0.0,0.0,0.5016,0.5494,0.5852,0.6007,0.5847,0.5262,0.4914,0.4446,0.3846,0.3021,0.0,0.0,0.0,0.0,0.0,0.0,0.0,0.0,0.0,0.0,0.0,0.0,0.0,0.0,0.0,0.0,0.0,0.0,0.0,0.0,0.0,0.0,0.0,0.0,0.0,0.0,0.0,0.0,0.0,0.0,0.0,0.0,0.0,0.0,0.0,0.0,0.0,0.0,0.0,0.0,0.0,0.0,0.0,0.0,0.0,0.0,0.0,0.0,0.0,0.0,0.0,0.0,0.0,0.0,0.0,0.0,0.0,0.0,0.0,0.0,0.0,0.0,0.0,0.0,0.0,0.0,0.0,0.0,0.0,0.0,0.0,0.0,0.0,0.0,0.0,0.0,0.0,0.0,0.0,0.0,0.0,0.0,0.0,0.0,0.0,0.0,0.0,0.0,0.0,0.0,0.0,0.0,0.0,0.0,0.0,0.0,0.0,0.0,0.0,0.0,0.0,0.0,0.5306,0.5964,0.0,0.6529,0.6391,0.5981,0.5372,0.4768,0.42,0.0,0.0,0.0,0.0,0.0,0.0,0.0,0.0,0.0,0.0,0.0,0.0,0.0,0.0,0.0,0.0,0.0,0.0,0.0,0.0,0.0,0.0,0.0,0.0,0.0,0.0,0.0,0.0,0.0,0.0,0.0,0.0,0.0,0.0,0.0,0.0,0.0,0.0,0.0,0.0,0.0,0.0,0.0,0.0,0.0,0.0,0.0,0.0,0.0,0.0,0.0,0.0,0.0,0.0,0.0,0.0,0.0,0.0,0.0,0.0,0.0,0.0,0.0,0.0,0.0,0.0,0.0,0.0,0.0,0.0,0.0,0.0,0.0,0.0,0.0,0.0,0.0,0.0,0.0,0.0,0.0,0.0,0.0,0.0,0.0,0.0,0.0,0.0,0.0,0.0,0.0,0.0,0.0,0.0,0.0,0.0,0.0,0.0,0.0,0.0,0.0,0.0,0.5005,0.5915,0.6665,0.0,0.7261,0.7152,0.6766,0.6024,0.5285,0.4627,0.0,0.0,0.0,0.0,0.0,0.0,0.0,0.0,0.0,0.0,0.0,0.0,0.0,0.0,0.0,0.0,0.0,0.0,0.0,0.0,0.0,0.0,0.0,0.0,0.0,0.0,0.0,0.0,0.0,0.0,0.0,0.0,0.0,0.0,0.0,0.0,0.0,0.0,0.0,0.0,0.0,0.0,0.0,0.0,0.0,0.0,0.0,0.0,0.0,0.0,0.0,0.0,0.0,0.0,0.0,0.0,0.0,0.0,0.0,0.0,0.0,0.0,0.0,0.0,0.0,0.0,0.0,0.0,0.0,0.0,0.0,0.0,0.0,0.0,0.0,0.0,0.0,0.0,0.0,0.0,0.0,0.0,0.0,0.0,0.0,0.0,0.0,0.0,0.0,0.0,0.0,0.0,0.0,0.0,0.0,0.0,0.0,0.0,0.0,0.0,0.0,0.0,0.5731,0.6791,0.7645,0.8216,0.8286,0.8068,0.7537,0.6789,0.5946,0.0,0.0,0.0,0.0,0.0,0.0,0.0,0.0,0.0,0.0,0.0,0.0,0.0,0.0,0.0,0.0,0.0,0.0,0.0,0.0,0.0,0.0,0.0,0.0,0.0,0.0,0.0,0.0,0.0,0.0,0.0,0.0,0.0,0.0,0.0,0.0,0.0,0.0,0.0,0.0,0.0,0.0,0.0,0.0,0.0,0.0,0.0,0.0,0.0,0.0,0.0,0.0,0.0,0.0,0.0,0.0,0.0,0.0,0.0,0.0,0.0,0.0,0.0,0.0,0.0,0.0,0.0,0.0,0.0,0.0,0.0,0.0,0.0,0.0,0.0,0.0,0.0,0.0,0.0,0.0,0.0,0.0,0.0,0.0,0.0,0.0,0.0,0.0,0.0,0.0,0.0,0.0,0.0,0.0,0.0,0.0,0.0,0.0,0.0,0.0,0.0,0.0,0.0,0.5807,0.7072,0.7984,0.8399,0.8552,0.8487,0.8032,0.7381,0.669,0.5896,0.0,0.0,0.0,0.0,0.0,0.0,0.0,0.0,0.0,0.0,0.0,0.0,0.0,0.0,0.0,0.0,0.0,0.0,0.0,0.0,0.0,0.0,0.0,0.0,0.0,0.0,0.0,0.0,0.0,0.0,0.0,0.0,0.0,0.0,0.0,0.0,0.0,0.0,0.0,0.0,0.0,0.0,0.0,0.0,0.0,0.0,0.0,0.0,0.0,0.0,0.0,0.0,0.0,0.0,0.0,0.0,0.0,0.0,0.0,0.0,0.0,0.0,0.0,0.0,0.0,0.0,0.0,0.0,0.0,0.0,0.0,0.0,0.0,0.0,0.0,0.0,0.0,0.0,0.0,0.0,0.0,0.0,0.0,0.0,0.0,0.0,0.0,0.0,0.0,0.0,0.0,0.0,0.0,0.0,0.0,0.0,0.0,0.0,0.0,0.0,0.0,0.0,0.6232,0.7617,0.8625,0.8897,0.9138,0.9065,0.8567,0.8047,0.7338,0.6384,0.0,0.0,0.0,0.0,0.0,0.0,0.0,0.0,0.0,0.0,0.0,0.0,0.0,0.0,0.0,0.0,0.0,0.0,0.0,0.0,0.0,0.0,0.0,0.0,0.0,0.0,0.0,0.0,0.0,0.0,0.0,0.0,0.0,0.0,0.0,0.0,0.0,0.0,0.0,0.0,0.0,0.0,0.0,0.0,0.0,0.0,0.0,0.0,0.0,0.0,0.0,0.0,0.0,0.0,0.0,0.0,0.0,0.0,0.0,0.0,0.0,0.0,0.0,0.0,0.0,0.0,0.0,0.0,0.0,0.0,0.0,0.0,0.0,0.0,0.0,0.0,0.0,0.0,0.0,0.0,0.0,0.0,0.0,0.0,0.0,0.0,0.0,0.0,0.0,0.0,0.0,0.0,0.0,0.0,0.0,0.0,0.0,0.0,0.0,0.0,0.0,0.0,0.6785,0.83,0.9357,0.955,0.98,0.9719,0.9072,0.8642,0.7891,0.6666,0.0,0.0,0.0,0.0,0.0,0.0,0.0,0.0,0.0,0.0,0.0,0.0,0.0,0.0,0.0,0.0,0.0,0.0,0.0,0.0,0.0,0.0,0.0,0.0,0.0,0.0,0.0,0.0,0.0,0.0,0.0,0.0,0.0,0.0,0.0,0.0,0.0,0.0,0.0,0.0,0.0,0.0,0.0,0.0,0.0,0.0,0.0,0.0,0.0,0.0,0.0,0.0,0.0,0.0,0.0,0.0,0.0,0.0,0.0,0.0,0.5536,0.0,0.0,0.0,0.0,0.0,0.0,0.0,0.0,0.0,0.0,0.0,0.0,0.0,0.0,0.0,0.0,0.0,0.0,0.0,0.0,0.0,0.0,0.0,0.0,0.0,0.0,0.0,0.0,0.0,0.0,0.0,0.0,0.0,0.0,0.0,0.0,0.0,0.0,0.0,0.0,0.0,0.7088,0.8452,0.9301,0.9348,0.954,0.9484,0.9023,0.8642,0.808,0.7324,0.6374,0.0,0.0,0.0,0.0,0.0,0.0,0.0,0.0,0.0,0.0,0.0,0.0,0.0,0.0,0.0,0.0,0.0,0.0,0.0,0.0,0.0,0.0,0.0,0.0,0.0,0.0,0.0,0.0,0.0,0.0,0.0,0.0,0.0,0.0,0.0,0.0,0.0,0.0,0.0,0.0,0.0,0.0,0.0,0.0,0.0,0.0,0.0,0.0,0.0,0.0,0.0,0.0,0.0,0.0,0.0,0.0,0.0,0.0,0.0,0.0,0.6229,0.0,0.0,0.0,0.0,0.0,0.0,0.0,0.0,0.0,0.0,0.0,0.0,0.0,0.0,0.0,0.0,0.0,0.0,0.0,0.0,0.0,0.0,0.0,0.0,0.0,0.0,0.0,0.0,0.0,0.0,0.0,0.0,0.0,0.0,0.0,0.0,0.0,0.0,0.0,0.0,0.737,0.8642,0.9395,0.9291,0.9385,0.9282,0.8907,0.8581,0.8094,0.7403,0.662,0.0,0.0,0.0,0.0,0.0,0.0,0.0,0.0,0.0,0.0,0.0,0.0,0.0,0.0,0.0,0.0,0.0,0.0,0.0,0.0,0.0,0.0,0.0,0.0,0.0,0.0,0.0,0.0,0.0,0.0,0.0,0.0,0.0,0.0,0.0,0.0,0.0,0.0,0.0,0.0,0.0,0.0,0.0,0.0,0.0,0.0,0.0,0.0,0.0,0.0,0.0,0.0,0.0,0.8367,0.8785,0.9192,0.9262,0.9545,0.987,0.865,0.8106,0.8014,0.0,0.0,0.0,0.0,0.0,0.0,0.0,0.0,0.0,0.0,0.0,0.0,0.0,0.0,0.0,0.0,0.0,0.0,0.0,0.0,0.0,0.0,0.0,0.0,0.0,0.7685,0.7177,0.0,0.0,0.0,0.0,0.0,0.0,0.0,0.0,0.0,0.0,0.0,0.0,0.7716,0.8862,0.9522,0.9305,0.9282,0.9152,0.8737,0.8548,0.8127,0.7399,0.6927,0.6336,0.0,0.0,0.0,0.0,0.0,0.0,0.0,0.0,0.0,0.0,0.0,0.0,0.0,0.0,0.0,0.0,0.0,0.0,0.0,0.0,0.0,0.0,0.0,0.0,0.0,0.0,0.0,0.0,0.0,0.0,0.0,0.0,0.42,0.4224,0.0,0.0,0.0,0.0,0.0,0.0,0.0,0.0,0.0,0.0,0.0,0.0,0.0,0.6806,0.7338,0.7854,0.8375,0.8828,0.976,1.0341,1.0637,1.1185,1.1333,1.126,1.1046,0.0,0.9072,0.8619,0.0,0.0,0.0,0.0,0.0,0.0,0.0,0.0,0.0,0.0,0.0,0.0,0.0,0.0,0.0,0.0,0.0,0.0,0.0,0.0,0.0,0.0,0.9091,0.9306,0.9298,0.9155,0.0,0.7879,0.7042,0.7008,0.6733,0.0,0.0,0.0,0.0,0.0,0.0,0.0,0.8201,0.9075,0.9522,0.9305,0.9282,0.9152,0.8737,0.8675,0.8458,0.802,0.7612,0.7059,0.6365,0.5774,0.0,0.0,0.0,0.0,0.0,0.0,0.0,0.0,0.0,0.0,0.0,0.0,0.0,0.0,0.0,0.0,0.0,0.0,0.0,0.0,0.0,0.0,0.0,0.0,0.0,0.0,0.0,0.0,0.0,0.4195,0.465,0.4832,0.501,0.5024,0.0,0.0,0.0,0.0,0.0,0.0,0.0,0.0,0.0,0.7415,0.7638,0.8041,0.8571,0.9118,0.9675,1.0314,1.0966,1.1607,1.2149,1.2382,1.2474,1.2384,1.2255,1.1766,1.099,1.001,0.9437,0.9076,0.0,0.0,0.0,0.0,0.819,0.8654,0.8659,0.8654,0.0,0.8434,0.0,0.0,0.0,0.0,0.0,0.0,0.0,0.0,0.0,0.0,0.0,1.0116,1.0078,0.9975,0.988,0.9321,0.8686,0.0,0.7948,0.7529,0.7056,0.0,0.0,0.0,0.0,0.0,0.8618,0.9235,0.9569,0.9475,0.9253,0.9089,0.9058,0.8949,0.8755,0.8448,0.8042,0.7484,0.6713,0.62,0.5609,0.0,0.0,0.0,0.0,0.0,0.0,0.0,0.0,0.0,0.0,0.0,0.0,0.0,0.0,0.0,0.0,0.0,0.0,0.0,0.0,0.0,0.0,0.0,0.0,0.0,0.0,0.0,0.0,0.4796,0.5218,0.5555,0.5749,0.5852,0.0,0.0,0.0,0.0,0.0,0.0,0.6997,0.7366,0.7789,0.8276,0.8779,0.9257,0.9702,1.0306,1.0971,1.1603,1.2,1.2491,1.315,1.3202,1.3245,1.3174,1.3032,1.2791,1.2507,1.1213,1.0548,1.0206,0.9298,0.9217,0.9591,0.9125,0.9279,0.9727,0.9755,0.9804,0.9795,0.9743,0.0,0.8874,0.851,0.0,0.0,0.0,0.0,0.9176,0.9823,1.0315,1.0631,1.0778,1.0702,1.056,1.0502,1.035,1.0037,0.0,0.8888,0.8505,0.8089,0.0,0.0,0.0,0.0,0.8278,0.8966,0.938,0.9602,0.9602,0.9277,0.9122,0.9272,0.9145,0.9011,0.8798,0.8392,0.7815,0.7014,0.6483,0.5838,0.5102,0.0,0.0,0.0,0.0,0.0,0.0,0.0,0.0,0.0,0.0,0.0,0.0,0.0,0.0,0.0,0.0,0.0,0.0,0.0,0.0,0.0,0.0,0.0,0.0,0.0,0.0,0.0,0.0,0.0,0.629,0.6518,0.0,0.0,0.0,0.0,0.7082,0.7317,0.7569,0.7927,0.83,0.8666,0.9031,0.989,1.0374,1.053,1.137,1.2,1.2353,1.2694,1.3065,1.3381,1.357,1.3573,1.3384,1.3392,1.324,1.2999,1.2119,1.1515,1.1111,1.0649,1.0512,1.0533,1.0518,1.0627,1.0872,1.1042,1.1099,1.1071,1.0877,1.0263,0.9517,0.9291,0.8963,0.0,0.0,0.9715,1.0123,1.0905,1.1283,1.1458,1.1468,1.1463,1.1345,1.0953,1.0858,1.0603,0.0,0.939,0.9143,0.8727,0.0,0.808,0.8321,0.8529,0.8812,0.9211,0.9465,0.9602,0.9602,0.9399,0.9272,0.9282,0.9272,0.9183,0.8981,0.8618,0.8103,0.7475,0.6638,0.5904,0.5306,0.4883,0.0,0.0,0.0,0.0,0.0,0.0,0.0,0.0,0.0,0.0,0.0,0.0,0.0,0.0,0.0,0.0,0.0,0.0,0.0,0.0,0.0,0.0,0.0,0.0,0.0,0.0,0.0,0.0,0.7062,0.7608,0.0,0.7857,0.7805,0.7882,0.8077,0.8247,0.8499,0.8902,0.9116,0.9616,1.0418,1.0729,1.114,1.162,1.2074,1.2414,1.2707,1.2972,1.3282,1.3584,1.3655,1.3636,1.3601,1.3442,1.3339,1.3258,1.2813,1.246,1.2154,1.1588,1.1505,1.1754,1.1479,1.1508,1.1657,1.1728,1.1713,1.1562,1.1359,1.1,1.0608,1.04,1.0135,0.9979,1.0348,1.0598,1.0853,1.1288,1.1557,1.1709,1.1709,1.1614,1.1477,1.1331,1.0976,1.0641,1.048,1.0272,1.0041,0.9762,0.9365,0.9162,0.9411,0.9346,0.9412,0.9691,0.9682,0.9602,0.9602,0.9296,0.9145,0.9272,0.9164,0.9004,0.8831,0.8425,0.7954,0.7332,0.6728,0.6163,0.5698,0.5301,0.495,0.0,0.0,0.0,0.0,0.0,0.0,0.0,0.0,0.0,0.0,0.0,0.0,0.0,0.0,0.0,0.0,0.0,0.0,0.0,0.0,0.0,0.0,0.0,0.0,0.0,0.0,0.7416,0.7841,0.8424,0.8747,0.8743,0.8747,0.8816,0.8873,0.9087,0.931,0.9536,0.9887,1.0382,1.1089,1.14,1.1823,1.2316,1.27,1.3017,1.3195,1.3324,1.3504,1.3688,1.3688,1.3688,1.3688,1.3559,1.3489,1.3485,1.337,1.3238,1.3022,1.2474,1.2408,1.2616,1.2342,1.2328,1.2441,1.2375,1.2209,1.2006,1.1869,1.1685,1.1487,1.1354,1.1165,1.1038,1.1255,1.1411,1.1562,1.1775,1.1874,1.2011,1.194,1.1822,1.169,1.1548,1.1075,1.0726,1.0868,1.0669,1.0497,1.0431,1.0088,0.9927,1.0175,0.9927,0.9823,1.0075,0.9819,0.963,0.9743,0.9399,0.9249,0.938,0.9202,0.9006,0.8718,0.8245,0.7764,0.7213,0.6691,0.6238,0.5916,0.5434,0.514,0.5007,0.0,0.0,0.0,0.0,0.0,0.0,0.0,0.0,0.0,0.0,0.0,0.0,0.0,0.0,0.0,0.0,0.0,0.0,0.0,0.0,0.0,0.0,0.0,0.642,0.7224,0.8033,0.8571,0.8922,0.9279,0.9571,0.9344,0.921,0.9416,0.9841,1.0009,0.9857,1.058,1.0993,1.1006,1.1837,1.2406,1.2607,1.3363,1.3688,1.3688,1.3688,1.3688,1.3688,1.3688,1.3688,1.3688,1.3688,1.3688,1.3688,1.3688,1.3688,1.3651,1.3235,1.3084,1.3146,1.3136,1.3131,1.3093,1.2894,1.2625,1.2387,1.2387,1.2255,1.2095,1.2095,1.1944,1.1869,1.2029,1.2081,1.2123,1.2316,1.2368,1.2325,1.2133,1.2085,1.1977,1.1614,1.1194,1.0896,1.0905,1.0565,1.0393,1.0546,1.0428,1.0412,1.0602,1.0284,0.0,1.0293,0.9913,0.9734,0.9975,0.9767,0.9602,0.9602,0.9399,0.9138,0.8718,0.8113,0.7617,0.7199,0.6558,0.6102,0.5916,0.532,0.503,0.5016,0.0,0.0,0.0,0.0,0.0,0.0,0.0,0.0,0.0,0.0,0.0,0.0,0.0,0.0,0.0,0.0,0.0,0.0,0.0,0.0,0.0,0.0,0.7517,0.7244,0.7963,0.8682,0.9139,0.9799,1.0241,1.0164,1.0237,1.0272,1.0259,1.0395,1.0446,1.0458,1.0779,1.1221,1.172,1.2073,1.2599,1.3153,1.3532,1.3688,1.3688,1.3688,1.3688,1.3688,1.3688,1.3688,1.3688,1.3688,1.3688,1.3688,1.3688,1.3688,1.3665,1.34,1.3391,1.3499,1.3353,1.3202,1.3093,1.2894,1.2625,1.2387,1.2387,1.2349,1.2302,1.2302,1.2161,1.201,1.2071,1.1973,1.1921,1.1973,1.2053,1.2156,1.21,1.2085,1.201,1.1794,1.1293,1.0938,1.1085,1.0778,1.0556,1.0773,1.0882,1.091,1.082,1.0712,0.0,1.035,1.008,0.9933,0.999,0.9767,0.9602,0.9602,0.9272,0.8926,0.851,0.793,0.7394,0.6925,0.6454,0.6102,0.5916,0.5741,0.5505,0.0,0.0,0.0,0.0,0.0,0.0,0.0,0.0,0.0,0.0,0.0,0.0,0.0,0.0,0.0,0.0,0.0,0.0,0.0,0.0,0.0,0.0,0.8047,0.8652,0.8734,0.9004,0.9319,0.9584,1.0172,1.0574,1.0546,1.0605,1.0683,1.0708,1.088,1.0944,1.0988,1.127,1.164,1.2039,1.2363,1.2756,1.3298,1.3582,1.3688,1.3688,1.3688,1.3688,1.3688,1.3688,1.3688,0.0,1.3688,1.3688,1.3688,1.3688,1.3688,0.0,0.0,0.0,0.0,0.0,1.3381,1.3188,1.3069,1.2885,1.2701,1.2701,1.2701,1.2673,1.2438,1.2245,1.2048,1.1878,1.1723,1.1576,1.1666,1.1794,1.1977,1.2067,1.2151,1.2156,1.1944,1.1534,1.1165,1.1189,1.0929,0.0,1.0872,1.1061,1.1156,1.1038,1.0872,1.0674,1.0478,1.026,1.0132,1.0132,1.0055,0.9965,0.979,0.9554,0.0,0.0,0.0,0.7456,0.6819,0.6562,0.0,0.0,0.0,0.0,0.0,0.0,0.0,0.0,0.5372,0.5429,0.0,0.0,0.0,0.0,0.0,0.0,0.0,0.0,0.0,0.0,0.0,0.0,0.0,0.0,0.0,0.0,0.9048,0.9724,1.0441,1.0211,1.0034,1.001,1.027,1.0546,1.0735,1.067,1.0752,1.0958,1.1282,1.1431,1.1455,0.0,0.0,0.0,0.0,1.2953,1.3122,1.348,1.3688,1.3688,1.3688,1.3688,1.3688,1.3688,1.3688,1.3688,1.3688,1.3688,1.3688,1.3688,1.3688,1.3688,1.3688,1.3688,1.3688,1.3688,1.3561,1.3391,1.3391,0.0,0.0,1.3122,1.3122,1.2994,1.2597,1.2264,1.2006,1.1661,1.1378,1.1246,1.1463,1.1666,1.1869,1.2034,1.2236,1.233,1.2128,1.1775,1.1496,1.1302,1.1085,1.0938,1.0962,1.1094,1.1189,1.1165,1.0849,1.0649,1.0621,1.0419,1.031,1.031,0.0,0.0,1.0099,1.0023,0.9667,0.8855,0.8349,0.7721,0.6892,0.6859,0.6859,0.6859,0.6671,0.669,0.6899,0.6755,0.6908,0.7308,0.644,0.6176,0.0,0.0,0.0,0.0,0.0,0.0,0.0,0.0,0.0,0.0,0.0,0.0,0.0,0.0,0.0,0.9039,0.9804,1.0431,1.0678,1.1069,1.1194,1.0746,1.0811,1.0929,1.1029,1.1008,1.1136,1.1509,1.1624,1.1686,1.1723,1.214,0.0,1.2341,1.2797,1.3137,1.3355,1.3603,1.3688,1.3688,0.0,0.0,1.3688,1.3688,1.3688,1.3688,1.3688,1.3688,1.3688,1.3688,1.3688,1.3688,1.3688,1.3688,1.3688,1.3688,1.3561,1.3391,1.3391,1.3249,1.3122,1.3122,1.3122,1.3022,1.2776,1.2441,0.0,1.1831,1.1487,1.1246,1.1463,1.1666,1.1869,1.2034,1.2236,1.233,1.2128,1.1888,1.1746,1.1704,1.1392,1.1194,1.1368,1.1283,1.1142,1.0976,1.0886,1.0768,1.064,1.0583,1.0564,1.0564,1.0597,1.0588,1.0502,1.0189,0.9857,0.9442,0.859,0.7821,0.7157,0.7133,0.7133,0.7133,0.709,0.7251,0.7603,0.7721,0.791,0.8141,0.7337,0.7152,0.0,0.0,0.0,0.0,0.0,0.0,0.0,0.0,0.0,0.0,0.0,0.7659,0.7891,0.0,0.9195,0.9715,1.0409,1.0947,1.1114,1.1446,1.1558,1.1131,1.1214,1.1292,1.1358,1.1372,1.1536,1.1805,1.1875,1.2032,1.2298,1.2475,1.2657,1.2764,1.3073,1.3312,1.3404,1.3596,1.3688,1.3688,1.3688,1.3688,1.3688,1.3688,1.3688,1.3688,1.3688,1.3688,1.3688,1.3688,1.3688,1.3688,1.3688,1.3688,1.3688,1.3688,1.3627,1.3537,1.3537,1.3471,1.3377,1.3377,1.3377,1.332,1.3013,1.2701,1.2389,1.2015,1.1751,1.1529,1.1638,1.1822,1.2006,1.2062,1.2236,1.2358,1.226,1.2151,1.2043,1.1944,1.1808,1.1633,1.1534,1.134,1.1127,1.0924,1.0801,1.066,1.0497,1.0469,1.0507,1.0611,1.0669,1.0735,1.0735,1.0298,0.9862,0.9465,0.8798,0.8113,0.7527,0.7598,0.7603,0.7503,0.7603,0.7859,0.824,0.8344,0.8552,0.8855,0.8434,0.824,0.0,0.0,0.0,0.0,0.0,0.0,0.0,0.0,0.7019,0.7607,0.8179,0.8656,0.8897,0.9398,0.9904,1.0324,1.0882,1.1331,1.1543,1.1694,1.1713,1.15,1.1531,1.1583,1.1673,1.1756,1.1836,1.2046,1.2187,1.2402,1.2785,1.2887,1.2961,1.3133,1.3378,1.3445,1.3447,1.3608,1.3688,1.3688,1.3731,1.375,1.375,1.375,1.375,1.375,1.3707,1.3688,1.3688,1.3688,1.3688,1.3688,1.3688,1.3688,1.3688,1.3688,1.3688,1.3688,1.3688,1.3688,1.3688,1.3688,1.3688,1.3618,1.3244,1.3046,1.2748,1.237,1.2106,1.194,1.194,1.2015,1.2142,1.2142,1.2269,1.2387,1.2387,1.2387,1.234,1.2175,1.2114,1.1968,1.1642,1.1397,1.1175,1.0934,1.0712,1.0564,1.0398,1.0379,1.0455,1.0664,1.0792,1.0896,1.0896,1.0436,0.9919,0.9376,0.9034,0.8543,0.7929,0.8056,0.8066,0.7905,0.8061,0.8363,0.8822,0.8822,0.9039,0.9445,0.9445,0.9223,0.5865,0.6139,0.6491,0.7104,0.7107,0.7116,0.0,0.0,0.8264,0.8514,0.8916,0.9341,0.9781,1.007,1.0343,1.0759,1.1194,1.1553,1.1756,1.1935,1.2032,1.2032,1.1629,1.1491,1.1932,1.1982,1.2091,1.2327,1.2595,1.2736,1.278,1.3159,1.3346,1.3384,1.3573,1.3646,1.3655,1.3679,1.3688,1.3693,1.3882,1.3977,1.3977,1.3977,1.3977,1.3962,1.3773,1.3688,1.3688,1.3688,1.3688,1.3688,1.3688,1.3688,1.3688,1.3688,1.3688,1.3688,1.3688,1.3688,1.3688,1.3688,1.3688,1.3646,1.3424,1.3202,1.3046,1.2818,1.254,1.2316,1.2316,1.2335,1.2354,1.2354,1.2368,1.2387,1.2387,1.2387,1.2377,1.2354,1.2208,1.201,1.1822,1.1614,1.135,1.0957,1.0712,1.0611,1.0588,1.0588,1.0622,1.0834,1.0882,1.0896,1.0896,1.0655,1.0249,0.9606,0.9343,0.8978,0.8359,0.8354,0.8354,0.833,0.8354,0.8661,0.9211,0.9211,0.9469,0.9923,0.9923,0.9653,0.642,0.6776,0.7101,0.7692,0.7923,0.8119,0.8514,0.8992,0.9406,0.9573,0.9946,1.0253,1.035,1.063,1.0868,0.0,1.142,1.1723,1.1803,1.1949,1.2038,1.1964,1.1599,1.1539,1.1866,1.1977,1.2105,1.2212,1.2552,1.2874,1.2979,1.3245,1.3455,1.3568,1.3687,1.3688,1.3688,1.3688,1.3688,1.3693,1.3906,1.401,1.401,1.401,1.3944,1.3816,1.3731,1.3688,1.3688,1.3688,1.3688,1.3688,1.3688,1.3688,1.3688,1.3688,1.3688,1.3688,1.3688,1.3688,1.3688,1.3688,1.3688,1.3674,1.3589,1.3499,1.341,1.3329,1.3235,1.3112,1.2866,1.2805,1.2743,1.2443,1.2387,1.2387,1.2387,1.2387,1.2387,1.2387,1.2316,1.2194,1.1987,1.1831,1.1553,1.1132,1.0787,1.0578,1.046,1.0336,1.0341,1.0508,1.0749,1.0896,1.0896,1.0697,1.0357,0.9856,0.9599,0.9211,0.8609,0.8934,0.9089,0.9003,0.9212,0.9493,0.9881,0.9881,1.0038,1.0424,1.0424,1.0287,0.705,0.7385,0.7672,0.8329,0.871,0.8962,0.936,0.9837,1.0213,1.0369,1.0598,1.0759,1.0649,1.0868,1.1132,1.1184,1.1548,1.1836,1.1846,1.1987,1.202,1.1846,1.1614,1.1531,1.1613,1.1888,1.2067,1.2085,1.2605,1.2975,1.3072,1.3318,1.3537,1.3684,1.3688,1.3688,1.3688,1.3688,1.3688,1.3693,1.3906,1.401,1.401,1.401,1.3892,1.3688,1.3688,1.3688,1.3688,1.3688,1.3688,1.3688,1.3688,1.3688,1.3688,1.3688,1.3688,1.3688,1.3688,1.3688,1.3688,1.3688,1.3688,1.3688,1.3688,1.3688,1.3688,1.3688,1.3688,1.3594,1.3178,1.3122,1.2961,1.2485,1.2387,1.2387,1.2387,1.2387,1.2387,1.2387,1.2387,1.2321,1.2123,1.1958,1.1765,1.1345,1.0976,1.0631,1.036,1.018,1.0146,1.0303,1.0594,1.0806,1.0806,1.0612,1.0355,0.9937,0.9755,0.9487,0.9008,0.9573,0.9893,0.9878,1.016,1.0429,1.0708,1.0708,1.0826,1.1092,1.1092,1.1092,0.7802,0.8037,0.8222,0.9313,0.9545,0.975,1.0407,1.0551,1.0602,1.0611,1.0621,1.0626,1.0621,1.0754,1.0967,1.1161,1.1548,1.1893,1.2048,1.2081,1.2004,1.1819,1.163,1.1454,0.0,1.1567,1.1905,1.2081,1.2707,1.3102,1.3122,1.3462,1.3679,1.3688,1.3688,1.3688,1.3688,1.3688,1.3688,1.3693,1.3906,1.401,1.401,1.401,1.3892,1.3688,1.3688,1.3688,1.3688,1.3688,1.3688,1.3688,1.3688,1.3688,1.3688,1.3688,1.3688,1.3688,1.3688,1.3688,1.3688,1.3688,1.3688,1.3688,1.3688,1.3688,1.3688,1.3688,1.3688,1.3594,1.3178,1.3122,1.2961,1.2485,1.2387,1.2387,1.2387,1.2387,1.2387,1.2387,1.2387,1.2321,1.2123,1.2081,1.1935,1.1572,1.1321,1.0957,1.0398,1.0267,1.0312,1.0317,1.0502,1.063,1.063,1.04,1.0102,0.9639,0.9855,0.9899,0.9689,1.0122,1.0596,1.1039,1.1055,1.1288,1.1744,1.1744,1.1874,1.2073,1.2073,1.2073,0.7295,0.795,0.8522,0.9331,1.0003,1.0515,1.0773,1.0891,1.0948,1.0816,1.057,1.0417,1.0417,1.0588,1.0754,1.0962,1.1576,1.2039,1.2072,1.2228,1.2215,1.2025,1.1824,0.0,0.0,0.0,0.0,1.1912,1.2529,1.2937,1.3112,1.3462,1.3688,1.3688,1.3688,1.3688,1.3688,1.3688,1.3688,1.3693,1.3906,1.401,1.401,1.401,1.3892,1.3688,1.3688,1.3688,1.3688,1.3688,1.3688,1.3688,1.3688,1.3688,1.3688,1.3688,1.3688,1.3688,1.3688,1.3688,1.3688,1.3688,1.3688,1.3688,1.3688,1.3688,1.3688,1.3688,1.3688,1.3627,1.3353,1.3282,1.3206,1.2923,1.2857,1.2819,1.2687,1.2658,1.2611,1.241,1.2387,1.2363,1.2297,1.2283,1.21,1.16,1.1099,1.066,1.0319,1.0194,1.0104,1.0104,1.0293,1.0417,1.0417,1.036,1.0093,0.963,0.9981,1.0033,0.971,1.0522,1.1139,1.147,1.1789,1.2126,1.2468,1.2468,1.2513,1.2552,1.2552,1.2552,0.7178,0.8036,0.8775,0.9507,1.0314,1.0896,1.0896,1.0995,1.0986,1.0631,1.0286,1.0027,0.9951,1.0208,1.0474,1.0767,1.1461,1.2011,1.2104,1.2278,1.2327,1.2096,1.2,1.1816,0.0,0.0,0.0,1.1808,1.2408,1.2913,1.3112,1.3462,1.3688,1.3688,1.3688,1.3688,1.3688,1.3688,1.3688,1.3693,1.383,1.3896,1.3896,1.3896,1.3821,1.3688,1.3688,1.3688,1.3688,1.3688,1.3688,1.3688,1.3688,1.3688,1.3688,1.3688,1.3688,1.3688,1.3688,1.3688,1.3688,1.3688,1.3688,1.3688,1.3688,1.3688,1.3688,1.3688,1.3688,1.3641,1.3443,1.3391,1.3334,1.3179,1.3122,1.3013,1.2866,1.2823,1.2701,1.2429,1.2387,1.2387,1.2387,1.226,1.2029,1.1685,1.109,1.0589,1.0355,1.0198,1.008,1.0004,1.0008,1.005,1.005,0.9979,0.979,0.9404,0.9898,1.0068,0.9821,1.0837,1.1641,1.2069,1.2558,1.2957,1.3327,1.3327,1.3327,1.3327,1.3327,1.3327,0.7494,0.829,0.9012,0.9862,1.0532,1.0924,1.0901,1.0877,1.0688,1.0108,0.9738,0.947,0.0,0.0,1.0095,1.0495,1.1274,1.1869,1.2062,1.2259,1.2327,0.0,0.0,0.0,0.0,0.0,0.0,1.1865,0.0,1.2913,1.3112,1.3462,1.3688,1.3688,1.3688,1.3688,1.3688,1.3688,1.3688,1.3688,1.3688,1.3688,1.3688,1.3688,1.3688,1.3688,1.3688,1.3688,1.3688,1.3688,1.3688,1.3688,1.3688,1.3688,1.3688,1.3688,1.3688,1.3688,1.3688,1.3688,1.3688,1.3688,1.3688,1.3688,1.3688,1.3688,1.3688,1.3688,1.3688,1.3646,1.3452,1.3405,1.3353,1.3203,1.3155,1.3041,1.2885,1.2837,1.2715,1.2429,1.2387,1.2387,1.2387,1.2048,1.1831,1.1817,1.1307,1.0773,1.0388,1.0327,1.0236,1.0018,0.9776,0.962,0.962,0.9432,0.9271,0.9028,0.9642,1.0028,1.0014,1.1079,1.2052,1.2797,1.3275,1.3755,1.428,1.4292,1.4292,1.428,1.4292,1.4298,0.7032,0.8199,0.9291,0.9754,1.0603,1.1279,1.0967,1.0655,1.0296,0.9823,0.9058,0.8557,0.0,0.0,0.0,1.0062,1.1072,0.0,1.1884,1.2201,0.0,1.2327,0.0,1.2535,1.2243,1.245,0.0,0.0,1.2673,1.2913,1.3112,1.3462,1.3688,1.3688,1.3688,1.3688,1.3688,1.3688,1.3688,1.3688,1.3688,1.3688,1.3688,1.3688,1.3688,1.3688,1.3688,1.3688,1.3688,1.3688,1.3688,1.3688,1.3688,1.3688,1.3688,1.3688,1.3688,1.3688,1.3688,1.3688,1.3688,1.3688,1.3688,1.3688,1.3688,1.3688,1.3688,1.3688,1.3688,1.3674,1.3627,1.3613,1.3599,1.3547,1.3528,1.3429,1.3127,1.3046,1.288,1.2457,1.2387,1.2387,1.2387,1.2175,1.1949,1.1841,1.1557,1.1151,1.057,1.0412,1.0236,1.0018,0.9947,0.9914,0.9914,0.9866,0.9705,0.9456,0.9942,1.0234,1.0218,1.1177,1.2064,1.2769,1.3258,1.3666,1.4008,1.4201,1.4195,1.4008,1.4208,1.4298,0.6955,0.814,0.9286,0.9705,1.0521,1.1137,1.0716,1.0301,0.9852,0.9296,0.8548,0.8066,0.8374,0.8609,0.0,0.0,0.0,0.0,1.1499,1.1855,1.2192,0.0,1.2498,0.0,1.2587,1.2772,1.2956,0.0,1.2956,1.3046,1.3197,1.3514,1.3688,1.3688,1.3688,1.3688,1.3688,1.3688,1.3688,1.3688,1.3688,1.3688,1.3688,1.3688,1.3688,1.3688,0.0,1.3688,1.3688,1.3688,1.3688,1.3688,1.3688,1.3688,1.3688,1.3688,1.3688,1.3688,1.3688,1.3688,1.3688,1.3688,1.3688,1.3688,1.3688,1.3688,1.3688,1.3688,1.3688,1.3748,1.3868,1.3983,1.4102,1.4282,1.4401,1.4405,1.3959,1.3863,1.3728,1.3282,1.3197,1.3197,1.3197,1.3016,1.2831,1.2757,1.247,1.2093,1.162,1.0913,1.0369,1.0161,0.9927,0.9819,0.9819,0.9729,0.9667,0.9606,0.9967,1.0212,1.0308,1.1182,1.1984,1.2623,1.3098,1.3531,1.3906,1.3936,1.3936,1.3912,1.4057,1.4183,0.7132,0.8204,0.9178,0.9689,1.0377,1.0811,1.0338,0.9861,0.9301,0.8708,0.807,0.7696,0.7934,0.8153,0.8527,0.9129,0.0,1.0905,1.1113,1.1501,1.1825,1.202,1.2227,1.2526,1.2748,1.3055,1.3207,1.3207,1.3207,1.3221,1.3381,1.358,1.3688,1.3688,1.3688,1.3688,1.3688,1.3688,1.3688,1.3688,1.3688,1.3688,1.3688,1.3688,1.3688,1.3688,0.0,0.0,1.3688,1.3688,1.3688,1.3688,1.3688,1.3688,1.3688,1.3688,1.3688,1.3688,1.3688,1.3688,1.3688,1.3688,1.3688,1.3688,1.3688,1.3688,1.3688,1.3688,1.3688,1.3808,1.4172,1.452,1.4808,1.5224,1.5591,1.5708,1.5306,1.5179,1.5037,1.4609,1.4499,1.4483,1.4483,1.4285,1.4173,1.4146,1.3749,1.3369,1.3078,1.1701,1.0678,1.0476,1.0053,0.9781,0.9852,0.9721,0.9707,0.9923,1.0149,1.0352,1.0524,1.1356,1.1994,1.2483,1.2914,1.3414,1.3906,1.3713,1.3719,1.3906,1.3942,1.4081,0.7409,0.8464,0.9463,0.9749,1.0473,1.0943,1.0222,0.9417,0.0,0.807,0.7311,0.6841,0.7291,0.7659,0.8117,0.8722,0.9861,1.0679,1.0679,1.1175,1.1557,0.0,1.2057,1.2526,1.2748,0.0,0.0,0.0,0.0,1.3523,1.3395,1.358,1.3688,1.3688,1.3688,1.3688,1.3688,1.3688,1.3688,1.3688,1.3688,1.3688,1.3688,1.3688,1.3688,1.3688,1.3688,0.0,1.3688,1.3688,1.3688,1.3688,1.3688,1.3688,1.3688,1.3688,1.3688,1.3688,1.3688,1.3688,1.3688,1.3688,1.3688,1.3688,1.3688,1.3688,1.3688,1.3688,1.3688,1.3808,1.4396,1.4981,1.5575,1.6101,1.6685,1.7008,1.6752,1.6577,1.646,1.6365,1.6118,1.5915,1.5915,1.5702,1.5458,1.5245,1.4954,1.4713,1.4495,1.2731,1.141,1.1234,1.0922,1.0835,1.1079,1.1229,1.1391,1.1669,1.1722,1.1752,1.1796,1.2115,1.249,1.2978,1.3278,1.3606,1.3906,1.4081,1.4075,1.3912,1.4129,1.4256,0.7917,0.8895,0.9665,0.9982,1.0395,1.0527,0.979,0.0,0.0,0.7739,0.7028,0.6604,0.6915,0.7136,0.0,0.8248,0.9169,0.988,1.0251,1.0697,0.0,1.1326,1.1902,1.2408,0.0,0.0,0.0,0.0,0.0,1.3646,1.3551,1.3636,1.3688,1.3688,1.3688,1.3688,1.3688,1.3688,1.3688,1.3688,1.3688,1.3688,1.3688,1.3688,1.3688,1.3688,1.3688,0.0,1.3688,1.3688,1.3688,1.3688,1.3688,1.3688,1.3688,1.3688,1.3688,1.3688,1.3688,1.3688,1.3688,1.3688,1.3688,1.3688,1.3688,1.3688,1.3748,1.3933,1.4047,1.4336,1.5165,1.5994,1.6762,1.7349,1.7817,1.8129,1.8052,1.786,1.7668,1.7668,1.7437,1.7245,1.7245,1.7015,1.6778,1.6794,1.6407,1.6184,1.6196,1.4706,1.3272,1.2254,1.1921,1.191,1.2159,1.2506,1.2967,1.3671,1.3431,1.3263,1.3312,1.3211,1.3205,1.3292,1.3456,1.3608,1.3906,1.3894,1.3894,1.3912,1.4039,1.4165,0.8503,0.9292,0.9899,1.0192,1.0239,1.007,0.9346,0.843,0.7652,0.7336,0.6831,0.6487,0.6632,0.6707,0.6985,0.0,0.8449,0.9091,0.9714,1.0194,1.064,0.0,1.1661,0.0,0.0,0.0,0.0,0.0,0.0,0.0,1.3688,1.3688,1.3688,1.3688,1.3688,1.3688,1.3688,1.3688,1.3688,1.3688,1.3748,1.3868,1.3928,1.3983,1.4047,1.4107,1.4107,0.0,0.0,1.4107,1.4107,1.4107,1.4107,1.4107,1.4107,1.4107,1.4107,1.4107,1.4107,1.4107,1.4107,1.4107,1.3928,1.3688,1.3688,1.3688,1.3808,1.4167,1.4515,1.5041,1.6118,1.712,1.8064,1.8823,1.9223,1.9389,1.9389,1.9205,1.9097,1.9097,1.8858,1.8653,1.8653,1.8398,1.8257,1.8454,1.7981,1.7696,1.7903,1.6791,1.5397,1.3865,1.3332,1.3131,1.3252,1.3803,1.4557,1.554,1.5181,1.4839,1.4746,1.4479,1.4159,1.3781,1.3761,1.3896,1.4178,1.3878,1.3884,1.4084,1.399,1.4099,0.8981,0.9612,1.0167,1.014,1.0072,0.9809,0.8944,0.0,0.7354,0.6729,0.6384,0.6238,0.6257,0.6398,0.0,0.0,0.7938,0.8609,0.9048,0.963,1.0208,1.0626,0.0,0.0,0.0,0.0,0.0,0.0,0.0,0.0,1.3688,1.3688,1.3688,1.3688,1.3688,1.3688,1.3688,1.3688,1.3688,1.3688,1.3992,1.4286,1.451,1.4813,1.5116,1.5423,1.5423,0.0,0.0,1.5423,1.5423,1.5423,1.5423,1.5423,1.5423,1.5423,1.5423,1.5423,1.5423,1.5423,1.5423,1.5423,1.4644,1.3688,1.3688,1.3688,1.3808,1.4396,1.5041,1.5811,1.7062,1.8227,1.9448,2.0622,2.0952,2.0988,2.0988,2.0966,2.0944,2.0944,2.0683,2.0465,2.0465,2.0167,1.9969,1.9969,1.9619,1.9358,1.9409,1.8323,1.7296,1.6608,1.5528,1.4756,1.4475,1.5377,1.6223,1.6883,1.6849,1.6532,1.5875,1.58,1.5422,1.4598,1.4567,1.4704,1.4997,1.4721,1.4578,1.4603,1.4358,1.4274,0.9189,0.9719,1.0123,1.004,0.9811,0.9376,0.8547,0.7699,0.6961,0.6582,0.6346,0.6205,0.6205,0.6262,0.6501,0.7104,0.7574,0.8066,0.8737,0.9261,0.9729,1.0194,0.0,0.0,0.0,0.0,0.0,0.0,0.0,0.0,1.3688,1.3688,1.3688,1.3688,1.3688,1.3688,1.3688,1.3688,1.3688,1.3688,1.4222,1.4694,1.5219,1.5693,1.6225,1.6697,1.6697,0.0,0.0,1.6697,1.6697,1.6697,1.6697,1.6697,1.6697,1.6697,1.6697,1.6697,1.6697,1.6697,1.6697,1.6697,1.6338,1.5806,1.5051,1.4823,1.4942,1.5585,1.6231,1.7003,1.8058,1.9216,2.0314,2.1031,2.1211,2.1268,2.1439,2.1497,2.1554,2.1717,2.1448,2.1215,2.1215,2.0777,2.0484,2.0643,2.0179,1.9899,2.005,1.9179,1.8217,1.7409,1.6468,1.5873,1.5903,1.66,1.7518,1.8715,1.8434,1.8178,1.7981,1.7662,1.7148,1.6444,1.6437,1.6493,1.6591,1.6353,1.6058,1.572,1.5418,1.5078,0.9469,0.9962,1.0211,1.0055,0.959,0.9023,0.8181,0.7379,0.6729,0.6481,0.629,0.6205,0.6205,0.6205,0.6365,0.6894,0.7175,0.7546,0.8321,0.8789,0.9228,0.0,0.0,0.0,0.0,0.0,0.0,0.0,0.0,0.0,0.0,1.3688,1.3688,1.3688,1.3808,1.3868,1.3983,1.4043,1.4162,1.4286,1.4873,1.5521,1.6172,1.6809,1.739,1.7969,0.0,0.0,0.0,1.7969,1.7969,1.7969,1.7969,1.7969,1.7969,1.7969,1.7969,1.7969,1.7969,1.7969,1.7969,1.7969,1.7969,1.78,1.6938,1.6414,1.6236,1.6879,1.7649,1.8532,1.9345,2.0213,2.0902,2.1146,2.1268,2.1439,2.1668,2.1782,2.1888,2.2059,2.1918,2.1757,2.1757,2.1323,2.1102,2.1255,2.0784,2.0456,2.0651,1.9848,1.8949,1.8033,1.7286,1.6852,1.6888,1.7466,1.8426,1.9797,1.9493,1.9328,1.9424,1.9005,1.8486,1.7846,1.7839,1.7839,1.7839,1.7548,1.715,1.665,1.6255,1.5708,0.9885,1.0303,1.0477,1.008,0.949,0.8782,0.7973,0.7283,0.6679,0.6294,0.6205,0.6205,0.6205,0.6205,0.6271,0.6473,0.669,0.7047,0.7702,0.8151,0.0,0.0,0.0,0.0,0.0,0.0,0.0,0.0,0.0,0.0,0.0,1.3688,1.3688,1.3688,1.3992,1.4346,1.457,1.4932,1.5235,1.5596,1.6183,1.6832,1.7485,1.8129,1.87,0.0,0.0,0.0,0.0,1.9267,1.9267,1.9267,1.9267,1.9267,1.9267,1.9267,1.9267,1.9267,1.9267,1.9267,1.9267,1.9267,1.9267,1.9267,1.9267,1.8383,1.7507,1.8208,1.9274,2.0385,2.1031,2.1211,2.1211,2.1211,2.1439,2.1725,2.1725,2.1896,2.2116,2.2116,2.2108,2.2108,2.2108,2.2042,2.1977,2.1977,2.1663,2.1388,2.1388,2.0512,1.959,1.8853,1.8192,1.7597,1.7159,1.783,1.8748,1.9845,1.9909,1.9823,1.9725,1.9683,1.928,1.8419,1.8412,1.8412,1.8412,1.8101,1.7704,1.72,1.665,1.5954,0.884,0.9099,0.9252,0.8973,0.8562,0.8038,0.7518,0.6965,0.6524,0.6266,0.6205,0.6205,0.6205,0.6205,0.6271,0.6468,0.6558,0.6873,0.0,0.0,0.0,0.0,0.0,0.0,0.0,0.0,0.0,0.0,0.0,0.0,0.0,1.3933,1.3933,1.3688,1.4222,1.4748,1.5278,1.5811,1.6338,1.6868,1.7519,1.8104,1.8745,1.9397,0.0,0.0,0.0,0.0,0.0,2.0622,2.0622,2.0622,2.0622,2.0622,2.0622,2.0622,2.0622,2.0622,2.0622,2.0622,2.0622,2.0622,2.0622,2.0622,2.0622,1.9737,1.8855,1.973,2.0436,2.1031,2.166,2.1831,2.1831,2.1831,2.1888,2.2059,2.2294,2.24,2.2513,2.2675,2.2732,2.2732,2.2732,2.2497,2.2316,2.2316,2.1786,2.1396,2.1396,2.0519,1.9598,1.8899,1.8192,1.7727,1.7597,1.783,1.8494,1.9829,1.9917,2.0081,2.0472,2.0503,2.0397,2.0085,2.0085,2.0085,2.0085,1.9832,1.9205,1.8269,1.7398,1.6782,0.7995,0.8154,0.8216,0.8094,0.7833,0.7488,0.7139,0.6763,0.6435,0.6238,0.6205,0.6205,0.6205,0.6205,0.6243,0.637,0.6389,0.668,0.0,0.0,0.0,0.0,0.0,0.0,0.0,0.0,0.0,0.0,0.0,0.0,0.0,1.4107,1.4341,1.4396,1.4927,1.5521,1.629,1.6932,1.7513,1.815,1.8687,1.9216,1.9679,2.0206,0.0,0.0,0.0,0.0,0.0,2.1211,2.1268,2.1382,2.1382,2.1432,2.1546,2.1546,2.1546,2.1546,2.1546,2.1546,2.1546,2.1546,2.1546,2.1524,2.1398,2.0722,2.0138,2.0715,2.1126,2.1447,2.1964,2.2116,2.2116,2.2116,2.223,2.2343,2.257,2.2683,2.2796,2.2958,2.3014,2.3014,2.3014,2.2831,2.2688,2.2688,2.2092,2.1648,2.1648,2.0607,1.9598,1.8899,1.8192,1.7814,1.7814,1.7814,1.8364,1.9646,1.9845,2.0178,2.0893,2.0925,2.0925,2.0925,2.0925,2.0925,2.0925,2.0506,1.9931,1.9094,1.7996,1.7582,0.0,0.7457,0.7482,0.7482,0.7319,0.7127,0.688,0.6666,0.0,0.626,0.6232,0.6232,0.6232,0.6218,0.6218,0.6246,0.6251,0.6573,0.0,0.0,0.0,0.0,0.0,0.0,0.0,0.0,0.0,0.0,0.0,0.0,0.0,1.4336,1.5041,1.5693,1.6113,1.6708,1.7596,1.824,1.8816,1.9441,1.9744,2.0046,2.0385,2.0608,0.0,0.0,0.0,0.0,0.0,2.1211,2.1439,2.1725,2.1725,2.1888,2.2116,2.2116,2.2116,2.2116,2.2116,2.2116,2.2116,2.2116,2.2116,2.2047,2.1704,2.1382,2.116,2.1223,2.1446,2.1681,2.2081,2.2165,2.2165,2.2165,2.24,2.2626,2.2626,2.2796,2.3014,2.3014,2.3014,2.3014,2.3014,2.3014,2.3014,2.3014,2.241,2.2011,2.2011,2.0809,1.963,1.8939,1.8255,1.787,1.7814,1.7814,1.8276,1.9351,1.9726,2.017,2.0853,2.0909,2.0925,2.0925,2.0925,2.0925,2.0925,2.0395,2.0034,1.9732,1.8639,1.8272,0.659,0.0,0.734,0.734,0.7209,0.7046,0.0,0.6803,0.663,0.6598,0.6571,0.6571,0.6571,0.641,0.6383,0.6748,0.6803,0.7195,0.0,0.0,0.0,0.0,0.0,0.0,0.0,0.0,0.0,0.0,0.0,0.0,0.0,1.5224,1.6177,1.7009,1.7824,1.846,1.8861,1.9513,2.0162,2.0737,2.0802,2.0917,2.0974,2.1031,0.0,0.0,0.0,0.0,2.1211,2.1497,2.1611,2.1725,2.1945,2.2059,2.2116,2.2116,2.2116,2.2116,2.2116,2.2116,2.2116,2.2116,2.2116,2.2047,2.1704,2.1549,2.1549,2.1763,2.1874,2.2063,2.2638,2.2788,2.2788,2.2788,2.2845,2.2909,2.2909,2.2958,2.3014,2.3014,2.3014,2.3014,2.3014,2.3014,2.3014,2.3014,2.241,2.2011,2.2011,2.0972,2.0003,1.932,1.8843,1.8359,1.7854,1.7814,1.8276,1.9351,1.9726,2.0116,2.0496,2.0774,2.0925,2.0925,2.0925,2.0925,2.0925,2.0763,2.0557,2.0308,1.9628,1.9316,0.6648,0.6831,0.6953,0.7044,0.7081,0.709,0.7052,0.6966,0.6885,0.6891,0.6891,0.6832,0.6728,0.678,0.6948,0.0,0.7538,0.0,0.0,0.0,0.0,0.0,0.0,0.0,0.0,0.0,0.0,0.0,0.0,0.0,0.0,1.594,1.7107,1.8286,1.9107,1.9628,1.9737,2.0263,2.073,2.1211,2.1211,2.1211,2.1211,2.1211,2.1268,0.0,0.0,0.0,2.1603,2.1831,2.1945,2.2124,2.2286,2.24,2.2505,2.2505,2.2505,2.2505,2.2505,2.2505,2.2505,2.2505,2.2505,2.2443,2.2094,2.1993,2.2048,2.2048,2.2151,2.2348,2.287,2.3014,2.3014,2.3014,2.3014,2.3014,2.3014,2.3014,2.3014,2.3014,2.3014,2.3014,2.3014,2.3014,2.3014,2.3014,2.241,2.2011,2.2011,2.1044,2.013,1.9495,1.9042,1.8605,1.8057,1.8009,1.8335,1.9074,1.9447,1.9868,2.0369,2.0575,2.075,2.0917,2.0766,2.0758,2.0925,2.0758,2.0664,2.0668,2.0138,2.0042,0.7035,0.6923,0.6744,0.6922,0.7176,0.7351,0.7307,0.7296,0.728,0.7269,0.7242,0.716,0.6932,0.7247,0.0,0.0,0.0,0.0,0.0,0.0,0.0,0.0,0.0,0.0,0.0,0.0,0.0,0.0,0.0,0.0,0.0,1.6487,1.7849,1.9243,1.9894,2.0273,2.0372,2.0644,2.0902,2.1211,2.1211,2.1211,2.1211,2.1268,2.1439,0.0,0.0,0.0,2.2116,2.2173,2.2343,2.257,2.2626,2.2796,2.3014,2.3014,2.3014,2.3014,2.3014,2.3014,2.3014,2.3014,2.3014,2.2958,2.2656,2.2569,2.2514,2.2292,2.2364,2.2569,2.2919,2.3014,2.3014,2.3014,2.3014,2.3014,2.3014,2.3014,2.3014,2.3014,2.3014,2.3014,2.3014,2.3014,2.3014,2.3014,2.2458,2.2075,2.2019,2.1139,2.0265,1.9526,1.9169,1.8819,1.8414,1.8383,1.8533,1.8891,1.9201,1.9677,2.0369,2.0448,2.0591,2.0837,2.0543,2.0512,2.0758,2.0512,2.0551,2.0786,2.0423,2.0447,0.7055,0.7437,0.7684,0.771,0.7925,0.8118,0.8123,0.8117,0.8108,0.8114,0.792,0.7762,0.7728,0.784,0.8132,0.0,0.0,0.0,0.0,0.0,0.0,0.0,0.0,0.0,0.0,0.0,0.0,0.0,0.0,0.0,0.0,0.0,1.803,1.9258,1.9666,2.0134,2.0618,2.0958,2.1146,2.1211,2.1211,2.1211,2.1211,2.1497,2.1668,0.0,0.0,2.2059,2.2116,2.24,2.257,2.2626,2.2853,2.2958,2.3014,2.3014,2.3014,2.3014,2.3014,2.3014,2.3014,2.3014,2.3014,2.3006,2.295,2.2934,2.2934,2.2878,2.2664,2.2569,2.2919,2.3014,2.3014,2.3014,2.3014,2.3014,2.3014,2.3014,2.3014,2.3014,2.3014,2.3014,2.3014,2.3014,2.3014,2.3014,2.2664,2.2299,2.2051,2.1568,2.0901,1.9941,1.9789,1.9447,1.8804,1.8702,1.8899,1.9264,1.9391,1.9677,2.0369,2.0678,2.0726,2.048,2.0416,2.0273,2.0027,2.0273,2.0416,2.048,2.0672,2.0814,0.7104,0.746,0.7846,0.822,0.8527,0.8727,0.8737,0.8721,0.8775,0.8923,0.8746,0.8557,0.8557,0.0,0.9415,1.0621,0.0,0.0,0.0,0.0,0.0,0.0,0.0,0.0,0.0,0.0,0.0,0.0,0.0,0.0,0.0,0.0,1.8454,1.973,1.9964,2.0233,2.072,2.1036,2.1262,2.1497,2.1497,2.1554,2.1717,2.1831,2.2002,2.2173,0.0,2.2456,2.2619,2.274,2.2796,2.2853,2.2958,2.3014,2.3014,2.3014,2.3014,2.3014,2.3014,2.3014,2.3014,2.3014,2.3014,2.3014,2.3014,2.3014,2.3014,2.3014,2.2895,2.2807,2.2974,2.3014,2.3014,2.3014,2.3014,2.3014,2.3014,2.3014,2.3014,2.3014,2.3014,2.3014,2.3014,2.3014,2.3014,2.3014,2.2712,2.2426,2.2267,2.1783,2.1064,2.0241,2.0154,1.9868,1.9177,1.928,1.9383,1.9423,1.9717,2.0067,2.0377,2.0734,2.0845,2.0686,2.0297,2.0218,2.044,2.0218,2.0305,2.0686,2.0845,2.0925,0.7123,0.7393,0.7759,0.8369,0.8801,0.915,0.9245,0.9336,0.9456,0.9733,0.9618,0.9468,0.0,0.9961,0.0,0.0,0.0,0.0,0.0,0.0,0.0,0.0,0.0,0.0,0.0,0.0,0.0,0.0,0.0,0.0,0.0,0.0,1.8676,1.9949,2.0011,2.0201,2.0715,2.0944,2.1264,2.1725,2.1782,2.1888,2.2116,2.2173,2.2343,2.257,2.2683,2.2788,2.3014,2.3014,2.3014,2.3014,2.3014,2.3014,2.3014,2.3014,2.3014,2.3014,2.3014,2.3014,2.3014,2.3014,2.3014,2.3014,2.3014,2.3014,2.3014,2.3014,2.3014,2.3014,2.3014,2.3014,2.3014,2.3014,2.3014,2.3014,2.3014,2.3014,2.3014,2.3014,2.3014,2.3014,2.3014,2.3014,2.3014,2.3014,2.2784,2.2577,2.2498,2.1949,2.1298,2.0591,2.044,2.0146,1.9582,1.9845,1.9933,1.963,2.0106,2.0392,2.0392,2.0734,2.0885,2.0798,2.0265,2.021,2.067,2.0297,2.0353,2.0805,2.0921,2.1004,0.7119,0.7394,0.7649,0.7901,0.8519,0.9221,0.9733,1.0033,1.028,1.0545,1.0587,1.0569,1.0569,1.1212,0.0,0.0,0.0,0.0,0.0,0.0,0.0,0.0,0.0,0.0,0.0,0.0,0.0,0.0,0.0,0.0,0.0,0.0,0.0,1.9345,1.9345,1.9804,2.0704,2.0711,2.1088,2.1725,2.1945,2.2059,2.2116,2.24,2.257,2.2626,2.2853,2.2958,2.3014,2.3014,2.3014,2.3014,2.3014,2.3014,2.3014,2.3014,2.3014,2.3014,2.3014,2.3014,2.3014,2.3014,2.3014,2.3014,2.3014,2.3014,2.3014,2.3014,2.3014,2.3014,2.3014,2.3014,2.3014,2.3014,2.3014,2.3014,2.3014,2.3014,2.3014,2.3014,2.3014,2.3014,2.3014,2.3014,2.3014,2.3014,2.299,2.2855,2.2529,2.2156,2.1655,2.0956,2.0591,2.0241,1.9909,2.0154,2.0345,2.0321,2.0369,2.0392,2.0392,2.0734,2.0766,2.044,2.0377,2.0218,1.9988,2.0551,2.0702,2.0448,2.1056,2.1182,0.7413,0.7513,0.774,0.8269,0.8638,0.9035,0.9745,1.037,1.0918,1.1339,1.16,1.1661,1.1498,0.0,0.0,0.0,0.0,0.0,0.0,0.0,0.0,0.0,0.0,0.0,0.0,0.0,0.0,0.0,0.0,0.0,0.0,0.0,0.0,1.9279,1.948,1.9896,2.0666,2.1047,2.161,2.223,2.2343,2.2513,2.2675,2.2788,2.2853,2.2845,2.2958,2.3014,2.3014,2.3014,2.3014,2.3014,2.3014,2.3014,2.3014,2.3014,2.3014,2.3014,2.3014,2.3014,2.3014,2.3014,2.3014,2.3014,2.3014,2.3014,2.3014,2.3014,2.3014,2.3014,2.3014,2.3014,2.3014,2.3014,2.3014,2.3014,2.3014,2.3014,2.3014,2.3014,2.3014,2.3014,2.3014,2.3014,2.3014,2.3014,2.3014,2.2966,2.2831,2.2506,2.21,2.1624,2.1258,2.0945,2.0861,2.0972,2.1,2.1,2.0845,2.0726,2.0726,2.0853,2.0861,2.0726,2.0504,2.044,2.0519,2.0567,2.0639,2.0726,2.0945,2.1,0.7588,0.7609,0.7746,0.8311,0.865,0.9041,0.9847,1.0653,1.1399,1.2,1.2493,1.2741,1.255,0.0,0.0,0.0,0.0,0.0,0.0,0.0,0.0,0.0,0.0,0.0,0.0,0.0,0.0,0.0,0.0,0.0,0.0,0.0,0.0,0.0,1.9732,2.0204,2.0992,2.1372,2.1994,2.274,2.274,2.2796,2.3014,2.3014,2.3014,2.3014,2.3014,2.3014,2.3014,2.3014,2.3014,2.3014,2.3014,2.3014,2.3014,2.3014,2.3014,2.3014,2.3014,2.3014,2.3014,2.3014,2.3014,2.3014,2.3014,2.3014,2.3014,2.3014,2.3014,2.3014,2.3014,2.3014,2.3014,2.3014,2.3014,2.3014,2.3014,2.3014,2.3014,2.3014,2.3014,2.3014,2.3014,2.3014,2.3014,2.3014,2.3014,2.3014,2.3014,2.2704,2.2347,2.2051,2.1751,2.1568,2.1404,2.1396,2.1349,2.1238,2.1111,2.1131,2.1242,2.125,2.125,2.125,2.0909,2.0845,2.104,2.0845,2.0798,2.0925,2.0984,2.0976,0.7596,0.7626,0.767,0.7854,0.8524,0.9312,1.0124,1.093,1.1724,1.256,1.3372,1.3891,1.3824,1.4308,0.0,0.0,0.0,0.0,0.0,0.0,0.0,0.0,0.0,0.0,0.0,0.0,0.0,0.0,0.0,0.0,0.0,0.0,0.0,0.0,2.0078,2.0571,2.1588,2.1588,2.2049,2.3014,2.3014,2.3014,2.3014,2.3014,2.3014,2.3014,2.3014,2.3014,2.3014,2.3014,2.3014,2.3014,2.3014,2.3014,2.3014,2.3014,2.3014,2.3014,2.3014,2.3014,2.3014,2.3014,2.3014,2.3014,2.3014,2.3014,2.3014,2.3014,2.3014,2.3014,2.3014,2.3014,2.3014,2.3014,2.3014,2.3014,2.3014,2.3014,2.3014,2.3014,2.3014,2.3014,2.3014,2.3014,2.3014,2.3014,2.3014,2.3014,2.3014,2.2704,2.2363,2.2059,2.2019,2.183,2.1428,2.1396,2.1246,2.0948,2.1206,2.16,2.1995,2.2011,2.2011,2.2011,2.1624,2.1396,2.1396,2.1396,2.1214,2.0933,2.123,2.1206,0.8163,0.8292,0.8562,0.9053,0.9624,1.0359,1.1395,1.1844,1.2631,1.4614,1.5001,1.508,1.5493,0.0,0.0,0.0,0.0,0.0,0.0,0.0,0.0,0.0,0.0,0.0,0.0,0.0,0.0,0.0,0.0,0.0,0.0,0.0,0.0,0.0,2.03,2.0789,2.1588,2.1804,2.226,2.3014,2.3014,2.3014,2.3014,2.3014,2.3014,2.3014,2.3014,2.3014,2.3014,2.3014,2.3014,2.3014,2.3014,2.3014,2.3014,2.3014,2.3014,2.3014,2.3014,2.3014,2.3014,2.3014,2.3014,2.3014,2.3014,2.3014,2.3014,2.3014,2.3014,2.3014,2.3014,2.3014,2.3014,2.3014,2.3014,2.3014,2.3014,2.3014,2.3014,2.3014,2.3014,2.3014,2.3014,2.3014,2.3014,2.3014,2.3014,2.3014,2.3014,2.2919,2.2815,2.2712,2.2704,2.2458,2.1862,2.1539,2.1357,2.1246,2.1341,2.1444,2.1547,2.183,2.2011,2.2011,2.1624,2.1396,2.1396,2.1143,2.102,2.0925,2.0976,2.102,0.8851,0.9151,0.9573,1.0318,1.1028,1.1884,1.3307,1.3519,1.3905,0.0,1.6082,1.6153,1.6461,0.0,0.0,0.0,0.0,0.0,0.0,0.0,0.0,0.0,0.0,0.0,0.0,0.0,0.0,0.0,0.0,0.0,0.0,0.0,0.0,0.0,2.0557,2.0935,2.1484,2.1705,2.2037,2.2593,2.2593,2.2593,2.2609,2.2887,2.3014,2.3014,2.3014,2.3014,2.3014,2.3014,2.3014,2.3014,2.3014,2.3014,2.3014,2.3014,2.3014,2.3014,2.3014,2.3014,2.3014,2.3014,2.3014,2.3014,2.3014,2.3014,2.3014,2.3014,2.3014,2.3014,2.3014,2.3014,2.3014,2.3014,2.3014,2.3014,2.3014,2.3014,2.3014,2.3014,2.3014,2.3014,2.3014,2.3014,2.3014,2.3014,2.3014,2.3014,2.3014,2.3014,2.3014,2.3014,2.3014,2.2728,2.2075,2.1767,2.1536,2.1206,2.1497,2.1655,2.1655,2.1981,2.2226,2.2226,2.1695,2.1396,2.1396,2.104,2.0925,2.0925,2.0925,2.0925,0.9524,1.0009,1.0564,1.1543,1.2556,1.3753,1.5504,1.5552,1.5454,1.6195,0.0,1.7105,1.7126,0.0,0.0,0.0,0.0,0.0,0.0,0.0,0.0,0.0,0.0,0.0,0.0,0.0,0.0,0.0,0.0,0.0,0.0,0.0,0.0,0.0,2.0925,2.104,2.1396,2.1396,2.1624,0.0,2.2011,2.2027,2.2083,2.2641,2.2934,2.2966,2.3006,2.3014,2.3014,2.3014,2.3014,2.3014,2.3014,2.3014,2.3014,2.3014,2.3014,2.3014,2.3014,2.3014,2.3014,2.3014,2.3014,2.3014,2.3014,2.3014,2.3014,2.3014,2.3014,2.3014,2.3014,2.3014,2.3014,2.3014,2.3014,2.3014,2.3014,2.3014,2.3014,2.3014,2.3014,2.3014,2.3014,2.3014,2.3014,2.3014,2.3014,2.3014,2.3014,2.3014,2.3006,2.2974,2.2966,2.268,2.2027,2.1932,2.1592,2.0964,2.1544,2.1979,2.2011,2.2299,2.2482,2.2545,2.1806,2.1449,2.1501,2.1091,2.0976,2.0968,2.0976,2.0976,0.9484,1.0163,1.1027,1.2116,1.3718,1.5258,1.6395,1.6883,1.7197,1.7662,1.7831,0.0,0.0,0.0,0.0,0.0,0.0,0.0,0.0,0.0,0.0,0.0,0.0,0.0,0.0,0.0,0.0,0.0,0.0,0.0,0.0,0.0,0.0,2.0925,2.0925,2.104,2.1396,2.1396,2.1624,0.0,2.2011,2.2154,2.237,2.2243,2.2339,2.2617,2.2895,2.3014,2.3014,2.3014,2.3014,2.3014,2.3014,2.3014,2.3014,2.3014,2.3014,2.3014,2.3014,2.3014,2.3014,2.3014,2.3014,2.3014,2.3014,2.3014,2.3014,2.3014,2.3014,2.3014,2.3014,2.3014,2.3014,2.3014,2.3014,2.3014,2.3014,2.3014,2.3014,2.3014,2.3014,2.3014,2.3014,2.3014,2.3014,2.3014,2.3014,2.3014,2.3014,2.3014,2.2911,2.2633,2.2601,2.2315,2.1563,2.1306,2.1084,2.0933,2.1322,2.1679,2.2003,2.2299,2.2592,2.2812,2.2127,2.1877,2.213,2.1504,2.1326,2.1522,2.1318,2.1326,0.9725,1.0643,1.1835,1.3815,0.0,1.6771,1.7423,1.7887,1.824,1.845,0.0,0.0,0.0,0.0,0.0,0.0,0.0,0.0,0.0,0.0,0.0,0.0,0.0,0.0,0.0,0.0,0.0,0.0,0.0,0.0,0.0,2.0925,2.0925,2.0925,2.0925,2.0961,2.1143,2.1143,2.129,2.1465,2.1465,2.156,2.1751,2.2243,2.2474,2.2506,2.2863,2.3014,2.3014,2.3014,2.3014,2.3014,2.3014,2.3014,2.3014,2.3014,2.3014,2.3014,2.3014,2.3014,2.3014,2.3014,2.3014,2.3014,2.3014,2.3014,2.3014,2.3014,2.3014,2.3014,2.3014,2.3014,2.3014,2.3014,2.3014,2.3014,2.3014,2.3014,2.3014,2.3014,2.3014,2.3014,2.3014,2.3239,2.3408,2.3408,2.3408,2.3352,2.3247,2.307,2.2942,2.276,2.2585,2.2275,2.1735,2.1377,2.1048,2.0933,2.1409,2.1775,2.2003,2.2186,2.2399,2.2678,2.2079,2.1868,2.2014,2.1671,2.1573,2.1725,2.1573,2.1573,0.9948,1.1206,1.2827,1.547,1.6857,0.0,1.8112,1.8486,1.8686,1.8686,0.0,0.0,0.0,0.0,0.0,0.0,0.0,0.0,0.0,0.0,0.0,0.0,0.0,0.0,0.0,0.0,0.0,0.0,0.0,0.0,2.0925,2.0925,2.0925,2.0925,2.0925,2.0925,2.0925,2.0925,2.0925,2.0925,2.098,2.098,2.0964,2.2251,2.2641,2.2331,2.268,2.2831,2.2839,2.2903,2.2919,2.2934,2.299,2.3014,2.3014,2.3014,2.3014,2.3014,2.3014,2.2974,2.2919,2.2919,2.2879,2.2847,2.2903,2.2927,2.2991,2.3111,2.3183,2.3239,2.3287,2.3287,2.3287,2.3287,2.3287,2.3231,2.3014,2.3014,2.3014,2.3014,2.3014,2.3014,2.3127,2.3632,2.408,2.4136,2.408,2.3968,2.3689,2.3239,2.299,2.2934,2.2664,2.2339,2.2043,2.1695,2.1417,2.1123,2.1695,2.2107,2.2107,2.2043,2.2127,2.2473,2.2001,2.1827,2.1878,2.1827,2.1827,2.1878,2.1827,2.1827,0.9665,1.1631,1.3747,0.0,1.6309,1.7048,0.0,0.0,1.8367,0.0,0.0,0.0,0.0,0.0,0.0,0.0,0.0,0.0,0.0,0.0,0.0,0.0,0.0,0.0,0.0,0.0,0.0,0.0,0.0,0.0,2.0925,2.0925,2.0925,2.0925,2.0925,2.0925,2.0925,2.0925,2.0925,2.0925,2.1182,2.1167,2.0948,2.1743,2.191,2.1555,2.1949,2.2154,2.2178,2.2434,2.2561,2.2585,2.2895,2.3014,2.3014,2.3014,2.3014,2.3014,2.3014,2.2815,2.2561,2.2561,2.2347,2.221,2.2466,2.2719,2.3004,2.3599,2.3977,2.4256,2.4509,2.4565,2.4565,2.4565,2.4565,2.4287,2.3239,2.3014,2.3014,2.3014,2.3014,2.3183,2.3689,2.4295,2.4787,2.5008,2.4842,2.4565,2.4214,2.3504,2.2895,2.2585,2.2513,2.2339,2.2043,2.1971,2.1924,2.1876,2.2196,2.2418,2.2418,2.2178,2.2234,2.2733,2.2311,2.2182,2.2493,2.2434,2.2434,2.2493,2.2434,2.2434,1.0076,1.1864,1.3585,0.0,1.5769,1.6571,1.7072,0.0,0.0,0.0,0.0,0.0,0.0,0.0,0.0,0.0,0.0,0.0,0.0,0.0,0.0,0.0,0.0,0.0,0.0,0.0,0.0,0.0,0.0,2.0925,2.0925,2.0925,2.0925,2.0925,2.0925,2.0925,2.0925,2.0925,2.0925,2.0925,2.1032,2.1016,2.0933,2.1234,2.1401,2.1412,2.1814,2.2011,2.2043,2.2339,2.249,2.2521,2.2879,2.3014,2.3014,2.3014,2.3014,2.3014,2.3014,2.2784,2.249,2.249,2.2251,2.2075,2.2378,2.2812,2.3324,2.4186,2.4731,2.5157,2.5634,2.5735,2.5735,2.5735,2.5735,2.5626,2.5084,2.4437,2.4008,2.4008,2.4008,2.4231,2.5,2.5588,2.6073,2.6409,2.6182,2.5799,2.5368,2.4556,2.3867,2.3502,2.3286,2.3013,2.2648,2.2465,2.2412,2.2412,2.2784,2.2984,2.2984,2.2627,2.2601,2.3,2.2569,2.2485,2.2795,2.2937,2.2987,2.3046,2.2987,2.2987,1.028,0.0,1.3015,1.4011,1.5003,1.5831,0.0,0.0,0.0,0.0,0.0,0.0,0.0,0.0,0.0,0.0,0.0,0.0,0.0,0.0,0.0,0.0,0.0,0.0,0.0,0.0,0.0,0.0,0.0,2.0821,2.0917,2.0925,2.0925,2.0925,2.0925,2.0925,2.0925,2.0925,2.0925,2.0925,2.0925,2.0925,2.0925,2.0925,2.1016,2.1278,2.1584,2.1695,2.1727,2.2172,2.2355,2.2394,2.2847,2.3014,2.3014,2.3014,2.2958,2.2879,2.2879,2.2593,2.2227,2.2227,2.2035,2.1935,2.2437,2.3064,2.3808,2.4925,2.5643,2.6182,2.6825,2.6933,2.6987,2.7032,2.7032,2.6978,2.659,2.5845,2.5267,2.5313,2.5322,2.5588,2.6454,2.7096,2.758,2.7868,2.7634,2.7311,2.6834,2.5917,2.5219,2.4833,2.4544,2.4167,2.373,2.3479,2.333,2.3286,2.3577,2.3774,2.3774,2.327,2.3134,2.3409,2.2972,2.2787,2.2996,2.3288,2.3438,2.3397,2.3438,2.3438,0.9883,1.0989,0.0,1.313,1.3938,1.463,0.0,0.0,0.0,0.0,0.0,0.0,0.0,0.0,0.0,0.0,0.0,0.0,0.0,0.0,0.0,0.0,0.0,0.0,0.0,0.0,0.0,0.0,0.0,2.0567,2.0901,2.0925,2.0925,2.0925,2.0925,2.0925,2.0925,2.0925,2.0925,2.0925,2.0925,2.0925,2.0925,2.0925,2.0933,2.0948,2.0964,2.0972,2.1028,2.1703,2.2043,2.2107,2.2744,2.3014,2.3014,2.3014,2.2807,2.2513,2.2513,2.2069,2.1452,2.1452,2.1414,2.1512,2.258,2.3426,2.4377,2.5982,2.6862,2.7422,2.8077,2.8237,2.8281,2.8528,2.8581,2.8189,2.6816,2.6427,2.6481,2.6762,2.6816,2.7086,2.7956,2.8595,2.9092,2.9365,2.9144,2.887,2.8595,2.7517,2.6702,2.6477,2.6219,2.5894,2.5426,2.5232,2.5085,2.4889,2.4795,2.4753,2.4753,2.405,2.3771,2.4035,2.3525,2.3188,2.2996,2.3497,2.3655,2.3406,2.3646,2.3646,0.9559,0.0,0.0,1.2158,1.2838,1.3453,0.0,0.0,0.0,0.0,0.0,0.0,0.0,0.0,0.0,0.0,0.0,0.0,0.0,0.0,0.0,0.0,0.0,0.0,0.0,0.0,0.0,0.0,0.0,0.0,2.0234,2.0456,2.0583,2.0583,2.0805,2.0925,2.0925,2.0925,2.0925,2.0925,2.0925,2.0925,2.0925,2.0925,2.0925,2.0925,2.0925,2.0925,2.0972,2.1724,2.2011,2.2083,2.2736,2.3014,2.3014,2.3014,2.2791,2.249,2.249,2.2029,2.1396,2.1396,2.1462,2.1806,2.305,2.4123,2.529,2.7084,2.8038,2.8654,2.9248,2.9511,2.9711,2.9973,3.0026,2.9911,2.9365,2.8711,2.8223,2.8276,2.8329,2.8542,2.924,2.9681,3.0015,3.0287,3.012,2.9848,2.9565,2.8817,2.8055,2.7442,2.7261,2.6935,2.6221,2.5869,2.5666,2.5563,2.551,2.5505,2.5505,2.5299,2.5209,2.5315,2.4778,2.4199,2.3497,2.3904,2.4003,2.3904,2.4003,2.414,0.952,1.0154,0.0,0.0,0.0,1.2471,0.0,0.0,0.0,0.0,0.0,0.0,0.0,0.0,0.0,0.0,0.0,0.0,0.0,0.0,0.0,0.0,0.0,0.0,0.0,0.0,0.0,0.0,0.0,0.0,1.9909,2.0091,2.0265,2.0392,2.0734,2.0925,2.0925,2.0925,2.0925,2.0925,2.0925,2.0925,2.0925,2.0925,2.0925,2.0925,2.0925,2.0925,2.0964,2.1552,2.1791,2.1862,2.2561,2.2839,2.2855,2.2974,2.272,2.2307,2.2307,2.1908,2.137,2.1474,2.1821,2.2511,2.3974,2.5194,2.6469,2.8305,2.9154,2.9659,3.0151,3.0453,3.0703,3.0879,3.0983,3.1086,3.1086,3.0328,2.9681,2.9785,2.9785,2.9942,3.0474,3.0692,3.0858,3.1023,3.0909,3.0744,3.0578,3.0099,2.9539,2.8927,2.8754,2.8342,2.7435,2.709,2.6784,2.6546,2.6676,2.6725,2.6725,2.6788,2.684,2.684,2.6228,2.5555,2.4923,2.4603,2.4449,2.4449,2.4449,2.4696,0.0,0.0,0.0,0.0,0.0,0.0,0.0,0.0,0.0,0.0,0.0,0.0,0.0,0.0,0.0,0.0,0.0,0.0,0.0,0.0,0.0,0.0,0.0,0.0,0.0,0.0,0.0,0.0,0.0,1.9495,1.9861,1.9893,2.006,2.0369,2.071,2.0893,2.0909,2.0909,2.0909,2.0925,2.0925,2.0925,2.0925,2.0925,2.0925,2.0925,2.0925,2.0925,2.0948,2.1254,2.1396,2.1468,2.222,2.249,2.2529,2.2887,2.2577,2.2027,2.2027,2.1731,2.1401,2.1656,2.251,2.3707,2.5386,2.6596,2.7812,2.9538,3.0224,3.0443,3.0724,3.0983,3.1178,3.123,3.1424,3.1618,3.1618,3.1178,3.0879,3.1178,3.123,3.127,3.1578,3.1618,3.1618,3.1618,3.1618,3.1618,3.1618,3.1373,3.1138,3.0902,3.0647,3.013,2.9192,2.9006,2.8596,2.7855,2.8188,2.8386,2.8386,2.8499,2.8561,2.8561,2.7693,2.7249,2.7249,2.5722,2.4932,2.4932,2.4941,2.5246,0.9649,0.0,0.0,0.0,0.0,0.0,0.0,0.0,0.0,0.0,0.0,0.0,0.0,0.0,0.0,0.0,0.0,0.0,0.0,0.0,0.0,0.0,0.0,0.0,0.0,0.0,0.0,0.0,1.8978,1.9018,1.9113,1.9368,1.971,2.0052,2.0106,2.0281,2.0535,2.0535,2.0662,2.0925,2.0925,2.0925,2.0925,2.0925,2.0925,2.0925,2.0925,2.0925,2.0948,2.1254,2.1396,2.1468,2.222,2.249,2.2529,2.2887,2.2728,2.2339,2.2339,2.2422,2.2509,2.3018,2.4041,2.5428,2.6979,2.8093,2.9106,3.0234,3.0609,3.0776,3.1023,3.1127,3.123,3.1424,3.1578,3.1618,3.1618,3.1476,3.1373,3.1476,3.1476,3.1527,3.1578,3.1618,3.1618,3.1618,3.1618,3.1618,3.1618,3.1527,3.1342,3.0941,3.0848,3.0416,2.9469,2.901,2.8534,2.7973,2.8336,2.8542,2.8542,2.9229,2.9589,2.9589,2.8685,2.8222,2.8212,2.6741,2.6081,2.6081,2.6163,2.61,1.0125,1.0106,1.0053,0.0,0.0,0.0,0.0,0.0,0.0,0.0,0.0,0.0,0.0,0.0,0.0,0.0,0.0,0.0,0.0,0.0,0.0,0.0,0.0,0.0,0.0,0.0,0.0,1.839,1.839,1.8454,1.8597,1.9098,1.9511,1.9702,1.9845,2.0012,2.017,2.0321,2.0496,2.0702,2.0853,2.0925,2.0925,2.0925,2.0925,2.0925,2.0925,2.0925,2.0941,2.1095,2.1279,2.1454,2.2151,2.2594,2.2868,2.3389,2.3468,2.3258,2.3258,2.3498,2.3859,2.4412,2.5548,2.6929,2.8389,2.931,3.0047,3.0884,3.1127,3.1178,3.1333,3.1373,3.1424,3.1578,3.1618,3.1618,3.1618,3.1618,3.1618,3.1618,3.1618,3.1618,3.1618,3.1618,3.1618,3.1618,3.1618,3.1618,3.1618,3.1618,3.152,3.1225,3.1203,3.0887,3.0133,2.9775,2.9424,2.895,2.9323,2.9539,2.9539,3.0259,3.0661,3.0661,2.974,2.9063,2.8672,2.7393,2.6791,2.6812,2.6978,2.6745,1.0921,1.0848,1.065,1.033,0.0,0.0,1.0535,1.1338,0.0,0.0,0.0,0.0,0.0,0.0,0.0,0.0,0.0,0.0,0.0,0.0,0.0,0.0,0.0,0.0,0.0,1.7814,1.7814,1.7814,1.7846,1.7969,1.8279,1.8947,1.9359,1.9359,1.9694,1.9862,1.9902,2.0253,2.0452,2.05,2.0852,2.0976,2.0976,2.0968,2.0968,2.0976,2.0968,2.0968,2.1019,2.1019,2.1121,2.1391,2.2156,2.2806,2.344,2.4255,2.4543,2.4579,2.4624,2.497,2.5454,2.6008,2.71,2.8421,2.9574,3.028,3.0781,3.1407,3.1618,3.1618,3.1618,3.1618,3.1618,3.1618,3.1618,3.1618,3.1618,3.1618,3.1618,3.1618,3.1618,3.1618,3.1618,3.1618,3.1618,3.1618,3.1618,3.1618,3.1618,3.1618,3.1618,3.1618,3.1618,3.1422,3.093,3.0898,3.0701,3.0242,3.0646,3.0876,3.0821,3.128,3.152,3.1465,3.0592,2.9674,2.8803,2.7846,2.7373,2.7384,2.7531,2.7315,1.1246,1.1136,1.0921,1.1164,0.0,0.0,0.0,1.0995,0.0,0.0,0.0,0.0,0.0,0.0,0.0,0.0,0.0,0.0,0.0,0.0,0.0,0.0,0.0,0.0,0.0,1.7814,1.7814,1.7814,1.8033,1.8224,1.8295,1.87,1.9023,1.9209,1.9311,1.9583,2.0056,2.0433,2.0769,2.1064,2.1358,2.1522,2.1522,2.1326,2.1326,2.1522,2.1326,2.1479,2.1878,2.1878,2.1623,2.1391,2.2429,2.3134,2.3804,2.526,2.5927,2.6109,2.6578,2.7069,2.7661,2.8242,2.9101,3.0025,3.0739,3.113,3.1407,3.1545,3.1618,3.1618,3.1618,3.1618,3.1618,3.1618,3.1618,3.1618,3.1618,3.1618,3.1618,3.1618,3.1618,3.1618,3.1618,3.1618,3.1618,3.1618,3.1618,3.1618,3.1618,3.1618,3.1618,3.1618,3.1618,3.1422,3.093,3.0898,3.0701,3.0242,3.0646,3.0734,3.0362,3.0788,3.0865,3.0493,2.9925,2.9336,2.8803,2.8606,2.8466,2.8466,2.8293,2.7947,1.2273,1.2101,1.1813,1.1807,0.0,0.0,0.0,0.0,0.0,0.0,0.0,0.0,0.0,0.0,0.0,0.0,0.0,0.0,0.0,0.0,0.0,0.0,0.0,0.0,0.0,1.7151,1.7254,1.7254,1.7588,1.7787,1.7787,1.8112,1.8518,1.8928,1.9072,1.9372,1.9966,2.0713,2.113,2.1324,2.182,2.203,2.1869,2.1623,2.1573,2.1674,2.1573,2.1827,2.2325,2.271,2.2911,2.2939,2.3513,2.4281,2.5313,2.6493,2.7321,2.7839,2.8096,2.8585,2.9197,2.9628,3.0224,3.0858,3.127,3.1476,3.1618,3.1618,3.1618,3.1618,3.1618,3.1618,3.1618,3.1618,3.1618,3.1618,3.1618,3.1618,3.1618,3.1618,3.1618,3.1618,3.1618,3.1618,3.1618,3.1618,3.1618,3.1618,3.1618,3.1618,3.1618,3.1618,3.1618,3.152,3.128,3.1258,3.116,3.093,3.1127,3.105,3.057,3.0777,3.057,2.986,2.9609,2.9296,2.8803,2.8803,2.8803,2.8803,2.8664,2.8326,0.0,0.0,0.0,0.0,0.0,1.0925,0.0,0.0,0.0,0.0,0.0,0.0,0.0,0.0,0.0,0.0,0.0,0.0,0.0,0.0,0.0,0.0,0.0,0.0,0.0,1.6365,1.6572,1.6613,1.7053,1.7301,1.7301,1.7741,1.8274,1.8803,1.9092,1.949,2.0065,2.0968,2.1479,2.1557,2.2246,2.2458,2.2333,2.2072,2.1979,2.2072,2.2021,2.2426,2.307,2.375,2.4384,2.497,2.5005,2.5731,2.6958,2.793,2.8774,2.946,2.9565,2.988,3.0318,3.0536,3.0909,3.1322,3.1527,3.1618,3.1618,3.1618,3.1618,3.1618,3.1618,3.1618,3.1618,3.1618,3.1618,3.1618,3.1618,3.1618,3.1618,3.1618,3.1618,3.1618,3.1618,3.1618,3.1618,3.1618,3.1618,3.1586,3.1498,3.1487,3.1455,3.1356,3.1356,3.1356,3.1356,3.1356,3.1356,3.1356,3.1356,3.1127,3.0646,3.0537,3.0122,2.9358,2.9394,2.9197,2.8803,2.8803,2.8803,2.8803,2.8803,2.8571,0.0,0.0,0.0,0.0,1.2027,0.0,0.0,0.0,0.0,0.0,0.0,0.0,0.0,0.0,0.0,0.0,0.0,0.0,0.0,0.0,0.0,0.0,0.0,0.0,0.0,0.0,1.6156,1.6319,1.6942,1.7319,1.7319,1.8278,1.9021,1.9329,1.9872,2.0294,2.0609,2.1265,2.1746,2.2129,2.2523,2.2862,2.3247,2.2937,2.3029,2.3479,2.3229,2.3818,2.5001,2.5089,2.5732,2.6643,2.6702,2.7096,2.7874,2.9518,3.0328,3.0681,3.1146,3.1362,3.1414,3.1465,3.1527,3.1578,3.1578,3.1618,3.1618,3.1618,3.1618,3.1618,3.1618,3.1618,3.1618,3.1618,3.1618,3.1618,3.1618,3.1618,3.1618,3.1618,3.1618,3.1618,3.1618,3.1618,3.1618,3.1618,3.1618,3.1465,3.1029,3.0974,3.0821,3.0417,3.0373,3.0373,3.0373,3.0373,3.0373,3.0373,3.0373,3.0155,2.9663,2.9274,2.9,2.8891,2.888,2.8858,2.8803,2.8803,2.8803,2.8803,2.8803,2.8757,0.0,0.0,0.0,0.0,0.0,0.0,1.1489,0.0,1.0998,0.0,0.0,0.0,0.0,0.0,0.0,0.0,0.0,0.0,0.0,0.0,0.0,0.0,0.0,0.0,0.0,0.0,0.0,0.0,0.0,1.6531,1.6996,1.7918,1.8735,1.9428,2.0078,2.0659,2.1114,2.1725,2.2087,2.2259,2.2844,2.3289,2.3461,2.3718,2.4057,2.4412,2.459,2.5178,2.6013,2.6446,2.6972,2.761,2.8519,2.8786,2.8861,3.0137,3.0899,3.1311,3.1516,3.1618,3.1618,3.1618,3.1618,3.1618,3.1618,3.1618,3.1618,3.1618,3.1618,3.1618,3.1618,3.1618,3.1618,3.1618,3.1618,3.1618,3.1618,3.1618,3.1618,3.1618,3.1618,3.1618,3.1618,3.1618,3.1618,3.1618,3.1618,3.1444,3.0952,3.0898,3.0723,3.0264,3.0209,3.0209,3.0209,3.0209,3.0209,3.0209,2.9947,2.9696,2.9489,2.9066,2.8803,2.8803,2.8803,2.8803,2.8803,2.8803,2.8803,2.8803,2.8803,2.8803,1.4476,0.0,0.0,0.0,0.0,0.0,0.0,0.0,0.0,0.0,0.0,0.0,0.0,0.0,0.0,0.0,0.0,0.0,0.0,0.0,0.0,0.0,0.0,0.0,0.0,0.0,0.0,0.0,0.0,0.0,1.6633,1.7627,1.8536,1.9405,2.0172,2.0854,2.1392,2.1889,2.2172,2.2291,2.3081,2.3572,2.3836,2.451,2.5041,2.5479,2.5858,2.634,2.6935,2.7505,2.793,2.8329,2.9682,2.9965,2.9728,3.0649,3.1259,3.1618,3.1618,3.1618,3.1618,3.1618,3.1618,3.1618,3.1618,3.1618,3.1618,3.1618,3.1618,3.1618,3.1618,3.1618,3.1618,3.1618,3.1618,3.1618,3.1618,3.1618,3.1618,3.1618,3.1618,3.1618,3.1618,3.1618,3.1575,3.1444,3.1422,3.1203,3.0581,3.0504,3.033,2.986,2.9816,2.9816,2.9816,2.9816,2.9816,2.9816,2.9478,2.9328,2.9328,2.8989,2.8803,2.8803,2.8803,2.8803,2.8803,2.8803,2.8803,2.8803,2.8803,2.8803,0.0,0.0,0.0,1.3387,0.0,0.0,0.0,0.0,1.2064,0.0,0.0,0.0,0.0,0.0,0.0,0.0,0.0,0.0,0.0,0.0,0.0,0.0,0.0,0.0,0.0,0.0,0.0,0.0,0.0,0.0,1.6289,1.7764,1.8779,1.9218,2.0236,2.0977,2.1392,2.1616,2.1897,2.2327,2.2973,2.3758,2.4688,2.5353,2.6081,2.6849,2.6849,2.7289,2.794,2.7987,2.8279,2.8855,2.9827,3.0209,3.0281,3.1229,3.1578,3.1618,3.1618,3.1618,3.1618,3.1618,3.1618,3.1618,3.1618,3.1618,3.1618,3.1618,3.1618,3.1618,3.1618,3.1618,3.1618,3.1618,3.1618,3.1618,3.1618,3.1618,3.1618,3.1618,3.1618,3.1618,3.1618,3.1618,3.1465,3.0985,3.0919,3.0581,2.9652,2.9532,2.9394,2.8902,2.8847,2.8847,2.8847,2.8847,2.8847,2.8847,2.8836,2.8825,2.8825,2.8814,2.8803,2.8803,2.8803,2.8803,2.8803,2.8803,2.8803,2.8803,2.8803,2.8803,0.0,0.0,1.4268,1.413,0.0,0.0,0.0,0.0,0.0,0.0,0.0,0.0,0.0,0.0,0.0,0.0,0.0,0.0,0.0,0.0,0.0,0.0,0.0,0.0,0.0,0.0,0.0,0.0,1.41,0.0,0.0,1.7424,1.8593,1.9245,2.038,2.1051,2.1197,2.1514,2.1849,2.2167,2.3304,2.4158,2.4825,2.6303,2.722,2.7657,2.7998,2.8279,2.8513,2.8513,2.8653,2.8902,2.9827,3.0209,3.033,3.1269,3.1618,3.1618,3.1618,3.1618,3.1618,3.1618,3.1618,3.1618,3.1618,3.1618,3.1618,3.1618,3.1618,3.1618,3.1618,3.1618,3.1618,3.1618,3.1618,3.1618,3.1618,3.1618,3.1618,3.1618,3.1618,3.1618,3.1618,3.1618,3.1455,3.0963,3.0898,3.0548,2.9609,2.9489,2.9292,2.8858,2.8803,2.8803,2.8803,2.8803,2.8803,2.8803,2.8803,2.8803,2.8803,2.8803,2.8803,2.8803,2.8803,2.8803,2.8803,2.8803,2.8803,2.8803,2.8803,2.8803,1.5689,1.5322,0.0,1.4753,1.402,0.0,1.2983,0.0,0.0,0.0,0.0,0.0,0.0,0.0,0.0,0.0,0.0,0.0,0.0,0.0,0.0,0.0,0.0,0.0,0.0,0.0,1.2314,1.2779,1.3406,0.0,0.0,0.0,1.8091,1.8861,2.0283,2.1099,2.1238,2.1697,2.2132,2.2451,2.3731,2.468,2.5386,2.6993,2.794,2.8279,2.8653,2.8803,2.8803,2.8803,2.8803,2.8902,2.9827,3.0209,3.033,3.1269,3.1618,3.1618,3.1618,3.1618,3.1618,3.1618,3.1618,3.1618,3.1618,3.1618,3.1618,3.1618,3.1618,3.1618,3.1618,3.1618,3.1618,3.1618,3.1618,3.1618,3.1618,3.1618,3.1618,3.1618,3.1618,3.1618,3.1618,3.1618,3.1455,3.0963,3.0756,3.0362,2.9587,2.9325,2.9153,2.8836,2.8803,2.8803,2.8803,2.8803,2.8803,2.8803,2.8803,2.8803,2.8803,2.8803,2.8803,2.8803,2.8803,2.8803,2.8803,2.8803,2.8803,2.8803,2.8803,2.8803]}]]